ECMWFNIL_700_spd_000.txt.gz
Wind_Speed
28 29 30 30 30 29 28 27 27 27 28 29 30 31 33 35 37 39 42 45 48 48 48 48 51 53 55 56 57 57 58 60 59 54 52 52 49 46 45 43 39 36
28 29 30 32 32 31 30 29 29 28 28 29 31 32 33 35 36 38 39 41 45 48 48 47 48 51 54 55 56 56 57 60 63 59 54 51 48 47 47 43 38 36
31 31 31 32 34 34 33 32 31 30 29 30 31 32 33 34 36 37 38 39 43 46 47 47 47 49 52 54 56 57 56 58 62 62 59 53 48 49 48 43 40 39
34 34 33 33 35 35 35 35 33 32 31 31 32 33 33 33 33 35 36 38 41 44 46 47 47 47 49 53 55 57 57 58 59 61 62 57 51 51 51 47 45 42
36 36 36 36 36 36 37 36 35 34 33 33 33 34 35 34 33 33 34 35 38 41 44 47 47 47 48 51 54 56 58 58 58 60 63 59 53 52 53 52 49 46
37 37 37 38 38 38 38 37 36 36 36 35 36 37 37 37 37 36 36 35 36 38 41 45 47 48 48 50 53 55 57 59 59 59 62 62 56 53 55 55 52 51
39 38 38 39 39 39 39 38 37 37 37 37 37 38 39 38 39 40 39 39 38 37 39 42 45 48 49 50 52 55 56 58 59 60 61 63 60 55 55 56 54 54
41 40 39 39 40 40 40 39 38 38 38 37 37 38 39 40 40 41 41 41 41 39 39 40 43 46 49 51 52 54 56 57 59 61 61 62 63 58 54 56 57 56
43 42 41 40 40 41 41 40 39 38 38 37 37 37 39 40 40 41 42 42 41 41 39 40 42 45 48 51 52 53 55 56 57 60 61 61 64 63 58 55 56 59
46 44 43 41 40 41 41 40 40 39 38 38 37 37 38 39 38 39 41 41 41 40 39 39 41 44 47 50 51 52 54 56 57 59 61 60 62 65 63 58 56 59
48 46 44 41 40 40 40 40 40 39 38 38 38 38 38 38 38 38 40 41 41 40 38 38 40 44 46 49 50 51 52 55 57 58 59 59 59 61 64 63 58 56
48 46 44 40 39 39 39 39 39 39 39 39 39 39 39 39 38 37 39 41 41 39 38 37 39 42 46 48 49 50 51 53 56 58 58 58 58 59 61 63 59 54
45 44 42 39 37 37 37 38 39 39 40 40 41 42 41 40 39 38 39 41 41 41 39 37 36 39 44 48 50 50 50 52 56 58 58 57 58 58 60 61 58 53
41 40 39 38 36 35 36 38 39 40 41 42 43 44 43 42 41 40 40 41 42 42 42 40 39 38 40 46 51 51 51 52 55 58 59 58 57 58 59 59 57 54
37 37 37 36 35 35 37 38 39 41 42 43 43 43 43 43 44 43 42 42 43 43 44 44 44 43 41 43 49 53 52 52 55 57 59 58 57 58 58 58 58 56
36 35 35 34 35 36 37 38 40 41 42 42 41 41 42 43 45 46 46 46 46 46 46 47 47 47 45 44 47 52 53 53 54 57 58 58 58 58 58 59 61 58
34 34 33 34 36 37 38 39 40 41 41 42 42 42 43 45 47 49 49 49 50 50 50 51 51 51 50 47 48 51 53 53 54 55 56 57 58 58 58 60 61 59
34 34 34 35 37 38 39 40 41 42 42 43 44 44 45 47 49 50 51 51 50 49 49 50 51 52 54 52 50 51 52 53 53 53 54 57 58 58 59 59 59 57
33 34 35 36 37 38 39 40 41 43 44 44 45 45 46 48 48 49 50 50 48 45 45 46 48 50 53 55 54 52 52 53 53 52 53 55 57 58 58 57 57 56
33 33 34 36 37 38 38 39 41 43 45 46 46 46 47 47 46 46 46 46 45 44 45 47 48 48 51 55 55 52 51 52 51 50 52 53 55 57 56 55 57 56
32 33 34 35 35 35 36 37 39 41 43 45 45 45 44 43 43 42 42 43 43 43 44 46 48 48 50 54 54 52 50 50 49 48 50 52 53 54 53 52 54 54
32 33 34 34 33 34 36 38 40 40 40 40 40 38 37 37 39 39 39 39 39 38 39 42 44 44 48 52 52 49 48 48 47 47 48 51 52 50 47 48 50 52
32 33 34 34 34 36 39 42 42 39 36 35 34 33 33 35 37 37 36 35 33 32 33 35 35 39 45 47 46 46 47 47 46 46 47 50 50 47 45 47 49 51
31 34 35 37 39 41 44 46 44 38 32 31 32 31 33 35 36 37 35 32 29 28 28 29 31 38 45 43 41 43 45 46 46 46 46 48 48 46 47 51 51 48
32 34 37 40 43 45 48 48 43 37 31 28 30 32 34 35 36 37 36 32 29 29 30 30 34 41 46 42 39 42 45 45 46 46 47 48 49 47 48 51 48 44
32 35 39 43 46 48 50 47 42 38 32 26 28 30 32 32 32 34 35 33 31 32 34 35 37 43 47 44 40 42 46 47 47 48 50 52 52 50 49 48 45 45

ECMWFNIL_700_spd_003.txt.gz
Wind_Speed
33 32 30 29 26 25 24 23 22 22 24 26 29 32 34 36 37 38 38 38 38 39 39 40 40 41 42 44 44 46 47 49 51 51 49 50 49 48 48 45 42 40
34 33 33 31 29 28 27 25 24 23 23 25 28 30 33 35 37 38 38 37 37 37 37 38 39 39 40 42 44 46 47 48 51 51 50 50 49 48 49 48 46 43
35 35 35 34 32 30 29 29 28 26 25 25 27 29 32 34 36 38 38 38 37 37 36 37 38 38 39 40 42 44 46 48 49 50 51 50 48 48 49 50 50 48
36 36 36 36 36 34 32 32 31 31 29 27 27 29 31 34 36 38 38 38 38 38 37 37 38 39 39 38 39 42 45 47 48 49 50 49 46 47 48 50 52 51
37 37 38 37 38 37 36 35 34 34 34 31 29 29 32 34 36 38 39 40 40 40 39 39 39 40 40 39 39 40 43 45 48 49 50 50 49 47 46 48 51 52
38 39 39 39 39 40 39 39 37 37 37 35 33 31 32 34 36 38 40 41 41 41 41 41 40 40 40 40 39 40 41 43 46 48 50 51 51 49 46 47 51 53
39 40 41 41 42 42 42 41 41 39 39 39 37 34 33 34 37 38 39 41 43 43 42 42 42 41 40 40 40 39 39 42 44 47 50 50 51 51 48 47 50 53
39 41 42 43 43 44 44 44 43 42 41 41 40 37 35 35 37 38 39 41 43 45 44 44 44 43 42 42 41 40 39 40 43 46 49 50 50 51 51 50 49 50
40 42 43 44 45 45 45 45 45 44 43 42 41 40 38 36 37 39 40 41 42 44 45 46 46 46 45 45 44 43 41 40 42 44 47 49 50 51 52 53 51 49
40 42 44 46 46 46 45 43 43 43 42 42 41 40 39 37 38 39 41 41 42 43 44 46 47 47 48 48 46 45 43 41 41 43 45 48 50 51 51 52 53 52
41 44 45 46 44 42 40 39 39 40 39 39 39 39 39 38 38 39 41 42 42 42 43 45 46 47 48 49 48 46 45 43 42 43 44 47 49 51 51 51 53 54
43 44 43 41 39 38 37 36 37 37 37 36 36 37 38 38 38 39 40 42 42 42 43 44 45 46 47 49 49 46 44 44 44 43 44 46 48 51 52 52 52 54
43 41 39 37 36 36 36 35 36 35 35 35 35 36 37 37 38 39 40 42 43 43 43 44 45 45 46 48 48 46 44 44 45 45 45 45 47 49 52 53 53 53
41 37 35 35 36 36 36 35 35 35 35 35 35 35 36 37 38 39 41 42 43 43 44 45 46 45 46 46 47 47 45 43 45 46 46 45 46 48 50 53 54 53
38 35 35 35 36 36 36 35 35 35 35 36 36 37 37 38 39 40 41 42 43 44 44 45 47 46 46 46 46 46 45 43 44 46 47 46 46 47 49 51 53 54
36 35 35 35 35 35 35 35 35 35 35 36 37 38 39 40 41 41 42 43 44 44 45 46 48 47 46 45 45 46 45 43 43 44 46 47 47 47 48 50 52 54
35 35 35 34 34 35 35 35 34 35 36 36 37 38 40 41 42 43 43 44 44 45 46 47 48 48 46 45 45 46 47 45 43 42 44 45 46 47 48 49 50 53
35 35 34 33 34 34 34 34 35 36 37 38 39 40 41 42 44 44 44 44 45 45 46 47 48 47 46 46 46 47 48 48 46 44 43 43 45 46 48 48 49 51
35 33 32 32 33 33 33 33 35 36 38 39 41 41 43 44 45 46 45 44 44 45 46 47 48 47 46 47 48 48 49 50 49 48 47 44 43 45 47 48 49 50
33 32 31 32 32 32 32 33 34 36 38 40 43 44 46 47 48 48 47 45 44 44 45 47 48 48 47 47 49 50 51 52 52 51 51 48 46 45 46 48 49 50
32 31 31 31 32 32 32 33 35 38 41 44 46 48 48 50 50 50 49 46 45 44 44 47 48 48 47 48 49 51 53 54 55 54 54 52 49 47 46 48 49 50
31 31 31 31 32 33 33 34 37 41 45 48 50 50 49 50 50 50 50 48 47 46 45 46 47 46 47 48 49 51 53 54 56 56 56 55 53 50 48 48 49 49
30 31 31 32 33 34 35 36 39 44 48 50 50 49 48 46 46 47 48 47 47 46 45 45 44 44 45 46 47 49 51 52 53 54 56 56 55 53 51 49 48 48
29 30 32 33 34 35 36 38 42 46 49 48 47 46 44 41 41 43 45 44 44 43 43 43 42 40 40 42 44 46 48 49 50 51 52 54 56 56 53 49 47 47
29 30 32 34 35 36 37 39 43 47 48 44 40 39 37 35 35 37 40 41 40 40 40 40 38 36 36 39 40 42 45 47 49 50 51 52 55 56 53 49 47 47
28 30 32 34 35 35 37 40 44 47 44 38 32 29 29 28 29 31 33 35 36 37 37 36 35 34 34 36 37 40 43 45 47 48 50 52 53 53 52 49 46 46

ECMWFNIL_700_spd_006.txt.gz
Wind_Speed
25 25 24 25 25 25 25 24 22 21 22 24 26 28 29 30 31 33 34 35 36 38 38 39 40 40 40 41 42 44 44 44 44 43 42 42 40 39 40 44 47 47
27 26 27 27 27 27 28 27 27 25 24 24 25 27 29 30 31 33 34 35 36 37 38 39 40 40 40 40 41 43 44 44 44 44 44 43 41 40 41 44 46 46
27 27 28 29 30 29 29 29 29 29 29 27 27 27 29 31 32 33 35 36 36 37 38 39 41 41 40 40 40 41 42 44 44 44 45 44 44 45 46 47 46 44
28 28 29 30 31 31 31 31 31 31 32 32 31 30 30 31 32 34 35 36 37 38 38 39 40 41 42 41 41 41 41 42 43 43 45 46 46 47 46 45 44 43
28 29 30 31 32 33 33 33 33 33 33 34 34 34 33 33 33 33 35 37 38 39 39 40 40 41 42 42 42 42 41 41 42 43 44 46 47 47 47 47 47 48
30 30 31 32 33 34 35 35 35 35 35 36 36 36 36 36 35 34 35 37 39 39 40 41 41 41 42 43 44 44 44 43 42 42 43 44 45 47 48 49 50 50
31 32 32 33 34 34 35 36 37 38 39 38 38 39 39 39 38 37 36 36 38 40 41 41 42 43 43 44 45 45 46 45 43 43 43 43 44 45 47 50 51 50
32 32 32 33 34 35 35 37 38 40 41 42 41 40 39 39 39 39 38 37 37 39 41 42 43 44 45 46 46 47 47 47 46 44 44 43 44 44 45 48 51 52
33 33 33 33 34 35 36 37 39 41 42 43 42 40 39 38 38 39 39 38 37 38 40 42 43 45 46 47 48 48 48 48 48 47 45 44 44 44 44 46 49 52
34 33 33 34 35 36 37 38 40 41 41 41 40 39 38 37 37 37 38 38 37 37 39 42 44 45 47 48 49 50 50 50 50 49 47 45 44 43 43 44 46 49
34 34 35 35 36 38 39 40 40 40 38 37 37 37 37 37 37 36 36 36 36 36 37 41 44 45 47 49 50 51 51 51 52 51 50 48 46 45 44 44 45 47
35 35 36 37 38 39 39 40 39 38 35 35 35 36 36 36 36 36 35 34 34 35 36 39 43 45 47 49 51 52 51 52 53 53 53 51 50 48 46 45 45 45
36 36 37 39 40 40 40 40 38 36 34 34 36 36 36 36 36 36 35 34 33 34 35 37 40 44 47 49 50 51 52 52 52 53 54 54 53 52 50 48 47 45
37 38 39 40 40 40 39 39 37 35 35 36 37 37 36 35 35 36 36 35 35 34 34 36 39 42 45 48 49 51 51 51 52 53 54 55 55 54 53 51 49 48
38 40 41 40 40 39 38 37 36 35 35 36 37 36 36 35 35 36 37 37 37 37 37 37 39 41 43 45 47 49 50 50 50 51 53 54 55 55 55 54 52 50
39 40 40 40 39 38 38 36 35 35 36 36 36 35 35 35 35 37 38 38 39 40 40 41 41 42 43 43 45 46 49 50 50 51 52 54 55 55 55 55 53 51
39 39 39 39 39 38 37 36 35 35 36 35 35 35 35 36 37 38 38 40 41 42 43 43 44 43 43 43 44 45 47 50 51 51 52 53 54 54 54 54 54 52
37 38 38 38 38 37 36 35 35 35 35 35 35 35 36 37 37 38 39 41 43 45 46 47 46 45 44 43 44 45 47 50 52 52 52 53 54 54 53 53 53 53
36 38 38 38 38 36 35 34 34 34 35 35 36 37 38 39 39 40 42 44 46 48 50 51 51 49 46 44 44 45 47 49 52 54 54 54 55 54 52 52 52 52
37 38 39 38 37 35 34 34 34 34 35 36 37 39 40 41 42 44 45 47 49 51 52 53 53 52 50 47 45 45 47 49 52 55 55 55 55 54 52 51 52 52
37 38 38 37 35 34 33 33 33 34 35 36 38 40 42 43 45 47 49 51 53 53 53 53 53 53 51 49 47 45 47 49 52 55 57 56 56 54 52 52 52 52
37 37 36 34 33 32 32 32 32 33 35 36 38 40 42 45 47 50 53 55 55 54 53 53 52 51 50 49 47 46 46 49 53 56 57 57 57 55 53 52 52 52
36 34 33 32 31 30 30 30 32 33 34 36 38 40 42 45 49 52 55 55 55 52 51 50 49 47 47 46 46 45 47 50 53 56 58 58 57 55 54 53 53 52
34 32 31 30 29 29 29 30 31 33 34 36 38 40 43 47 50 53 55 54 52 47 45 47 47 45 44 44 43 43 46 49 52 55 57 57 56 55 55 55 55 54
32 30 29 28 28 28 29 30 31 33 35 37 39 42 45 48 50 53 53 49 45 42 42 45 45 43 43 42 40 41 45 48 50 53 55 56 56 56 57 57 56 56
30 29 28 27 28 28 29 30 31 34 36 38 41 44 47 48 49 49 47 41 38 38 41 43 43 41 40 39 38 40 43 46 48 51 53 54 56 57 58 58 58 57

ECMWFNIL_700_spd_009.txt.gz
Wind_Speed
27 27 26 25 24 24 23 22 22 21 21 21 21 22 22 24 26 28 29 31 32 33 34 36 37 37 36 36 35 37 39 41 41 43 44 46 46 46 46 44 44 45
28 28 28 26 26 25 24 23 23 23 23 23 24 24 24 25 25 27 28 30 31 33 34 35 37 38 38 37 36 36 37 39 40 41 42 44 45 46 46 44 44 44
29 29 28 27 26 26 25 24 24 24 25 25 26 26 26 27 27 27 28 29 30 32 34 35 36 37 38 39 39 38 38 38 38 39 41 43 44 45 46 45 45 44
29 29 28 28 27 26 26 25 25 26 26 27 28 28 28 29 29 30 30 30 30 31 33 34 35 36 37 38 39 40 39 39 38 38 39 41 43 44 45 46 46 46
29 29 29 28 28 27 27 27 27 28 29 29 30 30 30 31 31 32 33 33 32 32 33 34 34 35 36 37 39 40 40 40 39 39 39 40 41 43 44 45 47 47
30 30 30 30 29 29 29 29 30 30 31 32 32 32 33 33 33 34 35 35 34 34 34 35 35 35 36 37 39 40 40 41 40 40 41 40 40 41 43 44 45 47
31 31 31 31 31 31 31 31 31 32 33 34 34 34 34 34 34 34 35 36 36 35 36 36 36 36 37 38 39 41 41 41 41 41 42 42 41 41 42 43 44 45
31 31 32 32 33 33 33 32 33 34 34 35 36 36 36 36 35 35 36 36 36 36 36 36 37 37 37 38 40 41 42 42 42 42 43 43 42 42 42 42 43 44
32 32 32 33 33 34 34 34 35 35 36 37 37 38 38 38 37 36 36 36 37 36 36 36 37 37 38 39 40 42 43 44 44 43 44 44 44 44 43 43 44 44
32 33 34 34 34 34 35 35 36 36 37 38 38 39 40 40 39 38 37 36 36 36 36 36 36 37 38 38 39 41 43 45 45 46 46 46 46 45 45 44 44 45
33 34 34 34 35 35 35 36 37 38 39 39 40 40 41 41 40 40 39 37 36 36 37 36 36 36 37 38 38 39 42 45 46 48 48 48 48 47 46 46 46 46
34 34 35 35 35 36 36 38 39 39 40 41 41 42 42 42 41 41 40 39 38 37 37 37 37 37 37 38 38 38 40 43 46 48 50 50 50 49 48 48 47 47
35 35 35 35 36 37 38 39 40 41 42 42 43 43 42 42 42 41 41 40 40 39 38 38 38 38 38 37 37 37 37 40 43 47 49 51 51 51 51 51 49 48
35 35 36 36 37 39 40 41 42 43 43 44 44 43 42 42 42 42 42 41 41 40 40 40 40 40 39 37 36 36 36 37 39 43 47 50 52 52 52 53 52 50
35 36 37 37 39 40 41 42 43 44 44 44 44 43 43 42 42 42 42 42 41 41 41 41 41 40 39 37 36 36 36 37 39 40 43 47 50 52 53 54 53 53
35 36 37 38 39 40 41 42 43 44 44 44 43 43 43 43 43 42 42 42 42 42 42 42 41 40 39 38 37 36 36 38 39 41 43 45 48 50 53 54 54 54
35 36 37 38 39 40 41 42 43 43 43 43 43 43 43 43 42 42 42 42 42 43 43 42 42 41 39 37 37 36 37 38 40 42 44 46 48 50 52 54 55 55
34 35 36 37 39 40 41 42 43 43 43 43 43 42 42 41 41 41 41 41 42 43 43 43 43 42 41 39 38 38 38 40 41 43 45 47 49 51 52 54 54 54
33 34 35 37 39 40 41 41 42 43 42 42 42 41 39 39 39 39 40 41 42 43 44 44 44 44 44 44 43 41 41 43 45 46 48 49 50 51 53 55 54 54
32 34 35 37 38 40 40 41 42 42 41 41 40 38 37 37 37 38 39 40 41 43 44 45 46 47 47 48 47 46 46 48 49 50 51 51 52 53 54 56 56 55
32 33 35 37 39 40 41 41 41 40 39 38 36 35 35 36 36 37 38 39 41 43 45 46 47 48 49 51 51 52 53 54 54 54 54 54 55 55 55 56 58 57
32 34 35 37 39 40 41 40 39 38 37 35 34 34 35 36 36 37 38 40 41 43 45 47 48 49 51 53 54 55 57 58 59 58 57 57 57 58 58 57 58 59
32 34 36 38 39 39 39 38 37 36 35 34 34 35 35 35 36 37 39 41 43 44 47 49 51 52 53 55 57 58 60 61 61 60 59 58 58 59 60 59 58 59
33 35 37 38 38 38 37 36 35 35 35 33 34 35 36 36 37 38 40 43 45 47 49 52 54 55 56 58 58 59 59 59 58 57 56 57 58 59 61 60 58 58
34 36 37 37 37 36 35 35 35 34 34 33 34 36 37 37 39 40 43 45 47 50 52 55 57 57 57 55 53 51 51 51 50 50 52 54 57 59 60 60 59 59
35 36 37 37 35 35 34 35 35 35 34 34 35 37 37 38 40 42 45 48 50 53 55 56 56 54 50 46 43 42 43 44 45 47 50 52 54 57 59 59 59 59

ECMWFNIL_700_spd_012.txt.gz
Wind_Speed
22 22 22 22 22 23 22 22 22 22 22 21 21 21 22 23 23 23 22 22 23 25 26 27 28 28 27 27 27 28 29 30 30 31 33 35 36 37 39 40 39 36
23 23 23 23 24 24 24 23 24 24 23 23 22 22 23 24 24 24 24 24 24 24 25 26 27 29 30 30 30 29 29 29 29 30 31 33 34 35 37 39 41 40
23 24 24 24 25 25 24 24 24 24 24 24 24 24 25 25 25 25 26 26 26 26 26 26 26 28 30 31 32 32 31 30 29 29 31 32 32 33 34 36 39 41
24 24 25 25 25 25 25 24 24 24 24 25 25 26 27 27 27 27 28 28 28 29 29 28 28 28 30 31 33 34 34 33 31 30 31 32 32 32 32 34 36 38
24 24 25 25 26 26 25 25 25 25 26 26 26 27 28 29 30 30 30 30 30 31 31 31 30 30 31 31 33 34 34 34 34 33 33 32 32 32 32 33 34 36
24 24 25 26 26 27 27 27 27 27 28 28 29 29 30 31 31 31 31 31 31 32 32 33 32 32 32 32 33 34 34 34 35 35 35 35 33 33 33 33 34 34
25 26 26 27 27 27 27 27 28 29 29 30 30 31 31 32 32 32 32 32 31 32 32 34 34 33 33 33 33 34 34 34 35 35 36 37 36 34 34 34 35 35
27 28 28 29 28 27 27 28 29 29 30 31 31 31 32 32 33 33 33 33 33 32 33 33 35 35 34 34 34 34 34 33 34 35 36 38 38 37 36 36 36 36
30 30 30 30 29 28 28 28 29 30 31 31 31 32 33 33 34 34 35 35 34 34 34 33 34 35 35 35 35 35 34 34 34 35 36 37 38 38 38 38 38 38
31 32 31 31 29 29 29 29 31 32 32 32 33 33 34 35 35 36 36 37 36 35 35 34 34 35 35 35 36 36 35 35 35 35 35 37 38 38 39 40 40 40
32 32 31 31 30 29 30 31 32 33 33 34 35 35 36 36 37 38 38 39 38 37 36 35 34 34 35 36 36 37 37 36 36 36 35 36 36 37 39 40 42 43
31 31 31 30 30 30 31 32 33 34 35 36 37 37 38 39 39 40 40 40 40 39 38 37 36 35 36 37 37 38 38 38 38 38 37 36 36 36 37 39 42 44
31 31 30 31 31 31 32 33 34 35 36 38 39 40 40 41 42 42 42 42 42 41 40 39 38 36 36 37 38 39 39 39 39 39 39 38 37 36 36 37 40 42
31 31 31 31 31 31 32 33 35 36 38 39 40 41 42 43 43 44 44 44 43 42 42 41 40 38 37 38 39 39 39 40 40 40 40 40 39 38 36 36 37 39
32 32 32 31 31 32 33 34 36 37 38 40 41 42 44 44 45 45 45 44 44 43 43 42 42 40 39 39 39 39 39 40 41 41 41 41 40 39 38 37 37 37
32 32 32 32 32 33 34 35 36 37 38 40 41 43 44 45 46 46 45 44 43 43 43 43 43 42 41 40 40 39 39 40 40 41 41 41 41 41 40 39 38 37
32 32 31 32 33 34 35 36 36 37 38 40 42 43 44 45 46 46 45 43 42 42 43 43 43 42 41 40 39 39 39 40 40 41 41 42 42 42 41 40 39 39
31 31 31 32 33 34 35 36 36 37 39 40 42 43 44 46 46 45 43 42 41 41 41 41 41 40 39 38 38 39 39 40 41 41 42 43 43 43 43 42 42 41
30 30 31 32 32 33 34 35 36 37 39 41 42 43 44 45 44 42 41 40 40 39 39 39 39 38 37 37 38 39 40 40 41 42 42 43 44 45 45 46 46 45
30 30 31 31 31 33 34 35 36 37 39 40 41 42 44 44 41 39 39 39 38 38 38 37 37 37 37 38 39 39 40 42 43 43 44 45 45 46 47 48 49 50
29 30 30 30 30 31 33 34 36 37 39 40 41 42 44 42 39 37 37 37 37 37 37 37 37 37 38 39 40 41 42 43 45 46 47 47 48 48 49 50 51 53
28 28 29 29 30 31 33 35 36 37 39 41 42 43 43 40 38 37 37 38 38 38 38 39 38 39 40 41 41 42 43 45 47 48 50 51 51 52 53 53 54 55
26 27 27 28 29 32 34 36 37 38 40 41 43 43 42 39 37 38 39 39 39 40 40 41 41 41 42 43 43 45 46 48 50 52 53 54 55 55 57 57 57 58
25 25 26 28 30 33 35 36 38 39 40 41 42 41 40 38 38 39 40 40 40 41 42 43 43 43 44 46 47 48 50 52 54 55 57 58 58 58 59 60 60 60
24 25 27 29 31 33 35 37 38 38 38 39 40 40 39 39 39 39 40 40 41 42 43 44 46 46 47 49 51 52 54 55 56 58 59 60 60 60 60 61 61 61
24 26 28 31 33 35 36 36 36 36 37 38 38 38 38 38 39 39 40 40 41 42 43 45 47 49 50 52 54 55 56 56 56 58 58 58 57 56 56 56 56 56

ECMWFNIL_700_spd_015.txt.gz
Wind_Speed
17 17 17 17 17 18 18 18 18 18 18 17 18 18 18 18 18 18 19 18 18 17 18 18 18 19 19 19 20 20 20 19 19 19 20 22 22 24 26 28 29 30
18 18 18 18 17 18 18 17 17 18 18 18 18 18 18 19 19 20 20 20 20 20 20 20 20 21 21 21 21 22 23 23 21 21 21 21 21 23 24 26 27 29
20 19 19 18 18 18 18 17 17 17 18 18 18 18 19 19 20 21 21 22 22 22 22 22 22 23 23 23 24 23 24 24 24 24 24 23 22 23 24 25 26 27
21 21 20 19 18 18 18 18 17 18 18 19 19 19 20 20 21 21 22 23 23 24 24 24 24 24 25 25 25 25 24 25 26 27 26 24 24 24 24 25 26 26
22 21 20 19 18 18 18 18 19 19 20 20 21 21 21 22 22 23 24 24 24 24 25 25 25 25 26 27 27 26 25 25 25 27 28 27 26 26 26 26 27 27
23 22 20 19 19 19 19 19 19 20 21 21 21 21 22 23 23 24 25 25 25 25 25 25 25 26 26 27 28 28 27 26 26 27 28 29 28 28 27 27 28 28
23 22 20 20 20 20 20 20 20 20 21 21 21 21 22 23 23 24 25 26 26 26 26 26 26 27 28 28 29 30 30 29 28 28 28 28 29 29 29 29 29 29
23 22 21 20 21 21 21 21 21 21 22 22 22 22 23 24 24 25 26 27 27 27 28 28 28 29 29 30 30 30 31 31 30 30 30 29 29 29 30 31 31 31
24 22 21 21 22 22 22 22 23 23 23 23 23 24 25 25 26 27 27 28 28 28 29 29 30 30 30 31 31 31 31 32 32 32 32 31 30 30 30 31 32 33
24 23 23 23 23 23 23 23 24 24 24 25 25 26 26 27 27 28 28 29 29 30 30 31 31 31 32 32 32 32 32 33 33 34 34 33 33 32 31 31 33 33
25 24 24 24 24 24 24 24 25 26 26 27 27 27 28 28 28 29 29 30 31 31 31 32 33 33 34 34 33 33 33 33 34 35 35 36 35 34 33 33 33 34
26 25 25 25 25 25 25 25 26 27 28 29 29 29 29 29 29 30 31 32 32 33 33 34 35 36 36 36 36 35 35 34 35 36 37 37 37 36 36 35 35 35
26 26 26 26 25 25 26 26 27 29 29 30 30 30 30 31 32 32 33 34 34 34 35 36 37 38 39 39 39 38 37 36 36 37 38 39 39 38 38 37 37 36
27 27 27 26 26 26 26 27 28 29 30 30 30 31 32 32 33 34 35 36 36 36 37 38 39 40 40 41 41 40 39 38 38 38 39 40 40 40 39 39 39 38
28 28 27 26 26 27 27 28 29 29 30 30 30 32 33 34 35 36 37 38 38 38 39 39 40 41 41 42 42 41 40 39 39 39 39 40 41 41 40 40 40 39
28 27 27 27 27 27 28 29 29 29 30 30 32 33 35 36 37 38 39 40 40 40 40 40 41 41 41 41 42 42 41 41 40 40 39 40 40 41 41 40 40 40
27 27 27 27 27 28 29 29 29 30 30 32 33 35 36 37 39 40 40 40 41 41 41 41 42 42 42 41 41 42 42 41 41 40 40 40 40 41 41 41 41 41
27 28 28 28 28 28 29 29 30 31 32 33 34 36 37 38 39 40 40 40 41 41 41 42 42 42 42 41 41 42 42 42 41 41 41 41 41 41 41 41 42 42
27 28 28 27 27 28 29 30 31 32 33 33 34 36 38 39 39 39 39 40 40 41 42 43 43 42 41 41 41 41 41 42 42 42 41 41 41 42 42 42 43 43
27 27 27 26 26 28 29 30 31 32 33 33 35 37 38 39 39 39 39 40 41 42 43 43 43 42 41 41 41 41 41 42 43 43 43 42 43 43 43 43 44 44
27 26 25 25 26 27 28 30 31 31 32 33 35 37 38 39 39 40 40 41 42 43 44 43 42 41 41 41 41 41 42 42 43 44 44 45 44 45 45 45 45 46
26 24 24 24 25 26 27 29 29 30 32 33 35 37 38 39 40 41 42 42 43 43 43 43 42 41 41 41 41 42 43 44 45 46 46 47 47 47 47 48 48 48
24 23 23 24 24 25 27 27 29 30 32 34 36 37 38 39 40 41 42 42 43 43 42 41 41 40 41 41 42 43 44 45 47 47 48 49 49 49 50 50 51 51
22 22 22 23 24 24 26 27 29 31 33 34 36 36 37 39 40 41 41 41 42 41 41 41 40 40 40 41 42 43 45 46 48 49 50 51 51 52 52 52 53 54
19 19 20 21 22 23 25 26 29 31 33 34 35 35 37 38 39 40 40 40 39 39 39 40 40 40 41 42 43 44 45 47 49 50 52 52 53 53 53 54 55 56
18 18 18 18 20 22 25 27 29 31 32 32 33 34 35 36 37 38 38 38 38 38 38 39 40 41 42 43 44 45 47 49 51 52 53 54 54 55 55 56 57 57

ECMWFNIL_700_spd_018.txt.gz
Wind_Speed
15 16 16 15 15 15 14 13 13 12 12 12 11 11 12 12 13 13 14 14 14 15 15 15 15 16 16 16 16 16 17 17 18 18 18 18 19 20 20 21 23 25
16 17 17 16 16 16 16 15 14 13 13 13 13 12 13 13 13 13 13 14 14 15 15 16 17 17 18 18 18 18 19 19 21 21 20 20 20 21 21 22 23 24
17 18 17 17 17 18 17 16 15 15 15 15 15 15 15 15 15 14 14 15 15 16 16 17 18 18 19 19 19 19 20 21 22 23 23 22 22 23 23 24 24 24
18 19 18 18 18 18 18 17 16 16 16 17 17 17 17 17 17 17 16 17 17 17 18 19 19 20 20 20 19 19 20 21 22 23 23 24 24 24 24 25 25 26
19 20 19 18 19 19 19 18 17 17 17 18 18 18 18 18 18 19 18 19 19 19 20 20 20 21 21 21 21 20 20 21 22 23 23 23 25 26 26 26 27 27
20 20 19 19 20 20 19 18 18 18 17 18 19 19 19 19 19 19 20 20 21 21 21 21 22 23 23 23 23 23 23 24 24 25 25 24 24 26 27 28 28 28
21 21 20 21 22 21 20 19 19 19 19 19 19 19 19 20 20 20 21 22 22 22 22 23 23 24 24 25 25 25 25 26 27 29 29 28 27 27 27 29 30 30
21 22 22 23 23 22 21 20 20 20 20 21 21 21 21 21 22 22 23 23 23 24 24 24 24 24 25 26 26 26 27 28 29 30 31 31 31 31 30 30 31 31
23 23 24 24 24 23 22 21 21 22 22 23 23 23 23 23 23 24 25 25 25 25 25 25 26 26 27 27 28 28 29 29 30 31 32 33 33 34 34 33 33 33
23 24 25 25 25 24 23 22 23 24 25 25 25 25 24 25 25 26 27 27 27 27 26 26 27 28 29 30 31 31 31 31 32 33 34 35 35 36 36 36 37 36
21 22 24 25 25 24 23 23 25 26 26 27 27 26 26 27 27 28 29 28 28 28 27 27 28 29 31 32 33 33 34 33 34 34 35 35 36 37 38 38 39 39
21 22 23 25 25 25 25 25 27 28 28 28 28 28 28 29 29 30 30 30 29 28 28 29 30 31 32 33 34 35 35 35 36 36 36 37 37 38 39 40 41 41
23 23 25 26 26 26 27 28 29 29 30 30 29 29 30 30 31 32 32 31 30 30 30 31 31 33 33 34 36 37 38 38 39 39 39 39 39 39 39 40 42 43
25 25 26 27 27 28 29 29 30 31 31 31 31 31 31 32 33 33 33 32 31 31 31 32 33 34 35 36 38 39 40 41 41 41 41 41 41 40 40 41 42 43
26 26 27 27 28 29 29 30 30 31 32 32 32 33 33 34 34 34 34 33 33 32 32 33 34 35 37 38 39 40 41 42 42 42 42 42 42 41 41 41 41 42
28 28 28 28 29 29 29 30 31 32 33 33 33 34 34 35 35 35 34 34 34 34 34 35 36 37 38 39 40 40 41 42 42 43 43 43 43 43 42 41 41 42
29 29 30 29 30 30 30 30 31 32 33 33 34 34 35 35 35 35 35 36 36 37 37 38 38 39 39 39 39 41 42 43 44 44 45 45 45 44 44 43 42 42
32 30 30 29 30 30 30 31 32 33 33 33 34 34 35 35 35 36 36 37 38 39 40 40 40 40 40 40 41 42 43 44 45 46 46 46 46 46 45 44 43 42
37 33 30 28 28 30 31 32 33 33 33 34 34 34 35 35 36 36 37 38 39 41 42 42 42 42 41 42 42 43 44 45 46 47 46 46 46 46 45 45 44 43
43 39 33 29 28 30 32 32 33 33 34 34 34 34 35 35 36 37 38 39 41 42 43 43 43 43 42 42 43 43 44 46 47 47 47 46 45 45 45 45 44 44
46 43 36 30 28 30 32 33 33 34 34 34 35 35 35 36 36 37 39 41 42 43 43 43 43 43 42 42 43 44 45 46 47 47 47 46 45 45 45 44 44 45
45 40 34 29 28 30 31 32 33 33 33 34 34 34 35 36 37 39 40 42 43 43 43 44 43 43 43 43 44 44 45 46 47 47 47 47 46 45 45 44 44 45
42 36 30 27 27 28 30 31 32 32 33 33 33 34 35 37 38 40 41 42 42 42 43 43 43 42 43 43 44 44 45 46 47 47 48 48 47 46 45 45 45 46
35 31 26 24 25 27 29 30 31 31 31 31 33 35 36 38 39 39 40 41 41 42 43 43 42 42 42 43 43 44 45 47 48 48 49 49 48 47 47 47 47 47
29 24 22 22 24 27 28 29 30 29 30 32 33 35 36 37 38 38 39 40 40 41 41 41 42 42 42 43 43 44 45 47 48 50 51 51 50 50 49 49 49 50
22 20 21 22 24 26 26 27 27 28 30 31 33 34 35 36 36 37 38 38 38 38 38 39 41 42 42 42 43 44 46 47 49 51 52 53 53 53 53 52 52 52

ECMWFNIL_700_spd_021.txt.gz
Wind_Speed
12 12 12 12 11 11 12 11 11 11 12 12 12 12 12 13 13 14 14 15 16 16 17 17 17 18 18 18 17 18 18 18 19 19 19 20 21 21 22 22 21 22
13 13 13 13 12 12 12 12 12 12 12 13 13 12 12 13 13 14 14 15 16 17 17 18 18 18 18 18 19 19 20 20 21 21 21 22 22 23 24 24 24 23
15 15 15 14 13 13 14 13 12 13 13 13 13 13 13 13 14 14 14 15 16 16 16 17 17 17 17 18 18 19 20 21 21 22 23 24 24 24 25 25 26 26
16 16 16 16 15 15 15 14 14 14 14 14 14 14 14 14 15 15 15 15 16 16 16 16 16 17 17 17 18 19 19 20 21 22 23 24 25 26 26 26 26 26
18 18 19 19 18 17 17 16 15 15 15 16 16 16 16 16 16 16 16 17 17 17 17 16 16 16 17 17 18 19 19 20 21 21 22 23 24 25 26 27 27 27
20 20 21 21 20 19 18 18 17 16 17 17 18 19 19 19 19 19 18 18 18 18 18 17 17 17 17 18 18 19 20 20 20 21 22 22 23 24 26 27 28 28
21 22 22 23 23 21 20 19 18 18 18 19 20 20 21 21 22 21 21 21 20 20 19 19 19 19 19 19 20 20 21 21 21 21 21 22 23 24 25 26 27 28
20 23 24 24 24 22 22 21 20 19 19 20 21 22 23 23 24 24 24 23 23 22 22 22 22 22 22 22 22 22 22 23 23 23 23 23 24 25 26 27 28 28
18 23 25 25 24 23 23 22 21 21 21 22 23 23 24 25 26 26 26 25 25 25 25 25 25 25 25 25 24 24 24 25 25 25 26 26 26 27 27 28 30 30
17 21 24 25 24 23 22 21 22 22 22 23 24 24 25 26 27 28 27 27 27 27 26 27 28 28 28 27 27 27 27 27 28 28 28 28 28 29 30 30 31 31
17 19 22 22 21 21 20 20 21 22 23 24 24 25 26 27 29 29 29 28 28 28 28 29 29 30 30 30 29 30 30 30 30 31 30 31 30 31 31 32 33 34
21 21 21 22 21 20 20 21 22 23 24 25 26 27 28 29 30 30 30 29 29 29 30 30 31 31 31 31 32 32 32 33 33 33 33 33 33 33 34 34 35 36
24 25 25 24 24 23 22 23 24 25 25 26 27 28 30 31 32 32 31 31 30 31 31 32 32 32 32 33 33 34 34 35 35 35 35 35 35 35 36 36 36 36
28 29 29 28 26 25 26 26 27 27 27 28 29 30 31 32 33 33 33 32 32 33 33 33 33 34 34 34 35 35 36 36 37 37 37 38 38 38 37 37 37 37
33 34 33 32 30 29 28 29 29 29 29 30 30 31 32 33 34 34 34 34 34 34 35 35 35 35 35 36 36 36 37 38 39 39 40 40 40 39 38 38 38 39
42 43 38 35 33 32 31 31 31 31 32 32 32 32 33 34 34 35 35 36 36 36 36 36 36 36 37 37 37 38 39 40 41 41 42 42 41 41 40 39 40 40
45 46 42 39 37 33 33 33 33 34 34 34 33 33 34 35 35 36 36 37 37 37 37 37 37 37 38 38 38 39 40 42 42 42 43 43 43 42 42 42 42 42
45 46 44 40 38 34 35 37 36 36 37 36 35 35 35 35 36 37 37 37 37 37 37 38 38 38 38 39 40 41 42 43 43 43 43 44 44 44 44 44 44 44
45 45 42 37 37 36 39 41 39 39 38 37 37 36 35 36 36 37 37 38 38 38 38 38 38 39 40 41 42 42 43 43 44 44 44 45 45 45 46 46 45 45
42 41 38 35 38 39 40 40 39 39 40 39 38 36 35 36 36 37 38 38 39 38 38 39 39 40 41 42 43 43 44 44 44 45 46 46 47 47 47 47 46 46
40 38 35 34 36 38 38 38 38 40 41 40 38 36 36 36 37 38 38 38 38 38 39 40 40 41 42 43 44 44 45 45 45 46 46 47 48 48 48 47 47 47
41 39 38 37 37 37 37 38 38 40 40 38 36 36 37 37 38 38 37 37 38 39 40 40 41 42 43 44 45 45 45 45 46 47 48 49 49 49 49 48 48 48
41 40 41 41 40 40 41 41 40 41 40 37 36 36 37 37 37 37 36 37 38 39 40 41 42 43 43 44 44 45 46 47 48 48 49 50 50 50 50 49 49 49
41 40 42 42 42 43 45 44 42 41 39 37 37 37 36 35 35 35 36 36 37 39 40 41 42 42 43 43 44 45 47 48 49 50 50 51 51 51 51 51 51 50
39 39 42 44 44 44 43 40 38 36 35 34 35 35 35 35 35 35 35 36 37 39 40 41 41 42 42 43 44 45 47 48 49 51 51 51 51 51 52 52 51 51
39 40 44 46 43 37 35 35 33 32 32 31 32 32 33 34 35 35 35 35 37 38 39 40 41 41 41 42 43 45 46 47 49 50 51 52 52 53 53 53 53 53

ECMWFNIL_700_spd_024.txt.gz
Wind_Speed
11 12 12 11 11 10 11 12 12 11 11 11 11 11 12 12 12 12 13 13 14 14 14 14 14 15 15 15 16 17 17 17 17 17 17 17 17 17 17 18 18 19
12 13 13 13 12 11 11 13 13 12 12 12 11 11 11 12 12 13 13 14 14 15 15 16 16 16 16 17 17 17 18 18 18 18 18 18 18 18 18 18 19 20
13 14 14 13 13 13 14 15 15 14 14 13 12 12 12 12 13 13 14 14 14 15 15 16 16 17 17 17 17 17 18 18 18 18 18 18 18 18 18 18 19 19
13 15 15 15 15 16 16 17 16 16 16 15 14 14 13 13 14 15 15 15 14 15 15 16 17 17 17 17 17 18 18 18 18 19 19 19 19 19 19 19 19 19
13 15 17 17 17 18 19 19 18 18 18 18 17 17 16 15 16 16 16 16 16 15 15 16 17 17 17 17 18 18 18 18 18 18 19 19 19 19 19 19 19 20
13 16 19 19 20 21 22 21 20 20 21 20 20 20 19 18 18 18 18 17 17 17 17 17 17 18 18 18 18 18 19 19 19 19 19 18 19 19 19 19 19 20
14 16 19 21 23 23 24 24 23 23 23 23 22 22 21 21 21 21 21 20 19 18 18 19 19 19 19 19 20 20 20 20 20 20 20 20 19 20 20 20 20 20
14 16 18 21 24 25 26 26 25 25 25 25 25 24 23 23 23 23 23 22 21 20 20 20 21 21 21 22 22 22 21 21 21 21 21 21 21 21 21 22 22 22
16 16 17 20 23 25 27 27 27 27 27 27 26 26 25 24 25 25 25 24 23 22 22 22 22 22 23 23 23 23 23 23 23 23 23 23 23 23 23 23 23 23
19 18 19 20 22 24 26 28 29 29 29 29 28 28 27 27 27 27 27 26 25 24 24 24 24 24 24 24 24 25 25 24 24 24 24 25 25 25 25 25 25 25
22 21 21 22 21 23 26 28 30 30 30 31 30 30 29 29 29 28 28 27 26 27 27 26 26 26 26 26 26 26 26 26 26 26 26 26 27 27 27 28 28 28
26 25 24 23 23 24 26 29 31 32 32 33 32 32 32 31 31 30 29 29 28 29 29 29 29 28 28 28 28 28 28 28 28 28 28 28 28 29 29 30 30 30
30 29 28 27 27 27 28 30 33 34 35 35 34 34 34 33 32 32 31 30 29 30 30 31 31 31 30 30 30 30 30 30 30 30 30 30 31 31 32 32 32 32
35 34 32 32 31 31 31 33 36 37 37 38 37 36 35 34 34 34 32 31 31 31 31 32 33 32 32 32 33 33 33 32 32 31 31 32 32 33 34 34 34 34
39 39 38 37 35 34 34 36 40 40 38 38 39 37 36 36 35 35 34 33 33 32 33 34 34 34 34 34 35 35 35 35 34 34 34 34 34 34 35 35 36 36
39 40 42 42 39 37 37 38 41 42 42 40 39 38 38 38 37 36 36 35 35 35 35 35 35 35 35 35 36 36 36 37 36 36 37 37 37 37 36 37 37 38
38 39 41 42 41 40 41 41 41 42 42 40 40 42 43 41 39 37 37 37 38 37 37 36 36 37 37 36 36 37 38 38 39 39 39 39 39 39 39 39 39 40
38 39 39 40 40 40 42 43 44 42 39 37 40 44 47 45 41 38 38 39 39 39 38 38 38 39 38 37 37 38 39 40 40 41 41 41 41 41 42 42 42 42
39 39 39 38 38 38 40 43 44 45 43 40 40 43 47 49 45 39 38 39 39 39 40 40 40 40 39 39 39 40 41 41 42 42 43 43 43 44 44 44 44 44
40 41 40 39 38 38 39 40 42 43 44 42 41 41 46 49 47 42 39 39 39 41 42 40 39 39 39 40 41 41 42 43 43 44 45 45 45 45 45 45 45 45
40 40 40 40 40 39 38 39 39 40 40 39 39 42 46 48 47 43 39 39 41 42 41 39 38 39 40 41 42 43 44 45 45 46 46 46 46 46 47 47 47 47
41 41 41 40 40 39 38 38 38 38 37 37 38 41 44 45 43 41 39 40 41 41 40 39 38 39 40 42 43 44 45 46 47 47 47 47 47 47 47 48 48 48
42 43 43 41 40 39 37 37 37 37 38 37 36 38 40 41 41 40 40 40 40 39 38 38 39 40 41 42 44 45 46 47 47 48 48 48 48 48 48 48 49 49
40 42 43 42 40 37 35 33 34 38 40 39 37 37 39 41 40 39 39 39 38 38 38 39 40 41 42 43 45 46 47 48 48 48 48 48 48 48 48 49 49 49
39 39 41 41 39 35 32 31 34 40 43 42 41 39 39 40 39 37 37 37 37 38 39 40 41 42 43 44 45 46 47 48 48 48 48 48 48 48 48 48 49 49
39 38 39 39 37 34 31 29 32 37 40 40 40 40 38 37 36 34 34 35 36 37 39 39 40 41 42 43 43 44 45 45 46 47 48 48 48 49 49 49 49 50

ECMWFNIL_700_spd_027.txt.gz
Wind_Speed
10 9 9 10 10 10 10 9 9 10 11 11 11 11 11 11 11 11 11 11 10 10 10 10 10 11 11 12 12 13 13 13 13 13 13 13 13 13 14 14 15 16
12 11 11 11 12 12 11 10 10 11 12 12 12 12 12 12 11 11 11 11 11 11 11 11 11 12 12 13 13 14 14 14 14 14 14 14 13 13 13 14 14 15
13 13 13 12 13 13 13 13 12 13 13 13 14 14 13 13 13 12 12 11 11 11 11 12 12 12 12 13 13 14 14 14 15 15 14 14 14 14 14 14 14 14
12 14 15 15 14 15 16 16 15 15 15 15 15 15 15 15 15 15 14 14 13 12 12 12 12 12 12 13 13 14 14 14 14 15 15 15 15 15 15 15 15 15
13 14 15 16 17 17 18 18 18 17 17 17 18 18 17 17 17 17 17 17 16 15 14 13 13 13 13 13 14 14 14 14 14 14 14 15 15 15 15 16 16 16
15 15 15 16 18 19 20 20 20 20 20 20 20 20 20 19 19 19 19 20 19 18 17 16 16 15 15 15 15 15 15 15 15 15 15 15 16 16 16 16 17 17
17 17 17 17 19 20 22 22 23 23 23 23 23 23 23 22 21 21 21 21 21 20 20 19 19 18 17 18 17 17 16 16 17 17 17 17 17 17 18 18 18 19
19 19 19 19 19 20 22 23 24 25 25 26 26 26 26 25 24 23 23 23 23 22 21 21 21 20 20 19 19 19 19 19 18 18 18 18 19 19 19 20 20 20
22 22 21 21 21 22 21 22 24 25 27 28 28 28 29 28 27 26 25 25 24 24 23 23 23 22 22 22 21 20 20 20 20 20 20 20 20 20 20 21 21 21
27 25 24 23 23 23 23 22 23 25 27 29 30 31 31 31 30 28 27 27 26 26 25 25 25 25 25 24 23 22 21 20 21 21 21 21 22 22 22 22 23 23
30 29 28 27 25 25 25 25 25 25 26 29 31 33 33 33 32 31 29 28 28 28 27 27 27 26 27 27 26 24 23 23 23 23 23 23 23 23 24 24 25 25
34 33 32 31 29 28 27 28 28 27 28 30 33 34 34 34 33 32 31 30 30 30 30 30 29 29 29 29 28 27 26 26 26 26 25 25 25 25 25 26 26 27
36 36 35 33 31 30 30 30 30 30 31 33 34 33 32 32 33 33 32 31 32 32 32 32 32 31 31 31 30 29 28 29 29 29 28 28 28 28 28 28 28 28
34 35 34 32 32 33 33 32 33 33 34 35 36 33 32 31 31 33 34 34 34 34 34 34 34 33 33 33 32 31 31 31 31 30 30 31 31 31 30 30 30 30
35 35 34 33 33 35 36 36 36 36 37 38 38 36 36 34 31 31 34 36 37 37 37 37 35 35 35 36 35 34 34 34 34 32 32 32 33 34 33 33 33 33
39 39 38 37 36 37 38 39 39 40 40 40 41 40 39 39 37 35 35 35 37 39 40 40 39 39 39 38 37 36 36 37 36 35 35 35 36 36 36 35 35 35
40 41 41 41 40 40 41 41 42 42 43 43 44 43 41 40 39 39 38 36 36 37 39 41 43 44 43 41 39 38 38 39 39 38 38 39 39 39 39 38 38 38
40 40 41 41 41 41 42 43 43 43 44 44 45 44 42 40 40 40 40 40 39 38 39 40 44 46 45 42 41 40 40 40 41 41 41 42 42 42 42 42 42 41
38 39 39 39 40 40 41 42 43 43 43 43 44 44 43 42 42 42 43 43 43 42 41 41 45 47 46 43 42 42 42 42 43 44 44 44 45 45 45 45 45 45
36 37 37 37 38 39 40 41 42 42 42 42 43 43 43 43 42 43 44 45 46 44 42 42 45 47 46 45 44 44 44 43 44 45 45 46 47 48 48 47 47 47
37 37 37 37 37 37 38 39 40 41 42 43 43 43 43 43 43 42 43 44 44 42 41 42 45 46 46 45 45 44 44 43 44 45 47 48 49 49 49 49 49 50
37 38 38 38 38 38 38 38 39 39 40 41 42 42 41 41 41 41 40 39 37 36 38 42 44 43 42 43 44 44 44 44 45 46 48 49 49 50 50 50 51 52
37 38 38 38 38 38 38 38 39 40 40 40 40 39 37 38 38 37 35 35 34 34 36 39 40 39 39 41 43 43 44 44 45 47 48 49 50 50 51 51 52 52
37 38 39 39 39 38 37 37 37 37 38 38 37 36 35 35 35 35 34 35 35 35 35 37 38 39 39 40 41 42 43 44 46 48 49 50 50 51 51 52 52 51
39 39 39 39 39 39 38 37 36 35 34 34 33 32 32 32 33 35 36 36 35 35 36 38 39 39 39 39 40 41 43 45 47 49 50 50 51 51 51 51 50 50
39 39 38 38 39 38 37 36 35 33 32 31 30 29 31 35 39 40 39 38 37 36 37 37 37 36 36 37 38 41 43 45 47 48 49 49 50 50 50 50 50 49

ECMWFNIL_700_spd_030.txt.gz
Wind_Speed
12 11 11 10 10 9 9 8 7 7 7 6 6 7 8 9 9 9 8 7 7 6 6 5 4 4 5 5 5 6 6 6 6 7 7 7 8 8 8 9 9 10
13 12 12 12 12 11 11 10 9 9 9 9 8 7 8 9 9 9 9 9 9 8 8 7 7 7 7 7 7 7 7 7 7 7 7 7 7 8 8 8 9 9
14 13 13 13 14 13 13 13 12 12 12 11 10 9 9 9 10 10 10 10 10 10 10 10 10 9 9 9 9 8 8 8 8 8 8 8 8 8 9 9 9 9
15 14 13 14 15 15 16 16 15 15 15 15 14 13 12 11 11 12 11 11 11 10 11 11 11 11 11 11 11 10 10 9 9 9 9 9 10 10 10 10 10 11
16 16 15 14 15 16 18 18 18 18 18 18 18 17 16 15 14 14 14 13 13 12 12 12 12 12 13 13 12 12 12 11 11 11 11 11 11 12 12 12 13 13
18 18 17 16 16 17 18 19 20 21 21 21 21 21 21 19 18 18 17 16 16 15 14 13 13 13 13 13 13 12 12 12 12 13 13 13 13 13 14 14 15 15
21 21 20 19 19 19 18 19 20 22 23 23 24 24 24 23 22 21 20 20 19 18 17 16 15 15 15 15 15 13 12 12 13 13 14 15 15 15 15 15 16 17
25 25 24 23 22 22 21 21 21 22 23 25 26 27 27 27 27 26 24 23 22 21 20 19 17 17 17 17 17 15 14 13 13 14 14 15 16 16 16 16 17 18
27 27 26 26 25 25 25 24 23 23 24 25 26 28 29 30 30 29 27 26 25 24 23 22 20 20 19 19 19 18 17 16 15 15 16 16 17 17 18 18 18 18
30 29 28 28 28 27 27 26 26 25 25 25 26 28 29 30 31 31 30 29 28 27 26 24 23 22 22 21 20 19 19 18 18 18 18 18 18 19 19 20 20 20
30 29 29 29 29 30 30 29 29 28 28 27 27 28 28 29 31 32 32 31 30 28 27 26 26 25 24 23 22 21 21 22 21 21 21 21 21 21 21 21 22 22
29 29 30 31 31 32 33 32 31 31 31 31 30 29 28 29 31 32 31 31 31 30 29 28 27 27 26 26 25 24 24 25 25 25 24 24 24 24 23 24 24 24
27 28 29 30 31 34 35 34 34 34 33 33 33 32 31 33 33 30 29 30 31 32 30 30 29 29 29 29 28 28 28 28 29 29 28 28 28 27 26 26 26 26
29 29 28 29 30 32 34 35 35 35 35 37 37 35 36 38 36 31 29 30 31 31 30 29 29 29 29 29 29 29 30 31 32 33 33 33 33 32 31 30 30 29
32 32 32 32 32 34 34 34 33 33 36 39 40 39 40 41 40 35 33 33 33 33 32 30 29 28 28 28 28 28 30 32 33 35 36 38 38 37 36 35 35 34
32 33 34 35 36 37 37 36 33 32 34 37 40 42 43 44 44 40 37 37 38 37 37 35 33 31 29 28 28 30 31 33 34 36 38 39 40 40 39 38 38 37
35 36 37 38 38 38 38 37 35 34 34 36 39 43 45 46 47 44 41 40 38 36 37 37 35 32 31 31 32 33 34 35 36 38 40 41 43 42 41 40 40 39
38 38 38 38 39 39 39 38 37 35 35 36 38 41 44 45 44 43 44 44 39 35 35 34 32 32 32 33 35 37 37 37 39 41 42 43 45 45 43 42 42 41
37 38 37 37 36 37 37 38 38 37 37 37 38 39 41 41 39 39 41 42 40 38 37 35 33 33 34 36 37 39 40 41 42 44 44 44 46 46 45 45 44 42
35 35 35 34 34 34 34 35 36 36 37 38 39 40 40 39 38 38 38 39 39 39 38 37 36 35 36 38 40 42 43 43 43 43 42 43 44 45 46 47 46 43
35 34 34 34 34 34 34 34 34 35 35 37 38 39 40 40 40 40 40 40 40 40 40 39 39 39 39 39 41 42 42 41 40 41 41 41 42 44 46 47 47 46
33 34 34 34 34 34 34 34 35 35 36 37 37 38 38 39 40 40 41 41 42 42 42 41 41 40 39 38 38 37 37 37 38 40 40 39 40 41 44 46 47 47
32 33 33 33 33 33 34 34 35 35 36 37 37 37 37 38 38 39 39 40 40 40 40 40 40 39 38 37 36 35 35 36 37 38 38 38 38 40 42 43 45 46
32 33 34 33 33 33 34 35 36 37 38 38 38 37 37 37 37 37 37 37 37 37 37 38 38 38 38 38 37 37 37 37 36 37 38 39 39 40 41 43 45 47
34 35 35 35 35 35 35 36 37 38 38 38 38 38 37 37 36 35 35 35 35 36 36 37 37 37 37 37 38 39 38 37 37 38 39 40 41 42 43 44 46 47
36 36 36 37 37 37 37 37 36 37 37 38 38 38 37 36 36 34 34 34 34 35 35 35 36 37 38 38 38 38 38 38 39 40 41 42 43 43 43 44 45 46

ECMWFNIL_700_spd_033.txt.gz
Wind_Speed
14 13 12 11 10 8 7 6 6 5 5 4 2 2 2 3 4 4 4 5 4 4 3 3 2 2 1 1 1 2 3 3 3 4 5 5 6 6 7 8 8 9
15 14 13 12 12 11 9 8 8 7 7 7 6 5 4 3 2 2 3 4 5 5 5 5 5 5 4 4 3 3 3 3 3 3 3 3 4 5 5 6 6 7
16 15 14 13 13 13 12 11 11 10 9 9 9 9 8 7 6 5 4 4 5 6 6 6 7 6 6 6 6 5 5 5 5 5 5 4 4 4 4 5 5 5
17 17 16 15 14 14 13 13 13 13 12 12 12 12 12 10 10 10 8 7 7 7 7 8 8 8 8 8 7 7 7 7 7 7 7 7 7 6 7 7 7 7
19 18 18 17 16 16 15 14 15 15 15 15 15 15 15 13 13 13 12 11 11 10 9 9 9 9 9 9 8 8 7 7 8 8 8 9 9 9 10 10 10 10
22 20 20 20 19 19 17 16 16 17 17 18 18 18 18 17 15 15 15 14 14 13 12 11 11 10 10 10 10 9 8 8 8 9 9 9 9 10 11 11 12 12
25 24 23 23 22 21 21 19 19 18 18 18 19 19 20 20 19 18 17 16 16 16 15 14 12 11 11 11 11 10 9 8 8 9 10 10 10 10 10 12 13 13
28 27 26 26 26 25 24 23 22 22 20 20 20 20 20 21 21 21 20 19 18 17 17 17 15 13 12 12 13 12 10 10 11 11 12 13 13 13 12 12 13 14
30 31 30 28 28 28 27 26 26 26 23 22 22 22 22 22 22 23 22 20 18 18 19 18 17 16 15 15 16 15 13 13 13 14 14 15 15 16 15 14 14 15
33 36 32 28 28 29 29 29 28 27 26 25 25 24 24 24 24 25 24 21 20 20 20 19 18 18 18 18 18 18 16 15 15 15 16 17 17 17 18 17 17 17
31 37 35 30 29 30 30 31 30 29 27 26 26 27 27 27 28 27 27 26 25 23 22 21 21 21 21 21 20 21 20 18 18 18 18 19 20 20 20 21 21 21
30 34 34 32 31 31 32 33 32 32 28 25 26 28 29 30 32 31 30 30 29 27 26 24 24 24 23 23 23 22 22 21 21 20 20 21 22 22 23 24 24 25
27 28 29 30 32 33 32 31 30 31 30 28 28 29 30 32 34 34 33 33 31 30 30 29 27 26 25 24 23 23 23 22 22 21 21 22 22 23 24 25 26 28
22 24 25 26 28 28 27 27 27 27 29 29 27 27 28 30 32 34 36 37 35 34 35 32 29 29 28 27 25 25 24 23 22 21 22 23 23 24 26 27 29 30
22 23 24 25 26 27 27 28 29 30 31 30 28 27 28 30 32 34 36 38 37 36 36 34 32 32 32 31 30 28 26 26 26 25 25 26 27 27 28 29 31 33
24 24 24 25 25 26 27 28 29 31 32 31 30 30 30 32 33 35 37 37 36 34 35 37 37 34 34 36 34 29 27 29 30 30 30 30 31 31 31 32 33 34
28 28 27 27 26 26 27 29 31 33 34 33 32 31 31 32 33 36 38 38 36 34 36 40 40 37 36 37 33 28 29 32 32 32 33 33 34 34 35 36 36 37
30 31 31 31 30 29 30 30 32 33 34 34 34 33 33 33 33 36 38 39 38 37 37 39 37 34 32 32 29 29 30 31 32 33 34 35 36 37 38 38 39 40
30 30 31 32 31 31 31 31 31 31 31 32 33 34 34 34 35 35 36 38 39 38 39 39 35 30 29 28 29 30 30 30 33 35 35 36 38 40 41 41 41 41
30 30 30 30 30 30 31 30 30 29 30 30 30 32 33 34 35 33 34 37 39 40 42 41 35 31 30 29 29 30 30 31 34 36 36 37 40 43 43 43 41 39
29 29 29 29 28 28 29 29 29 29 29 29 29 30 32 33 33 32 32 34 36 40 42 39 34 33 33 32 32 32 32 33 36 37 37 39 41 42 42 41 39 37
27 28 28 28 28 28 28 28 28 29 29 29 29 30 31 31 31 29 30 32 35 38 38 35 33 35 35 34 34 34 35 36 37 37 37 38 38 37 38 39 38 36
27 28 28 28 28 28 28 28 29 29 29 28 29 29 30 31 29 28 30 34 35 35 34 33 34 35 35 35 36 35 36 36 36 36 36 36 35 35 36 38 38 37
28 29 29 30 29 30 30 30 30 30 30 30 30 30 31 31 32 32 34 36 35 33 33 34 34 35 35 35 36 36 36 36 36 36 36 36 36 36 37 38 39 40
27 28 29 30 31 31 32 33 33 33 33 33 33 33 33 34 35 36 36 36 35 34 34 34 34 34 34 34 35 35 35 35 35 35 36 37 36 36 38 39 40 42
28 29 29 29 30 32 33 34 35 36 36 36 37 35 35 36 37 36 36 36 36 35 35 34 33 33 33 33 34 33 33 33 34 35 36 36 37 37 38 40 42 44

ECMWFNIL_700_spd_036.txt.gz
Wind_Speed
13 12 12 11 10 8 7 7 6 5 4 2 1 1 2 2 3 3 4 4 5 5 5 5 5 4 3 2 2 1 1 1 2 2 3 3 3 3 4 4 5 5
13 13 13 13 12 11 9 9 9 8 7 6 4 2 2 1 1 2 3 3 4 5 5 6 6 6 6 5 4 3 2 2 1 1 2 2 2 2 2 2 2 3
14 13 14 14 14 13 12 11 11 10 10 9 8 6 5 4 4 3 2 3 3 4 4 5 6 6 7 7 6 5 4 3 3 2 2 2 3 2 2 2 2 2
15 14 15 14 15 15 15 13 13 13 12 11 11 10 9 7 7 7 5 5 4 4 4 4 4 5 5 5 6 6 6 5 4 4 3 3 3 3 3 3 3 3
17 16 16 16 16 17 17 15 14 15 14 13 13 13 12 10 9 9 9 8 7 6 6 6 5 5 5 4 4 4 5 5 5 5 5 5 5 5 5 5 5 5
20 19 19 18 18 19 19 18 16 16 16 15 14 14 14 13 11 11 11 10 10 9 8 8 8 7 7 6 6 5 4 4 4 5 5 5 6 6 7 7 7 7
24 23 22 21 20 21 21 21 19 19 18 18 17 15 14 14 12 11 11 10 10 11 11 11 10 10 9 9 9 8 8 6 5 5 5 4 5 5 6 7 7 6
27 25 24 23 22 23 24 24 23 21 19 19 19 18 16 15 13 12 11 11 10 11 12 12 12 11 11 11 10 10 10 9 8 8 8 7 6 6 6 6 8 8
25 26 26 25 23 25 27 27 26 24 22 22 22 21 19 17 17 15 13 13 13 13 14 14 14 14 13 13 12 12 12 11 10 10 11 11 10 9 9 8 8 10
25 29 31 29 25 26 30 31 28 24 25 26 25 23 22 22 22 21 18 16 16 17 17 18 18 17 17 15 14 14 15 14 13 12 13 14 13 13 14 13 12 12
30 34 37 37 34 33 35 37 32 27 28 30 28 26 25 23 25 26 23 21 21 20 21 21 21 21 20 19 16 15 15 16 15 15 14 15 16 16 16 17 16 15
32 34 36 37 36 35 34 36 35 33 32 32 30 27 25 23 25 26 25 26 26 23 21 22 22 22 23 23 21 19 17 17 16 16 16 16 17 17 17 17 17 17
27 28 30 30 30 29 27 28 31 34 33 33 33 29 24 23 25 26 28 29 27 23 21 22 23 24 24 23 23 23 23 22 20 18 17 17 18 18 19 19 19 19
21 22 22 22 22 21 20 20 25 28 28 29 30 26 21 22 25 27 28 27 24 22 23 24 25 26 25 23 22 24 27 27 25 23 21 21 21 21 22 23 23 23
16 17 17 17 17 17 17 17 19 23 24 25 26 24 23 25 28 28 25 23 22 22 24 25 25 25 25 24 23 25 27 29 29 28 27 27 26 25 25 26 27 27
17 18 17 18 18 18 19 19 20 22 23 24 25 26 27 28 29 27 24 22 23 23 24 27 27 26 26 25 25 26 27 29 31 31 30 29 28 28 28 28 29 29
22 23 23 22 22 21 22 22 22 23 23 24 24 25 26 27 29 29 26 25 26 25 26 29 29 28 27 26 25 25 26 29 31 30 29 29 29 29 29 29 30 30
25 26 26 26 26 26 26 25 24 24 24 25 26 27 27 27 29 31 29 28 28 28 28 30 31 30 28 27 25 24 24 28 30 29 28 29 28 28 30 31 31 32
25 26 26 26 27 27 28 28 27 26 25 25 26 27 28 28 27 28 29 29 28 28 30 32 32 30 30 30 27 25 24 27 29 29 29 28 28 29 31 31 32 33
24 25 25 25 25 25 26 27 27 26 25 25 24 25 26 27 26 26 28 28 28 30 32 32 30 29 30 29 27 25 25 27 29 30 30 29 29 30 32 32 33 35
23 23 24 24 24 23 23 24 24 24 24 24 23 23 23 25 26 26 27 27 29 31 32 30 28 28 27 25 24 24 25 27 29 30 30 30 30 31 32 33 35 36
23 23 23 23 23 23 22 22 22 23 23 23 23 23 23 24 25 26 26 27 29 31 30 28 27 26 25 23 24 24 26 27 29 30 30 31 31 33 33 34 35 36
24 24 24 24 23 23 23 23 23 23 23 24 24 24 24 25 25 27 28 29 29 28 27 26 26 26 26 26 26 26 27 28 28 30 31 31 32 33 34 36 37 37
27 27 26 25 24 23 22 22 22 23 24 24 25 25 26 27 27 28 29 29 28 27 27 28 28 29 29 29 29 28 28 27 28 29 30 31 32 33 35 36 36 36
29 29 29 28 26 24 23 22 22 23 23 24 26 27 29 30 29 29 29 28 28 29 29 30 31 31 30 30 30 29 28 28 29 29 30 32 33 33 34 34 33 33
31 32 32 32 30 28 27 26 26 26 26 27 28 29 29 30 30 30 29 29 30 31 32 32 32 32 31 31 30 30 30 30 30 31 32 32 32 32 32 31 31 32

ECMWFNIL_700_spd_039.txt.gz
Wind_Speed
11 10 10 7 5 3 3 3 2 2 2 2 3 4 5 7 8 9 10 10 10 11 10 10 9 8 7 5 4 3 2 2 2 2 1 1 0 0 0 0 1 1
12 11 10 10 8 5 5 4 4 4 2 1 1 1 2 3 5 5 6 7 8 8 9 9 9 9 9 8 7 5 4 3 2 2 2 3 2 2 2 2 1 1
14 12 11 11 10 8 7 6 5 5 5 5 3 3 2 2 1 2 2 3 3 4 5 6 7 7 8 8 8 8 7 5 4 3 3 3 2 2 2 2 2 2
15 13 12 13 12 11 10 9 8 7 7 7 6 5 4 4 4 3 2 1 1 0 1 2 3 4 4 5 6 6 6 6 5 5 4 4 3 3 2 2 1 1
17 15 14 14 15 13 11 11 10 9 9 9 9 7 6 6 6 6 6 5 4 4 3 3 2 2 2 2 2 3 3 3 3 4 4 4 4 4 3 3 2 2
19 18 16 16 17 16 14 13 12 11 11 11 10 10 8 7 7 7 8 8 7 7 6 5 5 5 4 4 4 3 2 2 1 1 1 2 2 2 3 3 3 3
24 22 19 18 18 19 17 16 14 14 14 13 13 12 11 9 7 7 7 8 8 8 8 7 6 6 7 6 6 6 6 5 4 4 3 3 2 1 0 1 2 2
30 26 22 20 18 18 18 18 17 16 15 15 16 15 14 12 10 8 7 8 9 9 9 8 7 7 7 7 8 8 9 8 8 8 7 6 5 4 3 3 2 1
30 27 24 22 19 18 17 16 17 18 18 17 18 19 18 16 15 14 13 13 14 14 13 11 9 8 8 7 8 8 10 10 10 10 10 9 7 7 6 6 6 6
22 22 21 19 18 19 19 17 18 21 23 25 24 24 23 22 21 20 19 19 19 19 16 13 13 13 12 11 10 10 9 10 10 10 11 11 11 10 10 9 10 11
19 19 18 15 15 18 21 22 22 24 29 31 29 26 25 25 25 25 24 23 21 20 17 16 16 17 18 16 14 12 11 11 12 11 11 11 11 11 12 12 11 12
16 16 16 16 17 19 22 25 26 27 29 29 27 25 25 26 26 27 26 24 22 20 17 17 17 19 19 16 15 15 16 15 14 13 12 12 11 11 12 12 12 12
10 11 11 12 14 17 19 21 23 24 24 24 22 22 22 23 23 25 26 25 23 21 19 18 17 18 16 14 15 18 19 18 17 16 15 14 14 14 14 14 15 15
7 8 8 9 11 12 14 16 17 18 17 17 16 16 17 19 19 19 21 22 23 22 20 18 17 16 15 15 16 18 19 20 20 19 18 17 17 18 19 19 19 19
8 8 8 9 9 9 10 11 12 13 13 13 13 13 15 17 17 17 17 19 20 20 18 17 17 17 17 18 18 17 18 20 22 23 23 23 22 22 22 22 21 20
12 12 11 11 11 11 12 12 13 13 13 14 14 15 17 18 19 19 18 18 18 18 18 17 18 19 18 18 20 20 20 22 23 24 26 27 27 26 25 24 23 21
17 17 16 16 16 16 16 17 17 17 17 17 17 17 17 19 20 20 20 20 19 20 20 20 20 20 19 20 21 22 23 23 24 25 27 28 30 29 28 27 25 24
18 18 18 19 19 20 20 20 20 21 22 22 21 21 21 21 22 22 22 23 23 24 24 23 22 20 20 21 23 24 25 25 24 26 28 29 31 31 30 28 27 26
19 19 19 19 20 20 20 21 22 22 22 23 24 24 25 25 26 26 24 23 24 25 26 25 22 20 20 22 23 24 25 24 25 26 28 29 31 32 31 29 28 28
19 19 19 19 19 19 19 19 20 21 21 22 22 22 23 23 25 26 25 23 22 24 25 24 22 20 20 21 21 23 24 24 25 26 27 28 29 30 30 30 31 30
18 18 18 18 18 18 18 18 18 19 20 20 21 21 21 21 22 23 24 24 23 22 22 21 20 20 20 19 20 21 22 22 23 24 26 27 28 29 30 32 32 32
18 18 18 18 18 18 18 18 18 18 19 19 20 20 20 20 21 22 22 23 23 21 21 20 20 19 19 19 19 19 20 21 22 24 26 27 29 30 31 32 33 33
19 20 20 20 20 19 19 19 19 19 19 19 20 20 21 21 21 21 22 22 22 22 21 21 20 20 20 20 20 20 21 22 24 25 27 28 29 30 31 32 33 35
20 21 21 21 21 21 21 21 21 21 21 21 21 21 22 21 19 19 20 21 21 21 22 21 21 21 22 22 22 23 23 24 25 26 27 27 29 30 32 34 35 35
22 23 23 24 23 23 22 22 22 23 24 24 25 24 24 22 20 19 19 20 20 21 21 22 22 22 23 24 24 25 25 25 26 26 27 27 29 31 33 34 34 34
24 25 26 27 27 26 25 25 25 25 26 27 28 28 28 26 24 23 22 23 23 23 23 22 22 23 24 24 25 25 26 26 26 27 28 28 29 31 33 33 34 34

ECMWFNIL_700_spd_042.txt.gz
Wind_Speed
13 10 8 6 6 7 7 5 3 2 2 3 4 4 4 5 5 7 8 8 9 9 9 8 8 8 7 6 5 4 4 3 3 2 2 2 1 2 2 2 3 4
15 12 10 9 7 7 7 6 5 4 3 2 1 2 3 3 3 4 5 6 7 7 7 7 7 7 7 6 5 4 4 4 3 3 3 3 2 2 2 2 2 2
16 15 13 11 9 8 8 8 7 7 5 4 3 2 1 0 0 1 2 3 4 4 5 5 5 5 5 5 5 4 4 4 4 4 3 3 3 2 2 2 2 2
18 17 15 13 12 11 10 10 9 8 8 7 6 5 4 3 3 2 2 2 1 2 2 2 2 3 3 3 3 3 3 3 3 4 4 3 3 3 3 2 2 2
21 19 18 16 15 14 13 12 11 10 9 8 8 7 7 6 6 5 5 6 5 4 3 2 2 1 1 1 0 0 1 1 1 2 2 3 4 3 3 3 2 2
25 24 22 20 18 17 17 15 14 12 11 9 8 7 7 7 7 7 7 8 8 7 6 5 5 4 4 4 4 3 3 2 2 1 1 1 2 2 2 2 2 2
29 28 27 24 20 19 18 17 15 14 13 11 9 7 7 7 7 8 8 8 7 7 7 7 7 7 7 7 7 6 6 6 5 4 4 3 2 1 1 1 1 1
30 29 29 26 23 21 21 19 18 17 16 14 11 9 7 8 9 10 10 8 6 6 6 7 7 8 8 7 7 8 8 8 8 8 7 6 6 5 5 4 4 4
30 29 29 27 25 25 24 22 21 21 20 16 13 10 9 11 14 16 16 14 11 10 10 10 10 10 10 9 8 9 9 9 10 10 9 9 8 8 9 9 9 8
29 29 29 27 26 26 25 25 26 26 21 15 14 13 13 15 18 19 19 19 17 16 15 15 14 12 12 12 12 12 12 11 10 10 10 10 10 10 11 12 12 11
26 26 25 23 23 24 24 23 23 22 18 16 18 17 15 17 20 20 19 19 20 20 20 19 17 14 12 13 14 15 15 14 13 12 11 11 11 12 12 13 13 12
18 18 17 17 19 20 21 20 19 18 18 18 19 17 16 18 21 21 20 20 19 21 22 22 20 17 14 13 14 15 15 15 16 15 14 13 13 13 14 14 13 13
13 13 14 16 18 20 23 24 22 20 19 19 18 17 18 19 21 20 19 18 17 18 20 23 23 22 19 15 14 13 14 15 16 16 16 16 15 15 16 16 16 16
11 12 11 12 14 15 17 18 17 15 15 16 15 16 17 18 19 18 16 15 16 16 18 21 23 24 22 17 13 12 14 15 16 16 16 16 17 18 17 17 18 19
10 9 8 9 9 10 10 11 11 10 11 12 13 13 15 15 15 14 14 14 15 16 17 18 19 21 20 17 15 14 15 16 17 17 16 17 19 20 21 20 21 21
9 9 9 9 9 9 9 10 10 10 11 12 13 14 15 14 14 14 14 15 16 17 18 18 17 17 17 17 17 18 18 19 20 20 20 20 21 22 24 25 25 25
11 11 11 11 12 12 13 13 14 14 15 15 16 17 17 17 16 15 15 16 17 17 18 18 17 17 17 19 20 21 23 23 24 23 23 23 23 23 25 27 28 27
12 13 13 13 14 14 14 15 16 16 17 18 19 19 20 20 20 19 19 18 19 19 19 19 19 19 20 22 23 25 26 26 26 25 25 25 24 24 25 27 28 29
12 13 14 14 15 15 16 17 17 18 19 20 21 22 22 23 23 22 21 21 21 22 22 21 21 21 22 24 25 26 27 27 27 26 26 25 25 26 27 28 29 30
13 13 14 14 14 15 15 16 17 18 20 21 22 23 24 24 25 24 23 21 22 23 23 22 21 21 23 24 25 26 27 27 26 26 26 25 25 27 29 29 30 30
15 14 14 14 14 14 14 15 16 16 18 19 19 20 21 22 22 22 21 20 20 20 20 20 20 21 22 22 23 24 25 26 26 26 26 25 25 27 29 30 29 29
16 15 15 15 15 15 15 15 16 16 17 17 18 18 19 19 19 19 19 19 19 19 19 19 19 20 21 22 22 23 24 25 26 26 25 25 24 25 27 28 28 30
17 17 17 17 18 18 17 17 17 18 18 18 18 18 18 18 18 18 18 18 18 19 19 20 20 21 21 22 23 23 24 24 25 25 25 24 24 25 25 26 28 30
19 19 19 19 19 19 19 20 20 20 20 20 20 20 20 19 19 19 19 18 18 18 18 19 20 21 22 23 24 24 24 25 24 24 24 25 26 26 26 27 28 30
21 21 21 21 21 21 21 22 22 22 22 22 22 21 21 21 21 21 21 21 21 20 20 19 19 20 20 21 22 23 24 25 25 25 25 26 27 27 28 28 29 30
24 24 24 23 23 23 23 23 24 24 24 25 24 24 23 23 22 23 24 25 25 26 25 24 23 22 21 20 21 22 23 24 25 26 26 27 28 28 29 29 29 30

ECMWFNIL_700_spd_045.txt.gz
Wind_Speed
10 10 9 7 7 6 5 4 5 6 5 5 4 3 3 4 4 4 5 5 5 5 5 4 3 3 2 2 1 2 2 3 3 3 4 3 3 3 4 5 5 5
13 12 12 11 10 8 7 6 7 6 5 5 5 3 3 3 4 4 5 5 5 5 4 4 4 4 4 3 3 2 1 1 1 1 1 1 2 2 2 2 3 3
16 15 15 14 13 11 9 8 8 8 6 5 5 4 4 3 3 4 4 4 4 4 4 4 4 4 4 4 4 4 3 2 1 1 1 0 0 1 1 1 1 1
20 18 17 16 15 13 11 10 10 9 7 6 6 5 5 4 3 3 3 3 3 3 4 4 5 4 4 3 3 4 3 3 2 2 2 2 2 2 1 1 1 1
23 21 19 19 18 16 14 12 11 10 9 8 8 6 6 6 5 4 4 4 4 4 4 4 5 5 5 5 4 4 4 3 3 2 2 2 3 3 3 2 2 2
24 21 21 21 21 19 16 14 13 12 12 11 10 9 8 7 6 5 5 6 6 6 7 7 6 6 7 7 7 7 6 6 5 4 3 2 2 2 2 2 2 2
25 22 23 25 23 21 19 18 16 16 16 15 14 13 11 10 9 8 6 6 6 7 8 8 8 7 7 8 9 9 10 9 8 7 6 4 3 3 3 2 2 3
25 26 27 27 25 24 23 23 20 19 19 19 17 16 15 13 13 12 10 9 8 8 8 6 7 7 7 8 9 10 11 11 11 10 9 8 7 6 6 5 5 5
26 29 28 27 27 27 27 25 22 21 22 22 21 21 19 18 17 16 14 12 10 10 10 9 9 9 9 9 11 11 12 12 12 11 11 11 11 11 10 9 9 9
23 28 29 28 29 30 29 27 25 25 26 26 25 24 23 21 20 18 15 14 13 11 11 12 13 14 12 11 12 14 14 15 14 13 13 13 13 13 13 13 13 13
21 25 28 28 29 31 31 30 29 30 30 26 23 23 25 24 22 19 17 17 16 14 13 13 15 16 17 15 14 15 15 16 16 16 16 15 14 14 14 14 14 14
19 23 26 28 29 30 31 31 31 31 29 24 20 18 20 22 22 21 20 20 19 17 16 16 16 17 19 19 17 16 16 17 18 18 18 18 17 17 16 16 15 15
19 21 24 27 29 30 31 32 30 29 26 22 20 17 17 19 20 20 20 21 21 21 21 19 17 17 19 21 20 19 19 19 18 19 19 19 19 20 20 19 18 17
20 22 23 24 25 27 29 29 28 25 24 23 21 19 19 20 20 20 20 20 21 21 20 19 16 15 17 20 21 22 23 22 21 21 20 20 20 20 21 22 22 21
19 21 22 20 19 21 24 25 24 22 21 22 20 18 18 19 19 20 20 18 18 18 18 16 14 13 14 16 18 21 25 27 27 24 22 22 21 20 21 22 23 23
15 15 15 14 14 16 16 16 16 14 14 15 14 14 15 16 16 17 16 15 15 15 15 13 13 14 14 16 18 20 22 26 27 25 23 22 22 22 22 22 23 24
12 11 12 12 13 12 12 13 13 12 12 13 13 14 15 15 15 15 14 14 14 14 14 14 15 15 17 19 20 20 20 23 25 25 25 25 24 24 24 24 25 25
13 14 14 15 15 15 15 16 16 16 16 16 17 17 17 17 17 17 17 17 17 17 18 18 18 18 20 22 22 21 21 24 25 25 26 26 26 26 26 27 27 28
18 18 19 19 19 19 20 19 19 19 19 19 19 19 19 19 19 19 20 20 20 21 22 21 21 22 23 25 26 25 25 26 27 27 26 27 28 28 28 29 30 30
20 21 21 21 21 21 21 22 22 22 22 21 21 21 21 21 21 21 22 22 22 23 23 24 24 25 26 28 28 29 29 29 30 30 29 30 30 31 31 33 33 33
19 20 21 21 22 21 22 22 22 22 23 23 22 22 22 21 21 21 22 22 23 23 24 24 25 26 27 28 29 30 30 31 31 31 31 31 31 32 32 33 34 34
19 20 20 20 20 20 21 21 22 22 22 22 22 22 22 22 22 22 22 22 23 23 23 23 24 25 26 26 27 29 30 31 31 31 31 31 31 32 32 32 32 32
21 22 21 21 20 21 21 21 22 22 22 21 21 21 21 22 22 23 23 23 23 24 24 23 23 24 25 25 26 27 29 30 30 30 30 30 30 30 30 30 30 30
22 23 24 24 24 24 24 24 24 23 22 21 21 21 22 22 23 24 24 24 24 24 25 25 24 24 25 25 26 27 28 29 30 30 29 29 28 28 28 28 28 28
22 24 26 28 28 28 28 27 26 25 24 23 23 22 23 23 24 25 25 25 26 26 26 27 27 26 26 26 26 26 27 27 28 28 28 28 28 28 28 28 28 29
25 27 29 31 32 31 30 29 28 27 26 25 24 23 24 24 25 25 25 26 26 26 27 28 29 29 29 29 28 28 28 27 27 27 27 27 27 27 28 28 29 30

ECMWFNIL_700_spd_048.txt.gz
Wind_Speed
14 11 9 8 6 3 2 2 4 6 7 7 7 6 6 6 6 6 6 7 7 8 8 8 7 6 6 5 4 4 3 3 3 3 3 3 3 3 4 5 5 6
17 14 11 10 8 5 5 5 5 6 6 6 5 5 5 5 5 6 6 7 7 8 8 8 8 8 8 7 7 6 5 4 4 3 3 3 2 2 2 3 3 4
20 16 13 12 10 8 8 7 7 7 6 5 5 4 3 3 4 4 5 5 6 7 6 6 7 7 7 7 8 7 7 6 5 5 4 4 3 2 2 2 1 1
21 17 15 14 12 11 11 10 9 8 6 6 5 4 3 2 2 3 3 3 3 4 4 4 4 5 5 6 6 7 7 7 7 6 6 5 4 3 3 3 3 2
22 19 17 16 14 13 13 12 10 9 8 7 7 5 4 3 3 3 3 3 3 3 3 3 4 4 4 5 5 5 5 6 6 6 6 6 5 4 4 4 3 3
23 22 21 21 18 15 15 15 13 12 11 11 10 8 7 6 5 5 5 5 5 5 5 5 5 5 5 5 6 6 7 6 6 6 6 6 5 4 4 3 3 3
24 25 25 24 21 17 17 18 17 16 15 15 14 12 11 10 9 9 8 8 7 7 7 7 7 6 6 5 6 7 7 8 8 8 7 7 6 6 5 5 4 3
23 26 26 26 23 20 20 22 21 20 19 18 17 16 14 14 13 12 12 10 9 9 9 9 9 9 8 7 6 7 8 9 9 9 9 9 9 9 8 8 8 7
20 25 26 27 25 24 23 24 23 22 22 21 19 18 18 18 18 17 15 14 13 12 12 11 11 11 10 10 10 9 9 10 11 11 11 11 11 11 11 11 11 11
17 22 25 27 27 25 24 25 25 25 24 23 22 21 22 22 21 20 19 17 16 16 16 14 14 14 14 14 13 12 11 11 12 13 13 13 13 13 13 13 14 14
16 19 23 25 25 24 24 25 25 25 25 25 24 23 24 23 22 21 22 22 21 21 20 18 16 15 16 17 17 17 16 15 14 14 14 15 15 14 15 15 15 16
14 17 19 20 20 22 24 24 24 25 26 26 26 24 24 25 24 23 23 25 26 25 23 21 19 16 16 19 20 21 21 20 19 17 16 17 17 17 17 17 17 17
13 15 15 16 17 19 22 24 25 26 26 26 26 25 25 26 26 24 22 22 22 22 22 23 22 19 19 20 21 23 24 24 24 21 18 18 19 20 20 19 19 19
14 14 13 14 14 16 19 23 26 27 26 26 27 27 27 27 25 23 22 21 20 19 19 20 20 21 21 21 22 23 23 25 27 24 20 19 20 21 22 22 22 21
14 15 14 13 14 16 19 21 23 24 24 25 26 27 27 26 24 22 22 22 20 19 19 18 18 19 20 20 20 20 20 21 24 24 22 21 22 23 23 23 23 22
14 15 15 14 15 17 19 19 20 21 22 23 23 24 24 24 23 22 21 19 18 18 17 16 16 17 18 19 18 19 19 19 19 21 21 22 24 25 26 25 24 24
14 15 15 15 16 17 18 18 19 19 20 20 20 20 20 20 19 18 17 17 16 16 16 16 16 16 18 19 18 18 19 19 18 19 20 21 22 23 24 25 26 26
14 15 16 16 16 17 18 18 19 19 18 18 18 18 18 18 18 17 17 17 17 18 18 18 19 19 20 22 22 22 21 21 20 20 21 21 22 22 23 24 26 28
15 17 18 18 18 19 19 20 21 20 20 20 20 20 20 20 20 20 19 20 20 21 22 22 23 24 25 26 26 25 25 25 25 24 24 24 24 24 25 26 28 29
18 19 20 20 21 21 22 22 23 23 23 23 23 23 22 22 22 22 22 22 23 24 25 26 26 27 28 28 28 28 28 28 28 28 28 27 27 27 28 29 30 31
20 20 20 20 20 21 21 22 23 23 23 22 22 21 21 21 22 23 24 25 26 27 27 26 26 26 27 27 28 29 29 29 30 30 30 30 30 30 30 31 32 32
20 19 18 18 18 19 21 22 23 23 23 22 22 21 21 21 22 23 24 25 26 26 26 26 25 25 25 26 27 28 28 29 29 29 29 29 29 30 31 31 32 32
19 19 18 18 18 19 20 22 23 23 24 25 25 25 24 24 24 24 24 25 25 25 25 25 25 25 25 26 27 28 28 28 28 28 28 28 28 28 28 29 30 30
20 20 19 18 18 18 19 20 21 22 24 26 27 27 27 26 26 26 26 26 26 26 26 26 26 26 26 27 27 28 28 28 28 28 27 27 28 28 28 28 28 29
22 21 21 19 19 19 19 20 22 23 25 27 28 29 29 28 28 27 27 27 27 27 28 28 28 28 29 29 29 30 30 29 29 28 28 27 27 27 27 27 27 28
22 22 21 20 19 20 21 23 24 26 28 29 30 31 31 30 30 30 29 29 28 28 29 29 30 30 31 31 32 32 32 32 31 31 30 29 29 29 29 28 28 28

ECMWFNIL_700_spd_051.txt.gz
Wind_Speed
13 12 13 12 11 10 8 6 3 1 4 5 5 6 6 6 6 6 6 6 7 7 8 8 9 9 9 9 9 8 8 8 8 7 7 6 5 5 5 4 4 3
15 14 15 14 13 12 10 7 4 1 3 3 3 4 4 4 4 5 5 5 6 7 7 8 8 9 9 9 9 9 9 9 9 8 7 7 7 6 6 6 5 5
17 16 17 17 16 14 11 9 6 2 3 3 1 1 2 2 2 3 3 3 4 5 5 6 7 7 8 8 9 9 9 9 9 8 8 7 6 6 6 5 5 5
20 18 19 20 19 16 14 11 7 5 5 4 2 2 1 1 1 0 1 0 1 2 2 3 4 4 5 5 6 6 7 7 8 8 8 8 7 6 6 5 5 4
24 22 22 22 21 19 16 13 10 8 8 6 5 4 4 4 4 4 3 3 2 2 1 1 2 2 2 2 2 3 3 4 5 5 6 7 6 6 6 5 5 5
27 25 24 24 23 21 19 16 13 12 11 10 8 8 7 7 7 7 7 6 5 5 4 4 5 5 5 5 4 3 2 1 2 2 3 4 4 4 4 4 4 3
26 27 27 26 24 23 22 19 16 15 15 13 12 11 11 10 9 9 9 9 8 7 6 6 7 7 8 8 7 6 5 4 3 3 2 2 3 3 4 4 3 3
22 26 28 27 26 25 24 22 19 18 18 17 15 15 14 14 13 12 11 10 9 9 8 8 8 9 9 9 9 8 8 7 6 6 5 4 4 4 5 6 6 6
17 23 28 29 29 27 26 25 23 21 21 20 19 17 16 16 16 15 14 12 12 13 13 12 11 11 11 11 11 11 10 9 9 9 9 9 8 7 7 8 8 9
14 19 26 30 31 30 29 28 25 23 22 22 22 20 19 19 18 17 16 15 16 17 17 17 16 14 14 14 14 14 13 12 12 12 12 12 12 10 10 10 10 10
14 18 24 30 32 32 32 30 27 24 24 24 24 23 22 22 21 19 19 19 19 19 18 20 21 20 19 18 17 17 17 16 16 15 15 16 15 13 13 13 13 13
14 17 22 28 32 32 31 30 28 26 25 25 26 26 25 24 23 21 21 21 22 20 20 21 22 23 24 23 19 18 18 18 18 18 18 19 19 17 16 16 17 16
14 16 19 25 29 31 30 30 29 28 26 26 27 27 27 26 24 23 23 23 22 22 23 22 21 21 22 23 21 20 20 20 20 20 20 21 21 20 19 18 20 20
14 15 16 20 25 28 29 30 30 28 27 26 26 26 26 26 26 26 25 24 23 24 24 23 21 20 19 19 20 21 21 21 20 19 20 21 22 22 22 21 22 22
13 14 14 16 19 22 24 26 26 26 26 26 26 25 26 26 26 27 26 25 25 24 23 22 22 21 19 18 19 19 19 18 18 17 17 17 19 21 22 23 24 25
12 13 13 14 15 17 20 21 21 21 23 24 23 23 24 24 25 25 26 25 24 23 22 22 21 20 19 19 18 17 16 16 15 15 15 16 17 18 19 21 23 24
12 13 13 13 14 15 16 16 16 18 19 20 20 20 21 21 22 23 23 23 21 20 20 19 18 18 18 18 16 16 15 16 16 16 16 16 17 18 19 20 21 21
14 14 14 13 14 14 14 14 15 16 17 18 18 18 19 19 20 20 20 19 19 18 18 17 18 19 19 19 18 17 17 17 18 18 19 19 20 20 21 21 21 21
15 15 15 14 14 15 14 14 14 14 16 16 16 16 17 17 17 17 18 18 18 18 18 19 20 21 21 22 22 22 22 22 22 22 23 24 24 24 24 24 23 23
16 15 15 14 14 14 14 13 13 13 14 14 15 15 16 17 17 18 19 20 20 21 22 23 23 24 25 26 26 26 26 26 27 27 27 27 28 28 28 27 27 26
16 15 14 13 13 13 13 14 14 14 14 15 15 16 18 19 20 21 21 22 23 24 25 25 26 26 27 27 28 28 29 29 29 29 29 29 29 29 29 28 28 28
18 17 16 16 15 15 15 15 15 15 15 16 16 17 19 20 21 22 23 24 25 26 26 27 27 28 28 29 29 29 29 29 29 29 29 29 29 29 28 28 27 27
20 20 20 19 18 17 17 16 16 16 16 16 17 18 19 20 21 22 23 23 24 25 26 27 27 28 28 28 28 29 28 28 28 28 28 28 28 28 28 28 28 27
22 22 21 20 19 18 17 16 16 17 17 17 18 18 18 19 20 21 22 23 23 24 25 26 26 27 27 28 28 28 28 28 28 28 27 27 27 27 27 27 28 28
21 22 24 24 22 21 20 19 19 19 19 18 18 18 18 19 21 22 23 24 25 25 26 26 27 27 27 28 28 28 29 29 29 30 29 29 28 28 27 28 28 28
18 20 22 23 24 24 24 23 21 21 21 20 20 21 22 22 23 24 25 26 27 27 28 28 28 28 28 29 29 29 29 30 30 31 31 30 29 29 29 29 29 29

ECMWFNIL_700_spd_054.txt.gz
Wind_Speed
14 14 13 11 10 8 8 7 5 3 2 4 4 3 3 4 6 7 7 8 7 7 6 6 7 7 7 7 7 7 7 7 6 5 5 5 5 5 5 5 4 4
15 15 14 13 11 9 9 8 7 5 3 3 3 2 1 3 4 5 6 7 7 7 6 6 6 6 7 7 7 7 7 7 7 6 5 5 5 5 5 5 6 5
17 16 15 15 13 12 10 9 9 8 6 5 5 3 2 1 2 3 3 4 5 5 5 5 5 5 5 6 6 6 6 6 7 6 6 5 5 5 5 5 5 5
19 18 17 17 16 14 12 11 11 11 10 8 6 5 4 3 2 1 1 1 2 2 2 2 3 3 3 4 4 4 4 4 5 5 6 6 5 5 4 4 3 3
20 19 19 19 18 17 14 13 14 13 12 9 8 7 6 5 4 2 1 1 1 2 2 2 2 2 2 2 2 2 2 2 2 3 3 4 4 4 4 4 4 3
21 20 21 22 22 20 17 16 16 16 14 12 11 10 9 8 6 5 4 2 2 3 3 4 4 4 5 4 4 3 3 2 2 1 2 2 2 2 2 2 3 2
23 24 25 25 25 24 21 19 18 18 17 15 13 12 11 11 9 7 6 4 3 4 4 5 6 6 7 7 7 6 5 4 3 3 2 2 2 2 2 2 2 1
27 28 29 29 29 27 24 21 20 19 19 17 15 14 14 13 12 10 8 7 6 5 6 6 8 9 9 9 9 9 8 7 6 5 4 3 3 3 4 5 5 4
28 28 29 30 30 30 28 24 22 21 21 20 18 17 17 16 15 12 11 10 9 8 8 8 10 11 12 12 11 11 11 11 10 9 8 7 6 5 5 6 6 6
24 24 25 26 29 30 30 27 24 23 23 22 20 19 19 18 17 16 14 12 12 11 11 11 12 12 13 14 14 14 14 14 14 14 14 13 11 9 8 8 9 9
19 20 21 23 26 29 31 29 27 25 24 23 22 21 20 20 20 19 17 15 14 14 14 15 15 15 15 15 15 16 17 18 18 17 16 16 15 14 13 12 12 13
16 18 19 20 22 26 29 30 28 26 25 24 23 22 21 21 22 21 21 19 18 17 17 17 17 17 17 17 17 17 18 19 20 19 17 17 16 17 17 16 16 16
14 16 17 18 19 23 27 28 28 26 25 24 24 23 22 22 23 23 23 23 22 20 20 20 19 19 19 19 19 19 18 18 19 19 19 18 18 18 18 18 17 18
13 14 15 16 17 19 24 26 26 26 25 25 25 24 23 24 25 25 24 24 24 23 22 22 21 22 22 21 20 19 18 17 16 17 18 18 17 16 15 15 15 17
15 15 14 14 14 17 21 24 26 26 26 26 26 26 26 27 26 25 24 24 25 24 24 23 24 24 23 22 21 20 18 16 16 16 16 15 14 14 13 13 13 15
17 16 15 13 13 15 19 23 26 28 28 28 28 29 29 28 25 24 25 26 25 25 25 25 25 25 23 21 20 19 16 14 14 13 13 13 13 13 14 14 14 15
19 18 16 15 14 16 18 22 25 28 29 29 29 30 29 26 24 24 26 27 27 26 26 26 25 23 21 19 17 15 13 12 12 12 12 13 13 14 15 15 15 16
20 19 17 16 15 15 17 19 22 25 26 25 26 27 26 24 24 25 26 27 26 26 25 24 22 20 18 16 14 13 12 13 14 14 15 16 16 17 17 18 18 19
20 19 18 17 15 14 15 17 19 21 21 20 22 24 24 24 25 24 24 24 23 23 21 20 18 17 15 15 14 15 15 16 17 17 18 19 19 20 20 20 21 21
20 19 18 17 17 16 15 16 17 18 18 19 20 22 22 21 19 18 18 19 18 18 17 16 16 16 16 16 16 17 17 18 19 20 20 22 22 23 23 23 23 23
20 20 19 18 17 16 16 17 17 17 18 19 18 17 16 14 13 14 15 15 15 15 15 16 16 16 17 17 18 18 18 19 20 21 21 23 24 24 24 24 24 24
19 20 21 21 20 18 17 17 16 16 17 17 15 13 12 12 12 13 14 14 14 15 15 16 16 17 17 18 18 18 19 19 20 21 22 23 24 24 24 24 24 24
18 20 22 23 24 22 21 19 17 16 16 16 15 14 14 14 14 13 14 14 14 15 15 16 16 17 17 18 18 19 19 19 20 21 22 23 23 23 23 23 23 24
19 21 22 24 24 24 22 20 17 17 16 16 16 16 16 16 15 15 15 15 14 15 16 16 17 18 18 19 19 19 19 20 21 22 23 23 23 23 23 24 24 25
20 22 23 24 25 25 25 24 22 20 19 18 19 19 18 17 16 16 16 16 16 17 18 18 19 20 20 21 21 21 21 21 22 24 25 25 24 24 25 25 25 25
21 21 22 22 23 24 25 25 25 25 23 20 18 18 18 17 17 18 18 19 19 20 21 21 22 23 23 24 24 24 24 24 23 24 27 27 26 25 26 26 26 26

ECMWFNIL_700_spd_060.txt.gz
Wind_Speed
19 18 19 17 14 10 8 5 3 2 2 3 4 5 5 4 3 1 1 2 3 5 6 6 6 6 6 6 6 5 4 4 3 2 2 2 1 1 2 2 2 3
20 20 20 18 15 12 9 7 5 4 3 3 5 5 4 3 2 1 0 2 3 5 6 7 7 7 7 7 7 6 6 5 5 4 4 4 3 3 2 2 2 2
21 23 22 19 16 13 10 9 7 6 4 3 4 5 3 2 2 1 1 2 3 4 6 6 7 7 7 7 7 7 6 6 6 5 5 5 5 4 4 4 4 3
24 25 23 19 16 14 11 10 9 8 6 4 4 4 3 2 2 2 1 1 2 3 4 5 6 6 6 6 6 6 6 5 5 6 5 5 5 5 5 5 5 5
26 26 24 20 17 14 13 11 11 9 7 5 4 4 3 3 3 2 2 1 1 1 2 3 4 4 4 4 4 4 4 4 4 5 5 5 5 5 5 5 5 5
27 27 26 24 20 15 14 13 12 11 9 7 5 4 4 5 4 3 3 2 2 2 2 2 2 3 3 3 2 2 2 2 3 3 4 4 4 4 4 5 5 5
28 28 27 27 25 19 15 15 15 13 11 9 7 5 5 6 6 5 4 4 3 3 2 1 1 1 1 1 1 1 1 1 1 2 2 3 3 3 3 3 3 3
29 28 27 28 29 24 18 17 17 15 13 11 9 7 7 8 8 7 6 6 5 4 3 3 3 3 3 2 2 2 2 2 2 2 2 1 1 0 1 1 0 1
31 33 32 30 29 26 21 19 19 17 15 13 11 9 9 9 10 10 9 8 7 6 5 5 5 5 6 5 5 4 4 4 5 5 5 4 4 3 3 2 2 2
33 34 35 34 31 27 23 20 20 18 15 14 13 12 11 11 11 11 11 11 10 9 8 8 8 8 8 8 8 7 5 5 6 6 7 8 7 7 7 6 6 5
29 31 34 34 29 24 21 20 20 18 16 15 14 13 13 13 13 13 13 13 12 11 11 11 11 10 9 9 8 8 7 5 6 7 7 9 10 9 9 9 9 8
22 25 25 25 24 21 20 20 20 19 17 16 15 15 15 15 14 14 14 14 13 13 13 13 13 12 11 10 9 9 9 7 7 8 8 8 8 10 11 10 9 9
19 19 17 19 21 20 21 21 20 19 16 16 16 16 17 16 16 16 15 15 14 13 13 13 13 13 11 10 10 10 11 9 8 9 10 11 11 12 12 12 11 10
14 15 15 16 17 19 22 24 23 20 18 17 17 17 18 17 18 18 17 17 16 15 16 15 15 16 12 9 9 11 11 11 10 11 12 13 13 12 10 11 11 10
10 11 13 14 16 18 20 21 21 19 16 15 15 16 18 19 20 20 19 19 19 19 18 17 20 20 14 8 9 12 12 12 12 12 11 9 9 8 7 7 8 7
12 14 15 16 18 19 16 16 18 16 12 11 12 15 18 20 21 20 19 19 20 19 17 17 21 21 14 8 11 14 14 13 12 11 9 5 4 5 4 3 3 4
14 16 18 18 18 18 16 14 14 12 9 10 13 14 15 17 19 20 21 21 22 20 17 16 18 19 16 14 14 15 15 14 11 9 7 5 4 4 5 5 4 5
15 17 18 18 18 17 17 15 13 11 9 10 14 16 16 17 20 21 21 21 21 20 18 17 18 18 19 18 17 16 15 13 10 9 8 8 7 7 7 7 7 8
16 15 15 15 16 16 16 13 9 8 9 11 15 17 18 19 21 21 20 20 21 22 20 19 19 19 20 20 18 17 15 11 10 10 9 8 8 9 9 8 9 10
13 12 11 11 12 11 10 8 6 6 9 12 15 17 19 20 20 21 21 21 22 23 21 19 19 20 21 22 19 15 13 10 10 11 10 10 10 10 10 10 11 13
9 9 10 10 10 10 10 8 8 9 10 12 14 16 18 18 19 20 21 20 20 21 20 18 17 17 19 20 17 14 12 12 12 12 12 12 12 12 12 12 14 16
9 9 10 10 10 11 11 9 8 9 10 11 13 15 16 18 19 20 20 19 18 18 18 17 16 15 15 16 14 13 13 13 14 14 14 13 13 13 13 14 16 17
7 7 9 11 12 12 12 11 10 10 10 11 13 14 16 17 18 19 20 19 18 17 16 15 15 15 15 14 14 14 14 14 16 17 16 15 15 14 13 15 16 17
5 6 8 12 14 13 12 12 12 12 11 10 11 12 13 13 15 17 18 18 17 16 14 14 15 14 14 15 15 16 16 17 19 19 18 19 18 16 15 16 17 17
10 10 9 12 13 13 12 12 11 11 11 11 11 11 11 13 14 16 18 18 18 17 16 16 15 15 15 16 17 17 18 19 20 21 20 21 21 20 18 17 18 18
17 16 14 14 14 14 14 14 13 13 14 14 14 14 15 15 16 17 20 21 19 19 18 18 17 17 17 17 17 18 18 19 20 21 19 19 22 23 21 20 20 20

ECMWFNIL_700_spd_063.txt.gz
Wind_Speed
19 20 18 14 12 11 10 9 8 6 5 6 6 6 5 5 4 4 4 4 5 5 6 7 8 8 8 8 8 7 6 6 6 6 6 6 6 6 6 5 5 6
21 21 19 16 14 13 13 11 9 7 5 5 6 6 5 5 4 4 5 5 5 6 7 8 8 8 9 9 9 8 8 8 7 7 7 7 7 7 7 6 6 6
22 20 18 16 15 15 15 13 10 8 5 5 6 6 6 5 4 4 5 5 5 6 7 8 8 9 9 9 9 9 9 8 8 8 8 9 9 9 8 8 7 7
22 20 18 16 17 17 16 13 10 8 5 4 5 6 6 5 5 5 5 6 6 6 6 7 8 8 9 9 9 9 9 9 9 9 9 8 9 9 9 9 8 8
22 21 19 18 19 19 16 13 10 7 5 4 5 6 6 6 6 5 5 5 5 5 5 5 6 6 7 7 7 8 8 8 8 9 9 8 8 9 9 10 9 9
22 21 19 19 20 20 17 14 11 8 6 4 5 5 5 5 6 6 5 5 4 4 4 4 5 5 5 6 6 6 6 6 6 7 7 7 8 8 8 10 10 10
22 21 20 20 22 21 18 15 12 10 8 6 5 5 5 5 5 5 5 4 4 4 4 4 4 4 5 4 5 5 5 5 5 5 6 5 6 6 7 8 8 9
24 23 21 21 22 21 19 16 13 11 10 8 6 5 5 5 5 5 5 4 4 4 4 3 3 3 3 2 2 2 2 4 4 4 4 4 5 6 7 7 6 7
24 24 23 23 23 22 20 17 14 12 11 10 8 6 6 6 6 6 6 6 5 4 3 2 1 1 1 1 1 2 3 3 3 4 4 5 5 5 5 6 6 7
26 26 25 25 24 23 22 19 16 15 13 11 10 9 8 7 7 8 8 7 6 5 5 4 4 4 4 4 4 4 3 3 3 4 5 5 6 6 6 6 6 7
26 26 25 25 25 25 25 23 22 22 20 15 12 11 10 9 9 9 9 8 7 8 8 8 7 7 8 9 8 5 4 4 4 4 4 5 6 7 8 9 9 8
21 21 22 24 27 29 29 27 27 28 24 19 15 13 13 12 12 12 11 11 11 11 10 9 9 10 11 11 10 7 5 5 6 5 5 6 6 6 7 9 10 11
15 17 21 23 27 32 32 30 31 31 23 18 15 14 15 14 15 15 15 15 15 13 10 9 9 9 10 9 8 8 9 8 7 6 7 7 8 8 9 9 10 11
12 14 18 19 21 26 28 29 30 25 18 14 13 15 17 18 18 19 19 18 16 13 10 9 9 8 8 8 10 11 11 9 6 6 8 9 9 10 11 11 11 12
9 10 11 10 11 15 17 16 17 17 15 13 14 15 18 19 20 19 19 18 16 14 12 11 10 10 10 11 12 12 11 9 6 6 8 9 9 9 10 11 11 12
7 7 5 5 6 8 9 10 13 15 15 15 16 16 16 17 17 17 18 18 17 15 13 12 12 12 12 13 13 12 12 12 10 8 8 9 8 8 8 10 11 12
8 8 7 7 8 9 9 10 13 14 11 11 15 16 15 15 15 14 16 18 17 15 15 14 13 13 14 14 13 12 14 14 13 11 10 10 8 7 7 9 10 11
10 10 9 9 10 9 9 10 11 11 8 7 11 13 12 13 14 13 14 15 16 16 15 15 15 16 16 15 13 13 15 16 15 13 12 11 10 9 9 10 10 11
10 10 9 9 9 8 9 10 11 10 9 9 9 10 11 13 14 14 13 14 15 16 16 16 16 17 17 17 16 16 17 17 16 15 14 14 12 12 12 13 12 11
10 10 9 9 7 7 8 11 11 11 10 10 10 10 13 16 16 16 16 16 17 17 17 18 18 19 19 19 19 18 18 18 17 17 16 14 13 13 14 14 13 12
8 7 7 8 6 5 7 8 9 10 10 11 11 11 14 16 17 17 18 18 18 17 18 19 19 20 20 19 19 19 19 19 19 18 17 15 14 15 16 15 14 13
9 8 8 8 7 6 7 8 8 9 10 11 12 12 13 14 15 17 18 18 17 17 17 18 19 19 19 18 18 19 19 18 18 18 16 15 15 16 16 16 15 14
11 10 9 9 9 8 9 9 10 11 10 11 12 12 13 14 16 17 18 17 17 16 15 16 16 16 16 17 17 17 18 18 18 16 15 15 16 16 16 16 16 16
14 12 9 9 10 11 10 9 10 10 10 10 11 11 13 16 17 17 17 16 15 14 14 14 13 13 14 14 15 16 18 18 17 15 15 15 16 17 16 16 16 16
12 11 9 8 9 9 9 8 8 9 9 10 11 12 14 16 17 18 18 16 14 13 13 13 12 12 12 13 15 17 19 19 17 16 16 17 17 17 17 17 17 17
10 11 11 12 10 8 8 8 9 10 11 12 13 14 15 16 17 18 17 15 14 14 14 13 14 14 14 15 16 17 19 19 19 18 19 19 19 19 19 19 18 18

ECMWFNIL_700_spd_066.txt.gz
Wind_Speed
17 18 18 18 17 15 13 12 10 9 9 7 6 6 5 5 5 5 5 4 5 5 5 5 5 6 6 7 7 7 7 7 6 6 6 5 5 6 5 5 5 6
19 19 20 19 18 16 14 12 11 9 8 7 6 6 5 5 5 5 6 5 5 5 5 6 6 7 7 7 7 8 7 7 7 7 7 7 6 6 6 6 5 6
19 20 20 19 18 16 15 13 12 10 8 7 7 7 6 6 5 6 6 6 6 6 6 6 6 7 8 8 8 8 8 8 8 8 8 8 7 7 7 7 6 6
19 20 19 18 17 17 16 14 13 11 9 8 8 8 7 6 6 6 6 7 7 6 6 6 6 7 8 8 9 9 9 9 9 9 9 8 9 8 8 8 7 7
20 21 18 16 16 17 17 15 14 12 10 9 9 8 8 7 6 6 7 7 7 6 6 6 6 7 7 8 8 8 9 9 9 10 9 9 9 9 9 8 7 6
21 21 18 16 16 18 18 16 15 13 11 10 10 9 9 8 7 8 8 8 8 7 6 6 6 6 6 6 7 7 8 9 9 10 9 8 8 8 8 8 8 7
21 21 19 18 17 18 19 18 17 15 13 11 11 10 9 9 8 8 9 9 8 8 8 7 7 6 6 6 6 6 6 7 8 8 8 8 7 7 7 8 9 9
22 23 21 20 20 19 20 20 18 17 15 13 12 11 10 9 9 9 9 9 9 9 8 8 7 6 6 5 5 4 4 4 4 5 6 7 7 7 7 7 8 9
23 24 23 22 21 21 22 22 21 20 17 16 14 13 13 12 10 10 10 10 10 9 8 7 6 6 5 4 3 2 2 2 3 4 4 6 6 6 6 7 7 8
25 25 24 23 22 22 24 25 24 23 21 19 18 16 15 14 13 12 11 11 11 10 9 8 6 5 3 3 3 3 4 4 4 5 6 6 7 6 6 7 7 7
25 26 26 25 24 24 26 26 25 24 23 22 21 19 17 16 15 14 13 12 12 11 11 9 6 5 5 5 6 6 6 6 6 7 7 8 9 9 9 8 8 8
24 26 28 27 27 27 27 26 25 26 26 26 26 24 22 18 16 16 15 14 13 13 12 9 8 7 7 7 7 8 8 9 9 8 8 9 10 10 10 10 11 11
23 24 25 23 25 26 26 26 27 29 30 31 32 29 24 21 20 18 17 15 14 14 12 11 10 9 9 9 9 9 10 11 11 11 10 10 11 10 10 11 12 14
21 22 20 18 22 25 25 26 29 31 33 35 35 31 24 22 23 21 18 17 16 15 14 13 12 10 10 10 10 10 11 12 13 13 12 11 12 11 11 11 13 16
16 18 17 18 22 22 22 25 28 31 34 36 35 31 26 23 23 22 21 20 18 17 16 15 14 13 12 12 12 12 11 12 14 14 13 12 13 13 13 14 15 17
10 11 12 13 16 16 17 21 24 27 31 35 35 31 25 21 20 21 22 22 20 19 18 16 16 16 14 14 14 13 12 13 14 14 12 13 14 14 14 14 15 17
9 9 9 10 10 10 12 14 15 17 21 25 26 25 21 19 18 20 21 21 21 20 19 18 19 18 17 16 15 14 13 13 14 15 13 13 15 15 14 14 15 15
11 10 10 10 10 11 12 12 13 14 15 17 19 21 20 18 18 18 18 17 18 19 19 21 21 20 19 18 16 16 14 14 15 16 15 14 15 15 13 13 14 14
11 12 11 11 11 12 13 13 13 15 17 17 17 19 20 18 17 17 17 17 18 20 22 23 23 23 22 20 19 18 17 16 16 17 16 15 14 14 14 13 13 13
10 11 11 10 10 10 11 12 13 15 17 16 15 16 17 17 18 18 19 19 20 21 23 24 24 24 23 21 21 21 20 19 18 17 16 15 14 15 15 15 15 14
10 11 11 10 9 9 10 12 14 15 15 15 14 14 16 17 18 19 19 20 20 21 22 23 23 23 22 22 23 23 22 21 20 18 17 15 15 17 18 18 18 17
11 11 11 11 10 11 11 12 14 15 15 15 15 16 18 20 19 19 19 20 20 21 21 21 22 22 22 23 24 24 24 22 20 19 18 17 18 19 19 20 21 21
12 12 12 12 12 13 13 14 15 16 17 18 19 20 22 21 19 18 19 20 20 21 21 21 22 22 22 24 25 24 23 21 19 19 18 18 19 20 20 21 22 22
11 11 12 13 13 14 15 16 16 16 17 19 20 21 20 19 17 18 19 19 19 20 22 22 22 22 22 24 24 23 21 19 18 18 18 18 20 22 22 23 23 23
12 12 13 13 13 14 16 17 17 17 17 17 18 19 18 17 16 18 19 19 19 21 22 22 21 21 22 23 23 23 21 19 18 18 18 19 21 22 23 23 23 23
14 14 15 15 15 15 16 16 17 17 17 17 17 17 17 17 18 19 20 21 22 23 22 22 21 21 21 22 22 22 20 19 18 18 19 20 22 23 23 23 23 23

ECMWFNIL_700_spd_069.txt.gz
Wind_Speed
15 18 18 17 17 16 15 13 12 10 9 7 6 5 5 4 3 3 3 3 3 3 2 2 2 2 2 3 4 4 5 5 5 6 6 5 6 7 7 8 7 7
16 19 20 19 19 18 16 14 12 11 10 8 7 6 5 5 4 4 4 4 3 3 3 2 1 1 1 2 3 4 5 5 5 5 5 5 5 6 6 6 7 7
17 20 21 21 20 19 17 15 13 12 10 9 7 7 6 5 5 5 4 4 4 3 3 2 1 1 1 2 3 4 4 4 4 3 3 4 5 6 6 6 6 7
17 20 20 21 22 21 18 15 13 12 11 9 8 7 7 6 6 5 5 5 4 4 3 3 2 3 3 3 3 3 2 2 1 1 2 2 3 4 4 5 5 5
18 20 21 22 22 20 17 15 14 13 12 11 9 8 8 7 7 7 7 6 6 5 5 4 4 4 4 4 4 3 2 1 1 1 2 2 2 2 3 4 4 4
20 21 22 23 22 19 17 16 16 15 13 11 10 10 9 9 9 9 9 8 8 7 7 6 6 6 6 5 4 3 2 2 1 2 2 2 2 3 3 3 3 4
21 22 23 23 22 19 18 18 18 16 14 12 11 10 10 10 10 10 10 10 10 9 9 8 7 7 6 5 4 4 3 2 2 2 2 3 3 3 4 3 3 2
22 23 24 23 21 19 20 20 19 17 15 13 12 12 11 11 11 11 11 11 11 10 9 9 8 7 6 5 4 4 3 2 1 1 2 2 3 4 4 4 3 2
23 23 24 23 20 19 20 20 19 18 16 15 15 14 14 14 13 13 12 12 12 11 10 9 8 7 6 5 5 4 4 3 2 2 2 3 3 3 4 3 3 3
24 26 26 25 21 20 21 21 20 20 18 17 18 18 17 16 15 14 14 13 13 12 11 10 8 7 6 5 5 4 4 4 4 4 4 5 5 6 6 5 5 4
25 27 27 26 25 23 23 22 22 22 21 21 21 20 20 19 17 17 16 15 14 13 13 11 9 8 6 5 4 4 5 5 5 6 6 7 8 8 9 8 8 7
26 27 27 27 27 26 24 23 22 24 24 24 23 22 22 21 20 20 20 18 17 16 15 14 11 9 7 6 5 5 6 6 7 7 7 8 9 10 11 11 11 11
30 28 26 26 28 28 27 25 25 27 27 26 25 25 24 24 24 24 23 21 19 18 17 16 14 11 9 9 8 8 9 9 9 9 8 8 10 11 11 11 12 13
29 26 25 26 29 29 27 27 27 29 28 27 27 28 27 27 26 26 25 23 21 21 20 19 17 14 11 11 11 11 11 11 11 10 9 9 10 11 11 12 12 13
20 22 23 24 24 23 23 24 25 28 29 28 28 29 30 30 29 28 26 21 20 23 24 22 19 16 13 13 13 12 12 12 11 11 12 12 12 12 13 13 14 15
12 16 19 19 19 18 18 20 21 26 30 29 27 29 32 33 31 30 29 25 23 25 26 24 21 18 15 13 13 12 13 13 14 14 14 14 14 14 14 14 15 17
10 11 14 16 18 19 18 18 20 23 28 30 28 28 31 32 32 34 36 33 29 27 26 24 21 18 16 14 14 15 16 17 17 16 15 15 15 16 16 16 17 18
9 10 11 12 14 15 15 18 19 21 26 29 28 28 29 31 33 36 37 33 28 27 27 24 21 19 18 18 19 19 19 19 20 18 16 16 17 17 17 18 18 19
9 10 11 11 11 12 13 15 16 18 22 24 24 26 28 30 33 33 30 25 25 26 25 22 21 21 22 21 22 22 21 21 22 21 18 16 17 19 20 20 20 20
11 11 12 12 12 13 14 14 15 17 19 20 21 23 24 26 26 25 22 22 23 24 23 22 22 23 24 23 23 24 24 24 24 24 21 18 18 19 21 22 21 20
12 14 14 14 14 14 14 15 16 17 18 19 21 22 21 21 22 23 23 24 24 24 23 23 23 25 26 25 26 26 26 26 26 26 24 22 20 20 20 21 21 20
11 13 14 15 15 15 15 16 17 18 19 20 22 23 23 23 26 27 26 26 25 24 24 24 25 27 28 28 28 28 28 29 29 27 25 24 23 21 21 21 22 21
11 12 13 15 15 16 16 17 18 19 20 20 21 23 23 23 25 26 24 24 25 25 26 27 28 28 28 28 29 29 29 30 29 28 27 26 25 24 22 22 23 22
11 12 13 14 15 16 17 17 18 19 19 20 21 22 23 23 23 22 23 25 26 27 30 31 30 27 26 27 29 29 29 29 29 29 28 28 26 25 24 23 23 23
11 12 12 14 15 17 18 19 19 19 20 21 22 23 24 24 23 23 25 26 26 27 29 30 28 26 25 27 30 30 30 30 30 29 28 27 26 26 25 23 23 24
11 11 11 13 14 16 18 19 20 21 21 22 24 24 25 25 26 26 26 26 25 25 25 26 26 26 26 28 29 31 30 30 29 28 27 26 26 26 25 23 23 23

ECMWFNIL_700_spd_072.txt.gz
Wind_Speed
18 16 17 15 15 16 16 15 12 10 8 7 5 3 3 3 4 5 5 3 3 3 2 1 1 1 1 2 1 1 2 2 2 3 4 5 7 9 10 9 9 8
16 17 17 16 17 18 16 14 12 10 8 7 4 3 3 4 5 5 5 4 4 3 3 1 0 1 1 1 1 1 2 2 2 3 3 4 6 8 9 9 9 8
17 18 18 18 18 17 15 14 12 11 10 7 5 4 4 5 5 5 5 5 5 4 3 2 1 1 1 1 1 1 1 2 2 3 3 3 5 6 7 7 8 7
17 18 18 18 19 18 16 15 13 12 10 7 6 6 5 6 6 6 6 6 6 5 4 4 2 1 1 1 1 2 2 3 3 3 3 3 4 4 5 6 6 7
16 17 18 19 20 19 18 16 15 13 11 9 8 8 8 8 8 7 7 6 6 6 5 4 2 1 1 2 2 2 2 3 4 4 4 4 3 3 4 5 5 5
16 17 18 20 21 21 19 18 17 15 12 11 10 10 11 10 9 8 7 7 7 6 6 4 3 2 2 2 3 2 2 2 3 4 4 4 4 3 2 2 2 3
17 17 18 20 22 22 21 20 18 17 14 13 13 12 12 11 10 9 8 8 7 7 6 5 3 3 3 3 3 3 2 2 3 4 4 5 5 5 3 2 1 1
20 19 19 21 22 22 22 21 20 18 16 15 14 13 12 11 11 10 9 8 8 8 7 5 5 4 4 4 4 4 4 3 2 3 3 3 4 4 4 3 3 2
25 22 21 22 22 22 23 23 21 19 17 16 14 13 13 12 12 11 9 8 9 9 8 7 6 6 5 5 5 4 4 3 2 1 1 1 1 2 2 2 2 2
27 25 23 23 23 24 24 23 21 20 19 17 15 14 14 13 13 12 11 10 11 11 9 8 7 6 6 5 5 3 2 1 1 1 1 2 2 1 1 1 1 1
26 26 25 25 25 25 24 23 21 20 20 18 16 16 15 15 15 14 13 12 13 12 11 9 8 8 7 6 5 4 2 1 1 2 3 3 4 4 4 4 4 4
26 26 26 26 27 27 25 22 21 21 21 20 18 17 17 17 17 16 15 14 14 14 13 11 10 10 9 8 7 5 3 3 3 3 4 4 5 5 6 6 7 7
27 28 27 28 29 29 26 23 22 22 22 21 21 20 20 20 20 18 17 16 16 15 14 13 12 12 12 10 9 7 5 5 5 5 5 6 6 6 6 7 7 8
27 28 28 29 32 32 31 28 26 25 24 23 22 22 22 22 22 21 20 19 18 18 16 15 15 14 14 13 12 9 7 7 7 7 8 8 8 8 8 8 8 8
24 28 30 30 31 33 33 31 29 28 27 25 23 22 23 24 24 23 22 22 21 21 20 18 17 16 16 17 15 13 11 10 9 9 9 10 10 10 10 11 11 11
14 22 30 33 32 33 33 32 31 30 29 27 25 23 23 24 25 25 25 25 24 23 22 21 18 16 18 19 19 17 14 12 11 10 10 11 11 11 12 13 13 13
7 11 21 28 28 26 26 27 29 29 29 28 26 25 25 24 25 26 27 26 25 24 23 23 21 21 23 23 24 22 18 14 12 11 12 12 13 13 14 14 15 16
8 8 12 17 17 16 16 19 22 25 27 26 25 27 27 25 24 25 27 28 25 24 25 25 26 27 27 24 25 26 22 17 15 14 14 15 15 16 15 15 15 17
9 10 11 13 14 14 15 16 18 20 21 22 23 26 29 28 26 24 26 27 26 25 26 28 29 29 26 22 25 28 25 21 19 18 18 18 18 18 17 16 16 17
7 8 10 12 12 11 12 14 17 17 18 19 20 23 27 29 28 26 25 25 26 26 29 31 31 29 24 22 25 29 28 25 22 21 21 21 20 20 19 18 18 19
5 6 8 10 9 9 9 12 14 15 17 18 19 21 23 25 27 27 27 26 27 29 31 32 30 26 23 23 26 30 30 27 25 24 23 23 23 22 21 21 21 21
6 6 7 8 9 9 10 12 13 13 15 16 17 18 20 22 24 26 26 26 27 29 30 29 26 24 23 25 27 29 30 28 27 27 26 25 24 23 23 23 23 24
6 7 8 8 9 9 10 12 13 14 15 17 18 19 20 21 22 23 24 23 24 25 26 25 24 24 24 26 28 29 29 29 29 29 28 27 26 25 25 25 25 26
8 8 8 9 9 9 10 12 13 15 16 18 19 20 21 21 22 23 24 23 22 23 25 26 25 26 27 28 29 29 29 30 31 30 29 28 28 27 26 27 27 28
9 9 9 9 9 10 11 12 13 15 16 18 19 20 21 21 22 23 24 24 24 24 27 28 28 28 29 29 29 30 31 31 30 30 29 29 29 29 29 29 29 29
10 10 9 9 9 10 11 12 13 15 16 17 19 20 21 21 22 23 24 24 24 25 26 29 30 30 30 30 30 32 33 33 33 33 32 30 31 32 31 31 32 31

ECMWFNIL_700_spd_075.txt.gz
Wind_Speed
22 23 21 17 14 14 13 14 13 12 10 8 6 5 3 2 3 4 4 3 3 3 3 4 4 4 5 4 4 3 2 1 1 2 3 5 7 8 8 8 9 8
21 22 22 19 16 15 16 15 13 12 10 8 7 5 3 2 2 2 2 2 2 2 3 3 4 4 5 5 4 3 3 2 2 2 3 3 3 5 7 7 8 8
20 21 22 19 18 18 17 16 14 12 11 9 8 5 3 2 1 1 2 2 3 3 2 3 3 4 5 5 5 4 4 3 3 3 3 3 3 3 5 6 7 7
18 19 19 19 19 19 18 17 14 12 11 11 8 6 4 3 2 1 2 3 3 3 3 2 2 3 5 6 6 6 5 4 3 3 3 3 4 4 4 5 5 6
15 16 16 18 20 20 19 17 15 13 13 11 9 6 5 3 3 3 2 3 4 3 3 2 1 2 4 6 6 7 7 6 5 4 3 3 4 4 4 4 5 5
15 15 15 17 19 20 19 17 15 14 13 11 9 7 5 4 4 4 3 3 3 3 3 2 0 2 4 6 7 7 7 7 7 6 5 5 5 5 5 4 4 5
15 14 14 17 19 20 20 18 16 15 14 12 10 8 6 5 5 4 4 3 3 3 3 3 1 3 5 6 7 7 7 8 8 8 7 7 7 7 6 6 5 6
18 15 14 16 19 21 21 19 18 16 15 13 11 9 7 6 6 5 5 5 4 3 4 4 2 3 4 6 6 7 7 8 8 8 7 7 7 7 7 7 7 7
21 18 15 15 18 20 21 21 20 18 17 15 12 10 9 8 7 7 7 6 5 4 6 6 4 3 4 5 6 6 7 7 7 8 7 6 6 6 6 7 7 7
23 21 18 17 17 19 21 22 21 19 18 16 14 12 11 10 9 9 8 8 7 7 7 6 4 4 5 6 6 6 6 6 7 7 7 6 6 5 5 5 5 5
25 24 22 20 18 18 20 22 21 21 19 17 15 14 13 12 11 10 10 9 9 9 8 6 6 6 7 6 6 6 6 6 6 7 7 6 5 5 4 4 4 4
27 27 26 24 21 19 19 21 21 21 20 19 17 16 15 14 13 12 11 11 10 9 9 8 8 8 8 7 7 7 7 6 6 7 6 6 6 5 5 4 4 4
29 29 28 27 24 22 21 20 21 22 21 20 19 18 17 15 14 13 12 12 11 11 10 10 10 10 9 9 8 8 8 8 7 6 6 6 6 5 5 5 5 5
30 29 28 27 26 25 23 21 22 22 22 21 20 19 18 16 14 14 14 14 13 12 12 11 11 11 11 11 10 10 10 9 8 8 7 7 7 7 6 6 6 6
31 28 24 23 25 26 25 24 23 23 22 21 21 20 19 17 15 15 15 16 16 15 14 13 13 14 13 12 11 11 11 11 11 10 9 9 9 9 8 8 7 8
30 29 24 23 24 26 27 26 24 24 23 23 22 21 19 17 16 16 17 18 18 17 16 15 15 16 15 14 13 11 10 12 14 15 13 11 10 10 9 9 8 9
23 26 25 25 26 27 30 30 27 24 24 23 23 22 20 18 17 17 18 19 20 20 18 17 18 18 17 16 16 13 11 12 16 18 18 15 12 11 11 11 10 11
14 16 17 21 25 27 29 29 29 27 25 24 25 23 21 19 19 19 20 21 22 22 21 20 21 21 20 20 19 17 15 16 18 20 21 19 16 14 13 13 12 12
13 11 10 14 21 26 26 24 26 29 30 29 29 27 24 22 21 21 22 22 23 23 23 22 22 23 23 24 24 22 20 20 21 21 23 23 22 19 16 15 14 14
11 10 8 9 13 19 21 20 20 25 30 31 30 28 26 24 24 24 24 24 24 23 24 24 25 25 25 26 27 26 24 25 25 24 24 26 25 23 20 18 17 17
7 7 7 8 9 12 15 15 15 17 22 24 24 23 23 24 25 25 26 27 26 25 25 26 26 27 27 29 30 29 28 29 28 25 25 27 28 27 25 23 21 20
6 6 6 7 8 8 9 11 12 14 16 18 20 20 21 22 23 24 26 28 29 28 27 27 28 29 29 31 32 32 31 31 29 27 26 27 29 29 28 27 25 24
6 6 6 7 7 7 6 7 8 10 12 14 15 17 18 19 20 21 23 26 28 29 29 29 29 30 32 33 33 33 32 30 28 28 27 28 29 31 31 30 28 27
7 7 7 7 7 7 8 8 8 9 11 12 13 14 15 16 18 19 20 22 24 26 26 27 28 30 31 32 32 32 31 29 27 27 28 28 29 30 31 31 30 29
8 8 8 8 8 8 9 9 10 11 12 13 13 14 15 16 17 19 20 21 22 23 24 25 26 26 27 27 28 29 28 27 27 27 28 28 29 30 31 31 31 30
9 9 10 10 10 9 9 10 10 11 12 12 13 13 14 14 16 18 19 20 21 23 24 25 25 25 24 25 26 26 27 27 27 28 29 29 30 32 33 33 32 31

ECMWFNIL_700_spd_081.txt.gz
Wind_Speed
17 17 19 21 20 20 22 19 17 16 16 16 15 14 13 12 12 11 10 10 9 9 9 9 9 9 9 9 9 8 8 7 6 6 7 8 8 9 9 9 10 10
15 17 19 21 21 22 21 18 16 16 16 16 14 13 13 13 12 12 11 10 10 9 9 8 8 8 7 8 9 9 9 9 8 7 7 8 8 9 10 10 11 11
17 18 18 19 20 19 16 16 16 15 16 15 14 13 12 13 13 12 11 10 9 9 9 8 7 7 7 7 9 10 10 10 10 10 9 9 8 7 8 10 9 9
17 17 17 18 18 17 17 19 17 15 16 16 15 14 13 14 13 12 11 10 9 9 8 8 7 7 7 7 8 8 9 9 10 10 10 11 10 8 7 8 8 8
16 16 16 18 18 20 21 21 18 17 18 17 16 15 15 15 14 12 11 10 10 9 8 8 7 7 7 7 7 7 8 8 9 9 9 11 11 8 6 7 7 7
16 16 17 18 19 22 24 22 20 20 19 17 16 16 16 15 13 12 11 10 10 9 8 7 7 7 7 6 7 7 7 8 8 8 9 9 10 8 7 6 6 6
17 17 20 22 22 23 25 24 23 21 18 17 17 17 16 15 12 11 10 9 9 9 8 7 6 6 6 6 6 6 6 7 7 8 9 9 9 9 8 7 7 7
18 20 23 25 24 24 26 25 24 22 20 19 19 18 17 14 12 10 10 9 9 8 8 7 5 5 5 5 5 6 6 6 6 7 7 8 8 9 9 8 8 8
22 24 26 26 24 24 25 26 26 25 23 22 21 19 17 15 13 11 10 9 9 8 8 6 5 4 4 5 5 5 5 6 6 6 6 7 7 8 9 9 9 9
22 23 25 25 24 22 22 24 24 25 25 23 21 19 17 16 14 13 11 10 9 8 7 5 5 5 5 5 5 5 5 5 5 6 6 7 7 7 8 9 9 10
18 19 21 22 21 20 20 22 23 24 24 23 21 19 18 16 15 14 12 11 10 9 7 5 5 5 6 6 6 5 5 5 5 6 6 7 7 7 8 8 8 10
15 18 20 20 19 18 18 19 21 23 23 23 21 19 18 17 16 15 13 13 12 9 7 6 5 5 6 6 6 5 5 5 6 7 7 7 8 7 8 8 9 9
18 19 19 19 18 17 17 18 20 21 22 22 21 19 18 18 17 16 15 14 13 10 8 7 6 6 6 6 6 6 6 7 7 8 7 7 8 8 8 9 9 10
21 20 18 18 18 17 18 18 19 20 21 22 22 20 19 19 18 17 17 16 14 12 9 8 8 8 8 8 8 8 8 8 8 9 8 8 8 8 8 9 9 10
23 21 20 21 21 20 19 19 19 20 20 21 22 22 21 20 19 19 19 18 16 14 11 10 10 10 10 10 10 10 10 10 10 11 11 10 10 10 10 10 10 11
25 24 24 24 24 23 22 20 19 19 19 20 22 23 22 21 21 20 20 19 17 15 13 12 11 10 11 11 11 11 11 11 11 12 12 13 12 12 11 11 12 13
26 27 27 26 26 26 24 23 22 20 19 19 22 23 23 23 22 21 21 20 19 16 14 14 13 12 13 13 13 13 13 12 12 13 14 14 14 13 13 13 14 15
28 29 28 27 27 27 26 26 26 24 23 22 23 23 23 24 24 23 23 23 21 19 17 16 16 15 16 16 15 15 15 14 14 14 15 16 17 16 16 16 17 18
25 26 26 26 27 27 28 29 29 28 27 27 27 25 24 24 25 23 22 23 22 19 18 18 19 19 19 18 18 18 18 17 17 17 17 18 18 18 18 19 19 21
19 21 22 23 22 23 25 26 27 28 28 28 28 27 25 24 25 24 22 23 23 20 18 19 20 21 21 20 20 20 20 20 20 20 19 19 20 20 20 20 20 20
16 17 17 16 15 16 18 18 19 22 25 25 26 29 30 28 28 27 25 23 22 21 20 19 20 21 22 21 21 21 22 22 22 21 21 22 22 22 22 22 22 22
12 12 12 11 10 11 12 13 15 19 21 21 22 26 31 31 31 30 30 29 26 24 23 21 20 21 21 21 21 22 22 23 23 23 24 24 24 24 24 25 26 26
11 10 10 10 9 8 8 9 12 16 18 18 18 20 24 28 31 33 35 34 31 29 27 25 22 22 22 22 22 22 23 24 25 25 26 26 26 26 25 26 27 27
10 10 9 9 9 8 7 7 7 10 12 13 12 14 17 21 26 32 36 35 32 30 29 27 25 25 25 24 23 23 25 26 26 27 27 28 28 28 27 27 28 28
11 10 8 8 9 8 6 5 5 6 8 10 10 10 12 15 19 24 28 30 29 29 29 27 25 26 25 23 23 24 25 26 27 28 28 28 29 28 28 29 30 29
12 10 9 9 10 9 8 7 6 5 6 8 8 6 8 10 13 15 16 16 17 20 22 21 20 22 23 21 21 22 24 25 26 27 27 27 27 28 28 29 29 28

ECMWFNIL_700_spd_084.txt.gz
Wind_Speed
16 16 15 15 16 16 15 15 15 15 16 17 17 16 15 14 13 13 13 12 12 12 11 11 11 10 10 10 9 8 7 7 7 7 6 6 6 5 5 5 6 6
16 14 14 15 15 14 14 16 17 17 17 17 18 17 15 14 13 12 12 11 11 10 10 9 9 9 9 9 9 9 8 9 8 8 8 7 6 5 5 5 5 5
15 13 13 14 14 13 14 16 19 19 18 18 19 17 15 14 12 12 12 10 10 9 8 8 7 7 8 7 8 9 8 9 9 9 9 8 7 7 5 5 5 5
14 13 13 13 14 14 15 18 21 21 20 20 19 16 14 12 11 11 11 10 10 9 8 8 7 6 7 6 7 8 7 7 9 9 8 8 8 7 6 6 5 6
14 13 12 12 14 15 17 20 22 22 22 20 17 14 12 11 11 10 10 10 10 9 8 7 6 6 6 5 5 5 5 5 7 7 7 8 8 7 6 6 6 6
12 11 11 11 12 14 17 20 22 22 21 19 16 14 12 12 11 11 11 11 10 9 8 7 6 6 5 3 3 3 3 3 4 5 5 6 8 8 6 5 5 7
11 9 9 11 12 14 18 21 22 21 21 19 16 14 13 13 13 12 12 12 10 9 8 7 6 5 4 4 3 2 2 2 3 3 3 4 6 7 6 6 6 7
10 9 10 11 13 17 21 23 22 22 21 19 17 15 14 15 15 14 14 12 10 9 8 7 7 6 5 4 4 3 3 2 2 2 1 2 4 5 5 5 6 7
9 10 12 14 17 22 24 24 23 22 19 18 18 16 15 16 16 16 14 12 10 9 8 7 7 6 6 5 5 5 4 3 3 2 2 2 3 3 4 4 5 6
11 11 14 17 21 24 24 23 23 21 19 19 19 16 16 18 17 16 14 11 10 10 9 7 7 6 6 6 6 5 5 4 3 2 2 2 2 2 2 3 4 6
11 12 16 19 22 24 24 24 25 23 20 20 19 17 17 18 19 16 14 12 11 11 9 7 6 6 7 7 6 5 5 4 3 3 2 2 1 1 2 2 4 5
11 13 17 20 22 25 25 25 26 25 23 22 20 19 19 20 20 17 14 13 13 12 10 8 6 6 7 7 6 6 5 4 3 3 2 1 1 1 1 2 4 4
13 14 17 20 22 25 25 24 25 25 25 23 22 21 21 21 20 18 16 15 14 13 11 8 7 7 7 8 7 6 5 5 4 3 2 2 2 2 2 3 4 4
15 16 17 19 21 24 24 23 23 25 26 25 23 23 23 22 21 19 18 17 15 14 12 10 8 8 8 8 8 7 6 5 4 4 3 4 4 3 4 5 5 5
17 18 19 20 20 22 24 22 20 22 24 25 24 24 23 23 22 20 20 19 17 16 14 12 10 8 8 8 7 7 7 6 5 5 4 4 4 5 6 6 7 7
19 19 20 21 20 21 22 21 20 21 22 23 23 23 23 23 22 21 21 20 19 17 16 14 11 9 9 8 8 7 6 6 6 6 6 6 6 7 8 8 9 9
21 21 22 22 21 21 22 22 21 21 20 20 22 22 23 23 23 22 22 22 20 20 18 15 12 11 10 9 9 8 7 7 7 7 7 8 8 9 9 10 11 11
22 23 23 23 23 22 22 22 21 21 21 20 21 22 23 23 23 23 23 23 23 23 20 16 14 13 11 10 10 10 9 10 9 9 8 9 11 11 11 11 11 11
21 22 23 23 24 24 24 23 22 21 20 20 20 20 21 23 24 24 25 24 25 25 22 17 15 15 13 12 12 12 12 12 12 11 11 11 13 13 12 13 11 10
19 20 21 22 23 24 24 25 26 25 22 20 20 20 20 21 23 24 25 26 27 26 23 19 18 18 17 16 15 14 14 14 15 14 13 13 14 14 14 15 13 11
16 17 20 22 22 22 23 24 25 24 24 24 23 22 21 22 23 24 24 25 26 25 23 21 21 20 19 18 16 16 16 16 16 16 16 17 17 17 16 17 18 17
12 14 17 20 21 21 20 20 18 18 21 22 23 23 23 24 25 27 27 28 27 25 22 21 22 21 20 19 17 17 17 17 17 18 18 19 19 19 20 21 21 20
8 10 13 16 16 15 14 14 14 14 14 14 15 18 19 20 22 25 28 30 30 28 24 24 24 23 22 21 20 18 18 18 19 20 20 20 20 21 22 23 23 23
8 8 10 12 12 11 10 10 11 11 11 11 12 14 13 13 15 18 23 28 30 30 29 29 28 27 25 24 23 21 21 21 22 22 21 21 22 23 24 25 25 26
15 12 10 10 10 9 8 8 8 9 10 12 13 12 10 10 10 12 16 22 25 28 30 30 29 29 28 27 25 23 23 23 23 22 20 20 22 24 26 26 26 27
14 14 12 11 10 10 9 8 9 9 8 9 10 9 9 9 8 9 11 14 17 20 25 28 29 30 30 27 25 24 23 22 20 18 18 19 21 23 24 26 26 26

ECMWFNIL_700_spd_087.txt.gz
Wind_Speed
13 10 13 14 14 15 15 15 16 16 15 15 16 16 18 19 18 18 18 17 14 12 12 12 12 12 12 11 9 9 9 9 9 8 7 8 8 8 9 10 9 9
12 10 13 14 14 15 16 17 17 17 16 16 17 17 18 19 18 17 16 14 13 13 12 12 12 12 12 11 9 9 9 8 8 7 7 7 7 8 8 8 8 8
10 10 11 13 14 15 15 17 17 17 16 16 17 18 18 17 16 15 14 13 13 13 12 12 12 11 10 10 10 10 9 8 8 8 7 7 7 7 6 6 7 8
8 10 11 13 15 16 16 17 18 18 17 17 17 18 17 16 16 15 13 13 13 12 11 11 10 10 9 10 10 10 9 9 8 8 7 7 7 7 6 6 7 7
11 12 14 14 16 17 17 18 19 18 17 18 18 17 16 16 16 14 13 13 12 11 10 9 9 9 8 9 9 9 9 8 8 8 8 7 7 6 6 6 6 6
14 14 15 16 17 18 18 19 20 19 19 19 18 16 16 16 15 14 13 13 12 10 9 9 9 7 7 8 8 8 7 6 7 9 8 8 8 7 6 6 5 5
14 15 16 16 17 19 20 20 21 21 21 21 18 16 17 16 14 14 13 12 12 10 10 9 8 7 7 7 7 7 7 6 6 7 7 8 9 8 7 6 5 6
15 16 17 17 18 19 20 22 23 23 23 22 19 17 17 16 15 15 14 12 11 10 10 9 8 7 7 7 7 7 7 6 6 6 6 7 8 8 7 5 5 5
14 16 17 17 18 19 20 22 23 24 25 23 19 18 19 17 16 16 14 13 11 10 9 9 8 8 8 7 7 7 6 6 7 7 7 7 7 6 6 5 4 5
15 16 17 16 18 19 20 22 24 25 26 23 20 20 19 17 16 16 15 14 12 11 10 10 9 8 8 8 7 7 7 7 7 7 7 7 6 6 6 5 4 5
16 16 16 17 19 20 22 25 27 26 24 23 22 22 19 16 17 17 16 15 14 13 12 11 10 9 8 8 8 8 8 8 7 7 7 7 7 6 6 5 5 4
17 17 17 17 20 23 24 26 27 25 23 23 22 21 18 17 18 18 17 17 15 15 14 12 11 10 9 9 9 9 9 9 8 8 7 7 7 7 7 6 5 5
18 18 18 18 21 24 25 26 26 25 22 21 20 19 17 17 19 19 18 17 16 16 15 12 11 11 10 10 10 10 10 10 9 9 8 8 8 8 8 8 7 7
20 20 20 21 21 24 25 25 26 25 22 20 19 17 15 15 17 18 17 17 17 17 15 12 11 11 11 11 11 11 11 11 10 9 9 9 8 9 9 8 8 8
22 23 24 23 22 22 22 23 24 23 21 20 18 16 14 14 16 18 18 18 18 17 15 13 11 11 11 12 12 12 12 11 10 10 9 9 9 9 8 7 7 6
23 24 23 23 23 21 19 20 21 21 20 19 17 16 15 15 18 19 19 19 19 18 17 14 13 12 12 12 12 12 11 10 9 9 8 7 6 5 5 5 5 5
22 22 22 22 23 22 21 20 20 19 19 19 19 18 17 17 19 20 21 21 20 19 18 16 15 14 13 13 13 12 11 10 9 8 7 5 4 4 4 5 6 6
20 21 22 22 22 22 23 23 22 19 17 17 18 19 19 19 21 23 24 23 21 21 20 18 16 15 15 14 14 14 12 11 9 8 6 5 4 4 5 5 6 6
21 21 22 22 23 22 22 23 22 19 17 17 17 18 19 21 22 23 24 24 23 22 22 21 19 18 17 16 15 15 14 13 12 10 8 7 6 6 6 6 6 6
21 23 22 22 23 24 23 22 21 20 19 18 17 17 19 20 21 22 23 23 23 23 23 23 22 20 19 18 17 16 15 14 13 13 11 10 10 10 10 9 8 8
17 22 25 24 24 25 24 23 23 22 21 19 18 19 19 18 18 18 20 21 22 23 24 24 23 21 20 19 18 17 16 16 16 15 14 13 13 13 13 12 11 11
13 18 21 23 24 25 25 25 25 24 22 22 21 20 20 20 19 17 17 18 18 19 21 21 21 21 21 21 20 19 18 17 16 14 14 14 15 16 16 15 15 14
15 17 18 18 20 21 21 23 24 24 24 26 26 25 24 24 23 22 21 21 20 19 19 19 19 20 21 22 22 21 20 19 17 15 14 15 16 17 18 18 18 17
11 13 14 17 18 18 18 19 18 17 18 20 22 23 23 23 22 21 20 20 22 23 23 23 22 22 22 22 23 24 23 21 19 18 18 19 20 20 20 20 20 19
9 7 7 11 14 14 15 15 14 13 11 12 13 14 15 16 15 14 14 14 16 19 22 24 25 25 25 24 24 24 23 22 21 22 22 22 22 22 20 19 19 19
14 14 12 12 13 13 12 12 13 13 13 12 12 11 10 10 10 10 11 12 13 15 18 21 23 24 26 26 25 24 24 25 25 25 23 22 22 22 19 17 17 18

ECMWFNIL_700_spd_090.txt.gz
Wind_Speed
9 8 8 11 16 18 17 16 15 15 16 16 16 16 16 17 17 17 17 15 14 14 13 13 13 14 14 14 14 13 12 12 12 12 11 11 11 10 11 12 13 13
10 10 8 10 14 18 18 16 16 17 17 17 16 15 16 17 17 17 16 15 14 14 14 14 15 15 14 13 12 11 11 11 11 11 11 10 11 11 10 11 12 12
12 12 11 10 12 17 18 18 19 19 19 18 17 16 16 17 17 17 16 15 15 14 15 15 15 15 13 12 11 11 11 11 11 11 10 10 11 11 10 10 11 12
13 13 13 12 14 17 20 20 20 21 21 19 17 16 17 17 18 17 17 16 16 16 16 15 15 14 13 12 12 12 12 12 11 10 10 10 10 10 10 11 11 12
13 15 16 15 16 19 21 21 21 21 22 20 18 18 18 17 17 17 17 16 17 17 17 15 14 14 13 13 12 12 12 11 11 10 10 9 9 9 10 11 11 11
14 17 17 16 18 20 22 23 22 22 22 21 18 18 18 17 16 17 17 17 17 16 15 14 13 13 13 13 13 13 12 11 11 11 10 10 9 10 10 10 10 10
15 18 17 17 19 20 22 23 23 24 25 23 21 20 18 17 16 17 17 16 16 14 14 13 12 12 13 13 12 12 12 11 11 11 10 10 10 10 10 9 9 9
17 20 20 19 21 20 21 23 23 24 25 23 23 22 19 17 18 18 17 16 15 15 15 14 13 13 13 12 11 11 11 11 10 11 11 10 11 10 9 8 8 9
18 21 22 22 21 20 21 21 22 23 22 20 21 21 20 19 20 20 19 17 16 16 16 15 15 15 14 13 12 12 11 10 10 11 12 11 11 11 9 8 8 9
20 22 23 21 20 20 20 21 24 24 20 18 19 18 18 19 21 21 19 18 18 17 15 15 15 15 14 13 12 11 11 11 12 12 12 12 12 12 11 9 9 10
24 24 21 19 20 21 21 22 23 22 19 19 19 17 17 19 20 20 19 19 18 16 15 14 14 13 12 12 11 12 13 14 14 13 13 14 14 14 13 11 10 10
25 23 20 20 21 20 20 20 19 18 19 20 20 18 18 19 20 19 19 19 18 17 15 14 13 13 12 12 13 14 15 15 15 14 13 14 14 14 13 12 11 10
23 22 20 20 21 19 19 20 19 19 20 20 20 19 19 20 19 19 19 19 18 18 17 16 15 14 13 13 14 15 15 14 14 14 14 14 13 13 13 12 11 9
23 22 21 21 21 20 20 21 21 21 21 20 20 19 20 20 19 19 19 19 19 19 18 17 16 15 14 14 14 15 14 13 13 13 14 13 12 11 10 9 9 8
23 22 22 23 22 21 22 22 23 21 20 19 19 19 20 20 20 20 19 19 20 20 19 18 17 16 15 15 15 14 13 12 12 11 11 11 10 8 7 7 7 6
22 21 22 23 21 22 23 24 24 21 19 18 18 19 20 20 21 21 20 20 21 21 20 19 17 16 16 15 14 13 12 12 11 10 10 9 8 8 7 7 7 7
22 21 21 21 19 20 22 24 23 21 20 19 19 19 20 20 20 20 20 21 21 21 21 19 18 17 16 15 15 14 13 12 11 10 9 9 9 8 9 8 8 9
22 21 20 19 20 21 23 24 23 22 22 21 19 19 19 19 18 18 19 21 21 21 21 20 19 18 17 16 16 15 14 13 12 11 10 10 9 9 8 7 7 8
18 20 20 20 21 23 23 22 21 21 22 21 20 19 18 17 17 17 18 20 21 21 22 22 21 19 18 18 18 17 15 14 13 12 11 11 10 9 8 7 6 6
17 20 22 22 22 22 22 22 20 20 20 19 18 18 17 17 17 17 18 19 20 21 22 22 22 21 20 20 19 18 18 17 16 15 14 13 12 11 10 9 7 6
17 19 21 21 21 21 22 22 23 22 20 18 18 17 17 17 17 17 18 20 20 20 21 21 21 21 21 21 20 19 18 18 19 18 18 17 15 14 13 12 10 9
14 17 19 20 20 21 22 24 25 24 21 19 18 18 18 17 17 17 18 20 21 21 21 21 22 22 21 21 21 20 19 19 19 20 20 19 18 16 14 13 13 13
13 15 19 21 22 22 22 23 24 24 23 20 19 19 19 19 19 19 18 18 19 19 19 20 20 20 20 20 21 21 21 22 21 21 22 21 20 18 17 16 17 17
15 14 16 20 21 22 23 24 24 24 23 22 21 20 20 20 19 20 20 19 19 19 18 17 17 17 18 19 19 20 22 23 24 23 22 21 21 21 20 20 20 21
14 16 18 19 20 21 23 25 25 24 22 22 22 22 23 23 23 23 24 23 23 22 21 20 19 19 19 20 20 21 23 25 27 26 24 23 24 24 23 23 23 25
10 15 18 21 22 20 18 21 23 21 20 21 23 25 26 27 26 26 26 24 25 26 26 26 25 25 25 25 25 25 26 27 28 27 26 26 27 26 25 25 25 25

ECMWFNIL_700_spd_093.txt.gz
Wind_Speed
13 13 15 15 15 16 16 17 19 21 20 18 17 17 18 19 20 19 18 18 17 17 17 16 14 13 13 13 12 12 12 13 13 13 12 12 12 12 12 13 14 14
15 16 18 16 16 17 17 17 19 21 21 20 19 20 20 21 20 19 19 18 16 16 16 15 14 14 13 13 12 12 13 13 13 13 12 12 12 11 12 13 13 14
17 19 19 17 16 17 18 20 20 22 22 22 22 22 21 21 20 20 19 17 16 16 16 16 15 15 14 13 13 13 13 13 13 13 12 12 13 13 13 13 13 14
21 21 20 20 19 18 20 22 22 23 23 23 24 23 21 20 20 19 19 18 18 17 17 16 16 16 14 14 14 14 13 13 13 13 13 13 13 13 13 12 13 13
25 24 22 23 23 22 22 23 24 24 24 25 25 23 21 20 19 19 19 19 19 18 17 17 15 14 14 14 14 13 13 13 12 13 13 12 13 12 12 12 12 12
26 24 23 24 25 25 24 25 26 27 27 28 27 24 21 19 19 19 20 20 19 19 17 16 14 13 14 14 13 13 13 12 12 12 12 12 12 11 11 11 11 10
26 25 23 24 26 27 26 27 28 28 26 26 25 24 22 21 20 20 20 20 19 18 17 16 14 14 14 14 13 13 13 13 13 12 12 11 10 10 10 10 9 10
27 26 24 23 26 28 28 29 27 24 23 23 22 22 23 23 22 21 20 20 19 18 16 16 16 15 14 14 14 13 13 13 12 12 11 10 10 10 10 8 9 10
24 23 21 23 26 29 30 28 24 21 22 22 21 20 21 22 21 20 19 18 17 17 17 16 16 16 15 15 14 13 12 12 12 11 11 11 10 11 10 9 9 11
20 19 19 23 28 30 28 24 20 20 22 22 21 20 20 21 20 20 19 17 16 16 16 16 17 17 16 15 14 13 12 12 12 12 12 11 11 12 11 10 9 9
18 17 19 24 27 27 24 20 20 22 22 22 20 20 21 22 22 21 20 18 16 16 16 17 18 17 16 14 13 12 12 13 13 13 12 12 12 13 12 10 8 7
17 16 18 23 26 24 21 20 21 22 21 21 22 23 23 23 23 22 20 19 18 17 17 18 19 18 16 14 12 12 13 13 13 12 12 13 13 13 12 11 9 9
18 17 18 22 24 21 20 21 22 22 22 23 24 25 24 23 24 23 21 21 20 18 19 20 19 17 15 13 12 12 12 11 10 11 12 13 13 12 12 12 11 10
19 18 19 21 22 19 19 20 20 21 22 23 24 25 24 24 24 24 22 22 21 21 21 21 19 16 13 12 12 11 11 10 10 11 11 12 12 11 11 12 11 10
20 19 18 20 20 19 18 17 17 18 19 20 24 24 23 23 24 23 23 23 23 23 22 20 17 15 14 13 12 11 11 11 11 11 11 11 11 10 11 11 11 10
20 18 18 19 20 19 18 17 17 18 17 20 24 24 22 22 23 23 23 24 25 25 22 20 18 16 16 15 13 11 11 12 12 12 12 11 10 10 10 10 10 9
16 16 17 19 19 18 17 17 19 19 18 19 22 23 21 21 22 22 23 24 25 25 23 21 19 17 16 15 13 12 13 13 14 14 13 12 11 11 11 10 10 9
13 13 17 20 19 17 16 17 19 20 20 19 20 21 20 20 21 22 22 22 23 24 23 21 19 18 16 15 14 15 15 15 15 15 14 14 13 12 11 11 10 9
12 13 16 18 18 17 17 18 20 21 21 20 21 21 20 20 21 21 20 20 22 23 23 21 20 18 17 15 16 16 16 16 16 15 15 15 14 14 14 13 11 10
10 14 16 16 16 17 17 18 22 23 22 20 19 19 19 20 20 19 20 21 23 23 22 21 20 18 16 15 16 17 17 17 16 16 16 16 16 16 15 14 12 11
7 12 15 15 15 15 16 20 23 23 22 20 18 18 19 19 19 20 21 22 23 23 22 21 20 19 17 16 18 18 19 18 17 17 16 17 16 15 15 14 13 12
5 8 10 14 16 16 17 21 23 22 21 20 19 19 20 20 20 22 22 23 23 22 21 21 21 20 19 19 20 20 20 19 19 18 17 18 17 16 16 16 16 15
5 7 7 11 17 19 19 21 23 23 22 22 21 21 21 22 23 23 22 22 22 20 19 19 19 20 20 21 21 21 20 20 21 20 20 19 18 18 18 17 17 18
5 7 8 9 13 16 19 22 23 23 24 24 24 24 23 23 24 23 23 23 23 22 20 18 18 18 19 20 20 20 20 21 21 20 20 20 21 21 21 20 20 20
6 8 10 10 12 14 17 20 20 21 25 26 24 24 24 24 24 24 24 25 26 25 23 21 19 19 19 19 19 19 20 22 21 19 18 19 21 22 22 22 23 24
4 7 10 10 13 14 15 17 19 23 27 28 26 25 25 25 25 25 25 26 26 25 24 23 22 21 20 20 20 20 21 22 22 22 22 21 20 20 20 22 24 26

ECMWFNIL_700_spd_096.txt.gz
Wind_Speed
26 24 21 21 21 21 21 21 19 17 15 15 14 14 14 14 15 15 15 16 16 16 15 15 14 14 14 13 13 13 13 14 15 15 15 15 15 14 13 13 13 13
29 26 24 24 23 23 23 21 20 19 17 16 16 16 16 16 16 16 17 17 16 15 15 14 14 14 13 13 12 12 12 13 14 14 14 15 14 13 13 13 13 13
31 27 27 26 23 23 24 22 21 20 19 19 19 19 18 16 16 17 17 17 16 15 14 14 15 14 13 13 13 13 13 13 14 14 14 13 12 12 12 12 12 12
32 29 28 26 23 25 26 23 21 22 23 22 21 20 18 17 16 17 17 17 15 14 14 15 15 14 14 14 14 14 14 13 13 13 13 13 12 11 12 12 12 12
34 30 29 27 25 26 27 25 23 24 23 20 18 17 17 16 16 16 17 17 16 15 15 16 17 16 16 15 14 14 13 12 12 12 12 12 11 11 11 11 11 12
35 32 30 29 26 25 27 26 23 20 19 18 17 18 18 16 16 17 18 18 17 17 17 18 18 17 16 15 14 13 12 12 12 11 11 11 11 11 11 11 11 11
34 32 29 26 23 25 26 22 18 17 18 20 20 18 18 17 18 18 19 19 19 18 18 18 18 17 15 14 14 13 13 13 13 12 11 11 12 12 12 12 12 11
24 26 25 23 24 27 23 17 17 19 18 20 20 19 19 19 20 19 19 19 20 19 19 18 17 16 14 14 14 14 14 14 13 12 12 12 12 12 12 13 12 11
12 17 21 23 24 25 20 16 19 20 19 21 21 21 21 22 21 20 19 19 20 20 19 18 16 15 15 14 14 14 15 14 13 12 12 12 12 12 13 12 11 11
11 16 19 21 22 21 18 18 20 19 20 22 23 23 23 23 22 21 19 18 20 20 19 17 16 15 14 14 14 15 15 14 13 12 11 12 12 13 13 12 11 10
13 17 18 19 18 17 18 19 19 20 21 22 23 24 24 23 23 22 20 20 20 20 19 17 15 14 14 14 14 14 14 14 14 13 12 12 12 13 12 11 10 9
15 17 17 16 16 16 17 18 18 20 22 23 24 24 25 25 24 23 22 21 20 20 18 16 15 15 15 15 15 14 13 14 14 13 12 12 13 13 12 12 11 9
18 18 16 16 17 17 17 16 18 21 23 24 25 25 26 26 26 24 23 23 21 20 18 17 17 17 17 17 15 14 13 13 13 12 12 12 13 13 12 12 11 10
19 19 18 18 18 17 17 17 18 21 24 24 24 25 25 26 27 26 26 26 24 20 19 18 18 19 18 17 15 13 13 12 11 10 10 11 12 12 12 11 11 10
18 18 18 19 18 17 17 17 18 21 23 23 23 24 24 25 28 27 27 29 25 21 19 19 19 19 18 16 15 14 13 11 9 8 9 10 10 10 10 11 11 11
16 15 15 17 16 16 18 18 17 20 22 22 23 24 24 25 27 27 28 29 25 21 20 20 21 20 19 17 16 15 12 10 9 9 9 9 9 10 10 11 11 11
12 12 12 13 14 15 17 17 17 18 20 21 23 24 24 26 27 28 30 28 24 22 22 22 22 20 19 18 17 15 12 10 10 9 9 10 11 11 11 11 11 11
8 9 9 10 11 13 15 16 17 18 18 20 23 24 24 26 28 29 29 26 23 23 23 23 23 22 20 19 17 15 13 12 12 11 11 12 12 13 12 12 12 12
5 6 8 7 9 12 14 15 16 17 17 18 21 23 25 27 27 27 26 24 23 24 24 25 24 23 21 20 18 16 15 14 14 14 14 14 14 14 13 13 13 13
5 6 8 8 10 11 11 13 14 16 17 18 21 25 25 25 25 25 24 23 23 24 25 26 25 22 21 20 18 16 16 16 16 16 17 16 16 15 14 14 13 12
6 5 7 7 10 12 12 13 14 15 18 20 23 26 26 24 24 24 23 23 24 24 25 26 24 22 21 20 19 18 18 18 18 18 18 18 17 16 14 13 12 12
6 5 6 6 8 12 13 13 15 17 20 22 25 25 25 24 23 23 22 22 23 23 24 25 24 23 22 21 20 19 18 18 18 19 19 18 17 16 15 14 14 13
6 5 5 7 6 8 10 10 13 17 20 21 22 22 23 23 22 21 22 22 21 21 22 23 23 24 23 22 20 19 18 18 18 19 19 19 18 18 17 17 16 16
5 3 4 8 7 3 9 11 13 14 17 21 21 19 20 21 20 20 21 20 20 21 22 23 24 24 23 22 21 20 18 18 19 19 20 20 19 19 18 18 19 18
4 3 3 6 9 6 5 12 16 17 19 21 22 21 20 20 19 20 21 20 21 21 22 23 23 23 22 21 20 20 18 17 18 19 21 21 21 21 20 20 20 19
6 5 5 4 5 6 5 6 13 17 20 21 21 21 22 20 19 21 22 22 22 22 22 22 21 21 20 20 19 18 17 17 18 20 21 21 20 22 23 22 20 19

ECMWFNIL_700_spd_099.txt.gz
Wind_Speed
31 32 32 31 30 28 28 27 25 23 22 20 18 18 17 15 15 15 15 15 16 16 16 15 16 18 17 17 17 17 16 15 14 13 13 13 13 13 12 12 11 11
34 34 34 34 34 32 29 27 24 21 21 21 20 19 18 17 16 16 16 17 16 15 15 15 17 18 17 17 17 17 17 16 15 14 14 14 13 12 12 12 11 12
34 35 36 36 36 35 32 26 22 21 20 19 18 17 17 17 16 17 17 17 17 16 15 16 17 17 17 18 18 18 17 16 16 15 15 14 12 11 12 12 12 13
31 34 36 36 35 37 35 28 21 19 17 15 16 17 17 17 17 18 19 18 18 17 17 17 18 19 19 19 19 18 18 17 16 16 15 14 12 12 12 12 13 13
28 30 32 33 34 35 36 32 23 18 16 14 15 16 16 17 18 18 18 19 19 19 18 19 20 19 20 21 21 19 18 17 16 16 15 14 13 13 14 13 13 13
24 26 28 31 33 33 34 30 21 16 16 15 15 14 14 16 18 18 18 20 21 21 20 20 20 19 19 21 21 20 19 17 16 15 15 14 14 14 14 14 13 13
20 22 25 28 28 28 31 28 19 15 15 15 15 15 14 16 17 18 19 21 22 22 21 20 19 18 18 19 19 18 17 15 15 14 14 14 14 14 14 13 13 13
15 18 21 24 24 26 28 25 18 14 14 15 16 15 14 15 17 18 19 20 20 20 20 19 18 18 17 17 16 15 13 13 14 13 13 13 13 14 13 13 12 13
12 12 14 15 17 22 23 18 14 13 14 16 17 16 16 16 17 18 18 19 19 18 17 17 17 17 16 14 12 12 12 13 14 13 12 13 13 13 13 12 12 12
10 5 5 4 4 10 13 11 13 15 16 18 18 17 17 18 19 20 19 19 19 17 17 17 17 16 15 14 12 12 13 14 14 13 13 14 13 13 13 13 13 12
9 5 5 4 3 4 6 8 12 15 17 18 18 18 19 20 21 22 21 20 19 18 17 18 18 17 16 16 15 15 15 16 15 15 15 14 14 14 14 14 13 13
9 7 7 7 8 8 9 10 12 15 17 18 18 18 20 21 23 23 22 21 20 19 19 18 18 18 18 17 17 16 17 17 17 17 16 15 15 15 15 15 14 13
10 9 10 10 11 11 11 12 13 15 17 18 18 19 21 22 24 24 24 24 24 23 22 21 19 19 19 19 18 17 17 17 17 17 17 16 16 15 15 14 14 13
11 11 11 12 14 14 14 14 15 16 16 17 19 20 22 23 24 25 27 27 26 25 24 21 19 19 19 19 18 17 17 17 17 17 16 16 15 15 15 14 13 13
11 11 11 12 14 15 16 16 17 17 17 17 20 22 23 23 24 25 25 25 24 23 21 20 19 20 20 19 18 17 16 17 16 16 15 15 15 15 14 14 13 13
10 10 11 11 12 14 15 16 17 18 18 18 21 23 23 23 24 23 21 22 23 22 20 19 19 20 20 19 18 17 17 16 15 15 15 14 14 14 14 14 14 14
10 10 9 9 9 11 13 15 16 18 19 19 20 22 22 22 23 20 19 21 24 23 21 19 19 20 20 19 19 18 17 16 15 15 15 14 14 15 15 15 15 15
9 9 8 7 6 9 13 15 16 17 18 18 19 20 20 21 21 20 21 23 25 26 23 20 20 20 20 20 20 19 18 16 16 16 15 15 15 15 15 15 15 15
9 8 9 9 6 7 12 13 14 15 16 16 17 18 18 19 20 21 23 25 27 28 24 21 21 21 21 21 21 19 18 18 17 17 16 15 14 14 15 15 15 15
7 7 8 10 9 6 9 10 11 13 14 14 16 17 17 18 19 21 24 25 27 28 25 22 21 21 22 23 22 20 20 19 18 17 16 15 14 14 15 15 15 15
7 6 6 8 10 7 6 9 9 10 12 14 15 15 16 18 21 23 24 25 26 27 24 22 22 22 23 23 22 21 20 20 19 17 16 15 14 15 15 15 15 15
7 6 6 7 9 10 7 7 10 11 11 12 12 12 15 20 22 22 23 24 25 25 23 22 22 23 24 23 22 22 21 21 20 18 17 16 16 16 16 16 16 17
7 5 5 7 8 10 9 6 9 10 11 12 13 13 16 20 21 21 21 22 23 22 22 22 23 23 23 23 22 22 22 21 21 19 18 17 17 17 18 18 18 18
7 5 5 5 7 9 9 7 6 7 9 12 14 16 18 20 22 22 20 20 21 21 21 22 22 22 22 22 22 22 21 20 20 19 19 19 19 19 19 19 20 20
7 7 5 5 5 7 8 7 6 6 7 11 16 18 18 19 22 22 19 19 19 19 20 20 20 20 20 21 21 20 19 19 18 18 19 20 20 20 20 21 21 21
6 7 6 5 6 7 7 8 8 7 5 9 15 15 12 15 20 21 18 17 16 16 17 18 18 18 18 18 18 17 17 17 17 17 19 19 20 21 22 23 24 24

ECMWFNIL_700_spd_102.txt.gz
Wind_Speed
30 30 30 30 31 34 36 34 31 30 29 27 24 23 21 20 20 20 20 21 22 23 24 23 22 22 22 22 21 21 23 25 25 24 22 20 19 17 16 16 16 16
29 31 32 32 32 34 36 34 32 29 28 26 24 22 21 20 20 21 22 24 24 24 24 24 23 22 22 22 21 22 24 24 23 22 20 19 18 16 15 16 17 16
24 28 31 32 33 35 35 33 32 29 27 26 25 23 22 21 21 21 23 25 25 23 23 22 22 20 20 20 21 22 22 21 20 18 17 17 17 16 15 16 17 15
20 23 27 30 32 34 33 31 30 29 28 27 26 24 22 21 22 22 23 25 26 24 22 21 20 19 19 20 20 20 19 18 17 16 16 17 16 16 15 16 16 15
21 23 25 27 28 30 31 29 29 29 28 26 25 25 23 20 20 21 23 25 26 24 23 21 20 20 20 20 20 19 18 18 17 16 16 16 16 15 15 15 15 14
22 24 25 24 23 25 26 26 27 28 26 24 23 24 23 19 18 19 22 24 24 23 22 20 20 20 20 20 21 20 18 17 17 16 16 15 15 14 14 14 14 13
23 25 25 20 18 20 23 24 25 25 23 21 20 21 21 19 17 18 20 22 24 23 20 20 21 20 20 20 20 19 17 16 16 16 16 15 15 14 13 13 13 13
22 23 22 16 14 16 20 22 23 23 21 19 19 19 18 18 18 18 19 22 24 24 21 21 21 20 20 21 20 20 19 17 16 17 18 17 16 14 14 14 14 14
19 20 18 12 11 13 15 17 20 21 20 20 20 19 18 18 18 18 19 21 23 25 24 22 21 21 21 21 20 21 20 19 19 20 21 19 17 15 15 15 15 15
16 16 15 12 11 10 9 14 18 18 19 20 21 19 19 20 20 19 19 21 23 25 25 23 23 23 23 21 20 21 21 21 22 23 23 21 18 17 16 16 16 16
15 14 13 11 11 9 4 7 13 15 17 20 21 20 21 21 21 20 20 21 23 25 25 24 25 25 24 22 21 21 22 22 23 24 23 20 18 16 16 16 16 16
15 14 13 12 11 9 4 2 7 12 15 18 19 20 21 22 23 22 22 23 24 25 25 25 26 25 24 23 22 21 22 22 23 24 21 17 16 16 16 17 16 16
16 14 13 12 12 11 8 5 6 10 13 15 17 19 22 23 24 24 26 27 27 26 24 23 23 23 21 20 21 21 23 23 23 22 18 15 16 17 17 17 16 16
16 14 12 12 12 12 11 10 11 12 14 15 16 19 22 23 23 25 27 27 24 22 22 21 21 20 19 19 20 22 23 21 19 18 16 16 17 17 17 16 16 16
15 13 11 11 11 12 13 14 15 16 17 18 18 19 21 22 23 25 25 24 23 22 22 22 21 21 21 20 19 18 16 15 14 16 16 17 17 17 17 16 16 16
14 13 11 10 10 12 13 15 18 19 20 20 20 21 21 22 23 23 23 24 25 25 24 22 22 23 23 21 17 14 12 12 14 16 16 17 18 17 17 17 16 16
14 12 10 8 8 10 12 15 17 19 20 20 21 21 21 21 22 22 22 24 25 26 24 21 22 24 24 22 18 15 14 15 15 16 17 17 18 17 17 17 17 17
13 11 10 9 8 9 10 13 16 17 17 17 18 20 19 18 19 20 22 23 23 24 23 22 23 23 22 21 19 17 17 17 17 17 17 17 18 17 17 17 18 19
12 10 9 9 10 10 9 10 14 15 15 14 15 17 17 18 18 18 20 21 21 22 23 24 25 24 22 20 18 18 18 18 18 19 19 18 18 18 18 18 19 19
12 10 9 9 10 10 9 9 10 12 12 13 14 15 16 17 17 17 18 18 19 21 23 24 24 24 22 19 17 18 19 19 18 18 18 17 18 19 19 20 20 20
12 11 10 9 10 10 10 8 8 9 10 11 12 13 14 14 13 15 15 15 17 21 22 22 22 20 19 17 17 18 20 20 19 18 17 17 17 18 18 19 20 20
12 11 11 10 10 11 11 9 7 8 10 10 10 11 12 11 11 15 17 18 20 21 20 21 21 20 19 17 17 19 19 19 19 19 18 18 18 18 19 19 20 21
12 11 10 11 11 10 10 9 5 5 8 10 10 8 8 10 14 18 19 19 20 21 20 20 19 20 21 18 18 20 20 18 20 22 21 21 20 19 19 20 20 21
12 11 10 10 9 8 8 8 6 4 6 7 8 6 6 11 18 20 17 15 16 17 20 22 20 19 20 19 19 21 21 20 22 22 21 21 21 20 20 20 21 21
11 11 10 8 6 5 5 7 7 6 6 4 6 9 9 12 15 17 16 16 15 14 16 20 19 16 17 19 20 21 21 21 21 20 19 19 20 21 21 21 22 22
8 9 9 6 4 4 4 6 8 8 8 5 3 8 11 11 11 14 16 16 14 13 15 17 17 15 16 18 20 21 20 21 21 20 20 21 20 21 22 21 22 23

ECMWFNIL_700_spd_105.txt.gz
Wind_Speed
27 28 29 29 30 32 32 32 31 31 31 31 31 29 28 26 24 23 22 20 22 23 20 19 20 20 21 23 22 20 20 20 19 21 22 22 22 21 18 18 19 18
25 26 26 27 27 28 29 30 31 31 31 31 31 29 29 26 23 23 21 20 23 23 20 19 20 20 20 22 23 21 20 20 18 19 20 20 20 18 17 20 20 18
23 23 25 26 26 28 29 30 32 32 32 32 30 31 31 27 23 22 20 20 23 23 21 19 20 20 20 21 22 21 20 19 18 19 20 20 20 18 18 21 20 18
23 24 26 27 28 30 30 32 33 33 33 33 31 31 32 29 25 22 21 22 23 24 22 20 20 20 20 21 22 21 20 20 19 19 20 20 20 19 20 21 20 20
24 25 26 28 30 31 31 33 34 34 33 32 31 31 32 30 25 22 21 20 22 24 23 20 20 20 20 21 22 22 21 20 20 20 21 20 20 21 21 20 20 20
23 25 26 28 29 30 31 33 32 32 32 31 30 30 30 29 25 22 22 21 22 24 22 20 19 20 20 20 22 22 20 20 21 22 21 21 21 21 20 20 21 20
22 25 26 26 27 28 30 31 28 28 28 28 28 29 29 26 23 22 23 22 23 23 21 19 18 20 21 20 20 21 21 21 23 23 21 20 21 21 20 21 21 18
22 24 25 24 25 27 28 29 26 24 24 25 26 26 26 24 21 21 22 22 23 23 21 20 20 22 22 21 20 21 21 22 23 22 21 20 20 21 20 20 19 16
20 21 23 24 25 26 27 27 26 23 22 24 25 24 23 22 21 21 23 24 24 23 21 20 21 22 21 21 21 22 23 24 24 22 21 20 20 20 21 19 17 15
19 20 22 24 25 25 26 25 25 23 20 23 24 23 23 23 23 24 25 25 24 23 21 20 21 22 22 22 22 23 24 24 24 22 22 21 20 20 19 18 17 17
18 19 20 21 22 23 24 23 23 22 19 19 22 21 23 25 25 25 24 24 24 23 21 21 21 22 22 22 23 24 23 21 21 21 20 18 17 17 15 15 18 17
17 17 18 19 20 21 21 21 21 20 17 17 20 21 23 24 23 23 23 22 20 19 21 21 19 18 19 20 21 20 19 18 19 19 17 16 17 17 15 17 19 18
15 17 17 17 18 19 19 19 19 18 15 14 17 20 22 23 21 20 19 18 17 18 21 19 15 16 17 19 20 19 18 18 17 16 15 16 18 18 18 20 20 18
14 16 16 16 17 17 18 18 18 18 16 15 16 18 20 19 17 16 16 18 19 21 20 16 14 16 17 19 19 19 20 19 17 15 16 18 18 18 20 23 21 19
14 15 15 15 16 16 17 17 17 17 18 19 20 20 19 16 15 15 15 17 20 21 20 17 16 16 17 17 18 19 20 19 18 18 18 18 18 18 20 22 19 17
14 14 14 15 16 16 17 17 17 17 18 20 22 22 20 17 17 16 15 17 19 20 20 19 17 17 16 16 16 16 17 19 20 21 20 19 19 20 20 19 15 15
14 15 15 16 17 17 18 18 17 17 18 19 21 21 21 19 18 17 16 17 18 18 18 18 17 17 16 16 16 16 17 19 20 21 21 20 21 21 19 16 14 14
15 15 16 16 17 18 19 19 18 18 17 18 19 20 19 17 16 16 15 16 17 18 18 17 16 15 16 17 17 15 16 17 18 19 21 21 20 19 17 15 15 15
15 15 16 16 16 18 18 19 20 19 17 17 17 16 15 14 14 15 14 15 17 19 19 19 18 16 17 19 18 16 16 17 17 17 18 17 17 17 16 16 15 15
15 15 15 16 16 17 18 19 20 19 17 16 13 11 12 13 14 14 13 13 15 17 18 19 19 18 18 20 20 19 19 20 17 15 15 15 15 15 15 15 16 15
15 15 15 15 16 17 17 17 18 18 16 13 11 10 11 12 14 14 12 12 13 16 18 19 19 19 19 20 20 19 19 20 18 15 14 15 15 15 16 18 18 17
15 14 14 14 15 15 15 16 16 15 14 11 10 11 12 13 13 11 12 12 12 15 17 19 19 20 20 20 20 18 18 18 17 17 17 16 15 16 17 17 17 16
16 14 13 13 13 13 13 14 14 14 13 11 11 10 10 10 7 6 8 10 12 13 15 16 18 19 21 22 21 19 18 19 18 18 20 19 17 16 16 15 15 16
16 15 13 12 11 11 11 12 13 14 13 12 10 7 5 5 4 4 7 11 13 14 14 13 14 18 20 20 19 17 16 18 18 17 18 19 18 18 18 17 17 19
16 15 13 12 10 10 10 11 11 12 13 12 9 3 2 5 5 6 10 12 12 12 11 11 14 17 18 16 15 14 14 15 17 16 17 19 20 19 18 17 17 19
13 13 12 11 11 10 11 11 10 10 10 9 7 3 2 5 5 6 9 10 9 10 10 12 15 16 15 14 14 13 14 17 17 15 15 17 18 18 19 19 18 18

ECMWFNIL_700_spd_108.txt.gz
Wind_Speed
28 28 27 26 26 26 27 27 28 28 28 29 30 30 31 32 31 31 31 27 23 22 21 20 18 17 16 15 15 15 15 14 14 16 18 19 19 19 18 18 18 18
26 26 25 25 25 26 27 29 30 30 31 31 32 32 33 32 32 33 33 29 23 22 24 22 19 17 17 16 17 17 16 15 14 14 17 19 19 19 19 18 19 19
24 24 24 24 26 27 28 30 31 31 31 31 32 34 36 35 33 33 32 30 27 25 24 22 20 18 17 18 18 18 17 15 14 14 16 18 19 19 19 19 19 18
23 24 25 26 27 27 28 29 30 30 30 30 32 36 37 35 33 31 29 29 27 25 23 22 21 20 19 19 19 19 19 16 16 16 17 19 20 19 18 18 18 18
23 25 26 26 27 28 29 29 29 29 30 31 32 35 35 32 29 28 27 28 26 24 23 24 24 22 20 20 19 19 19 18 17 17 18 19 20 18 17 18 18 17
24 24 24 25 26 27 28 29 29 29 30 30 31 33 32 28 24 24 25 26 25 23 24 25 23 22 22 20 19 18 18 18 17 17 18 19 20 19 18 18 18 17
22 22 23 24 25 26 27 29 29 29 29 30 30 32 30 24 20 21 23 24 23 23 24 24 23 22 22 20 18 17 17 17 16 16 17 17 18 19 18 17 17 17
21 20 21 23 24 24 26 28 29 28 28 29 29 30 28 21 18 19 21 22 22 22 24 23 22 21 20 17 16 16 17 18 17 17 16 15 16 17 16 16 17 17
19 19 20 21 23 24 25 27 27 26 26 27 28 29 27 20 17 18 19 19 20 21 22 20 18 19 18 15 15 17 18 18 17 17 15 14 15 16 16 16 17 17
17 18 18 20 22 22 24 25 26 25 24 25 26 27 26 20 16 16 16 16 17 17 17 16 15 17 18 16 16 17 18 17 16 16 15 15 16 17 16 17 17 17
16 17 17 19 20 21 22 23 23 23 22 22 23 23 22 19 15 16 16 16 15 13 12 12 12 15 16 15 15 15 15 16 15 14 15 16 17 17 17 17 17 18
15 16 16 17 18 19 20 21 21 22 21 20 20 19 18 16 14 13 14 15 15 14 12 11 11 13 13 13 15 14 13 14 15 15 16 17 17 18 18 18 18 20
14 14 15 16 16 17 18 19 20 21 20 19 18 17 16 15 13 12 12 13 14 13 12 12 10 11 11 12 15 14 13 14 15 15 15 16 18 21 20 18 19 20
13 13 14 14 15 16 17 18 19 20 20 19 17 16 17 16 14 13 10 9 10 10 10 11 11 11 11 12 12 12 12 13 13 14 14 15 19 21 20 19 20 19
12 13 13 14 14 15 17 18 19 20 20 19 17 16 17 16 15 13 10 9 9 9 10 11 11 13 14 12 11 11 11 11 12 14 14 16 18 19 19 19 19 18
12 13 14 14 15 16 17 18 19 20 21 20 18 16 16 15 13 13 12 12 11 11 11 11 12 14 15 13 12 11 11 12 12 13 14 15 16 17 18 17 17 17
13 14 15 15 16 17 18 19 20 20 21 21 18 15 15 13 11 11 11 12 11 11 12 11 11 13 13 13 13 11 9 10 11 12 13 13 13 14 15 14 15 18
14 15 16 17 17 17 18 19 20 21 21 21 18 15 14 12 10 9 9 10 10 11 11 10 10 12 13 14 14 12 9 9 9 10 10 10 12 13 14 15 14 15
14 16 17 18 18 18 18 19 20 21 21 21 19 15 13 11 9 9 9 9 9 9 9 9 9 10 12 14 14 13 12 11 11 10 10 11 12 14 15 16 15 15
15 16 17 18 18 18 19 19 19 21 21 21 20 17 14 12 10 10 9 9 8 7 8 10 11 11 12 12 12 13 14 13 13 12 11 11 12 13 15 16 17 18
14 16 17 18 18 18 18 18 19 20 21 21 20 18 16 14 12 11 10 8 6 6 7 9 11 12 13 12 12 14 15 15 15 12 10 10 11 12 14 15 17 18
15 16 16 17 17 17 18 18 19 20 20 21 20 19 16 13 12 12 10 5 5 5 7 8 9 10 12 12 13 15 16 15 15 13 9 9 11 11 13 15 15 16
15 16 16 16 16 16 17 17 18 19 20 20 19 16 14 12 13 13 10 4 3 4 5 6 7 9 11 11 12 14 14 13 15 13 10 9 11 10 11 14 14 13
15 15 15 15 15 15 16 17 18 19 18 17 16 13 11 11 12 13 10 4 2 3 4 4 5 10 11 10 11 13 13 12 13 13 8 6 9 10 10 12 13 14
14 15 15 14 14 14 15 16 18 17 16 15 14 12 9 9 11 11 8 5 5 4 6 5 4 10 10 10 12 14 14 12 11 12 11 7 6 9 7 6 8 12
14 14 14 14 14 14 13 14 15 14 12 13 13 11 10 10 9 9 7 7 7 7 8 7 6 11 9 7 10 12 14 13 6 6 12 11 7 7 8 7 8 9

ECMWFNIL_700_spd_111.txt.gz
Wind_Speed
20 20 20 20 20 20 21 21 21 22 23 24 26 28 29 28 28 27 27 28 29 30 28 26 24 22 21 22 23 22 20 19 18 18 17 15 14 14 13 14 16 17
19 20 20 20 20 22 23 24 24 24 24 26 27 29 30 30 29 29 29 30 32 31 28 26 25 24 22 22 23 22 20 19 19 19 17 17 16 15 14 15 16 17
20 20 20 21 22 23 24 24 24 25 25 26 27 29 30 30 31 31 32 33 31 28 26 25 26 26 24 22 21 21 20 19 18 19 18 18 17 17 16 16 17 18
19 20 20 22 23 23 22 22 22 24 25 26 27 28 29 29 30 32 34 32 26 23 22 21 22 23 22 20 18 18 19 19 19 20 21 19 18 18 18 17 17 18
19 20 21 22 22 21 21 21 22 23 24 25 26 28 28 28 28 30 31 26 19 17 17 15 16 17 18 19 18 19 21 21 22 21 20 20 19 18 18 17 16 17
20 20 20 20 20 20 21 20 21 23 23 24 25 26 27 26 26 28 26 19 14 12 10 10 12 13 15 16 17 20 22 23 22 19 18 19 19 17 16 16 17 17
19 19 18 19 19 19 20 20 21 22 23 24 24 25 25 23 24 25 20 14 10 7 6 7 10 12 13 15 15 18 22 21 20 18 17 18 18 17 16 16 17 17
17 17 17 17 18 19 19 19 20 20 21 22 23 23 23 22 21 20 16 11 9 6 6 7 9 11 12 13 14 16 18 17 17 17 16 17 17 17 16 15 15 17
15 15 16 16 17 17 18 17 18 19 20 21 21 22 22 20 19 17 13 9 7 5 5 6 8 9 9 10 11 13 14 13 15 15 15 16 16 16 15 15 15 17
13 14 15 15 15 15 16 16 16 18 19 20 20 21 20 18 17 16 13 9 5 4 5 5 5 6 6 7 8 11 12 12 13 14 14 15 16 17 17 17 18 18
12 12 13 13 13 14 14 15 15 16 18 19 20 20 19 18 16 15 14 11 6 5 5 5 6 5 4 5 7 9 11 12 12 13 14 15 16 18 19 19 19 21
10 11 11 12 12 13 14 14 15 16 17 18 20 20 19 17 16 14 13 12 8 6 6 6 5 5 5 6 8 8 10 12 12 13 14 15 16 19 20 21 20 20
8 9 10 11 12 13 14 15 15 16 18 19 20 21 20 18 16 13 11 10 8 6 6 5 4 4 4 6 7 7 8 11 12 13 14 15 16 19 21 20 18 18
7 8 10 11 12 13 14 16 16 17 18 19 20 21 20 18 16 11 8 9 8 6 5 4 4 4 4 5 6 7 7 9 11 12 14 15 16 18 18 16 15 18
7 8 10 11 12 13 14 15 16 17 18 19 20 20 19 19 16 11 7 8 8 7 6 5 4 5 5 5 6 7 7 9 10 11 13 14 14 15 15 13 14 18
8 9 10 12 13 13 14 14 15 16 16 17 18 19 18 18 17 11 7 7 8 7 6 6 6 6 5 6 7 8 9 9 9 11 13 14 12 12 13 11 12 15
8 10 11 13 13 13 13 14 14 15 16 16 17 18 18 18 16 12 8 7 8 7 6 6 7 6 5 5 7 9 10 10 10 12 14 13 12 13 12 12 12 13
9 10 12 13 13 13 13 13 14 15 16 17 17 17 18 17 16 14 10 8 8 7 6 5 6 5 4 5 7 8 9 9 9 10 11 11 11 12 12 12 13 12
10 11 12 13 13 13 13 13 14 15 16 17 17 17 17 16 16 14 12 9 8 7 5 4 4 4 3 4 6 8 9 9 8 8 9 9 10 11 12 14 14 12
10 11 12 13 14 14 14 14 14 14 15 17 17 17 16 15 14 15 14 10 6 5 4 4 5 6 5 5 7 7 8 10 9 7 8 8 9 10 11 13 13 13
10 11 12 13 14 15 15 15 15 15 16 16 17 16 14 13 13 14 14 12 6 3 3 4 5 6 5 6 7 7 7 8 9 8 8 8 9 9 10 11 12 13
9 10 11 13 14 15 16 16 16 16 16 16 17 17 15 13 13 13 14 13 9 6 6 7 6 6 7 6 6 6 6 7 8 8 7 7 8 9 10 10 10 11
8 9 11 12 14 15 15 16 16 15 15 15 16 16 15 13 12 13 14 13 12 11 10 10 9 4 3 2 1 3 6 6 8 9 7 6 6 7 9 8 9 10
7 8 10 11 13 14 14 15 15 14 13 13 13 13 13 12 11 11 11 10 10 10 8 7 9 8 5 2 1 4 6 6 6 7 7 7 8 8 7 7 9 10
7 8 10 11 12 13 13 14 13 12 11 11 11 11 10 11 10 9 8 7 6 7 7 5 5 6 5 6 7 5 6 6 7 8 8 7 5 5 6 4 4 6
7 8 9 10 11 12 12 12 11 9 9 10 10 10 9 9 8 7 7 7 7 7 7 4 3 6 9 9 9 7 6 7 8 8 9 6 1 3 4 2 1 1

ECMWFNIL_700_spd_114.txt.gz
Wind_Speed
16 17 18 19 20 20 21 21 22 23 23 24 23 24 25 26 27 28 29 29 30 30 30 31 32 31 29 28 28 26 24 23 22 23 23 22 20 20 20 23 24 23
16 17 19 19 20 20 21 22 22 22 21 21 22 24 25 26 27 28 29 30 30 30 31 32 31 28 24 24 24 24 22 20 19 21 23 22 19 18 18 20 21 22
17 18 19 19 19 20 21 22 21 20 20 20 22 24 26 27 27 28 28 29 28 29 30 29 25 21 19 19 21 21 20 17 16 19 21 20 18 17 17 18 20 21
17 18 18 19 20 20 21 20 20 18 18 20 21 24 25 26 27 28 27 27 27 27 26 23 19 16 15 16 18 18 17 14 14 16 18 17 17 16 16 17 19 19
17 18 18 19 20 20 20 19 18 17 17 19 21 23 24 25 26 27 26 26 25 23 20 17 15 12 11 13 15 15 15 13 11 13 15 15 16 16 17 18 19 19
18 19 19 19 19 19 18 18 17 16 17 19 21 22 23 24 25 25 24 24 22 19 16 13 12 10 10 11 14 14 14 13 12 13 14 14 15 16 18 19 20 21
18 18 18 17 17 17 17 16 16 16 17 19 21 22 23 23 23 23 22 22 20 17 14 12 11 11 11 12 13 14 14 13 13 13 14 14 15 16 18 20 21 22
17 16 15 15 15 15 15 16 16 16 17 19 20 21 22 22 22 21 20 20 19 16 13 12 11 11 11 12 12 13 13 12 12 12 14 15 15 15 17 19 21 22
15 14 13 13 13 14 14 15 15 16 17 18 19 20 21 22 21 20 19 18 17 15 12 10 10 10 10 11 12 12 11 11 11 11 13 14 14 15 16 19 21 21
13 12 12 12 12 13 14 14 15 15 16 17 19 20 20 21 21 20 18 16 15 13 11 10 10 10 9 8 10 10 10 10 11 11 12 13 14 15 17 19 21 20
11 10 10 11 11 12 13 14 15 15 16 17 19 20 20 21 21 20 18 15 13 12 11 10 10 10 9 8 8 9 9 10 11 11 12 12 14 16 18 20 21 20
9 9 9 10 11 12 13 14 15 16 17 18 19 19 20 20 21 20 18 14 11 10 9 9 10 10 10 8 8 9 8 9 10 10 11 13 14 15 16 18 21 21
9 9 9 10 11 12 13 15 16 16 17 18 19 19 20 20 20 20 18 14 10 9 8 8 9 10 9 8 8 8 7 8 9 9 10 12 14 14 14 16 19 21
8 9 9 10 12 13 14 15 16 17 18 18 18 19 19 20 20 19 17 13 9 9 8 7 8 9 9 9 8 8 7 8 8 8 10 12 13 14 14 15 18 20
8 9 10 11 12 14 15 16 16 17 17 18 18 18 18 19 19 18 16 13 9 8 8 8 9 9 9 10 9 7 6 7 6 7 10 11 12 13 15 16 17 19
9 9 10 11 13 14 15 15 15 16 17 17 17 17 17 18 18 17 15 12 9 8 8 8 9 9 9 10 9 8 7 6 6 7 9 9 9 12 15 16 17 18
10 10 11 12 13 14 15 15 15 15 16 16 17 17 17 17 16 15 14 12 9 8 8 8 8 9 9 10 9 7 7 6 7 8 9 8 8 11 12 12 13 16
12 11 11 12 13 14 14 14 15 15 16 16 16 16 16 16 15 14 12 11 7 6 7 7 8 9 9 8 7 6 7 7 7 8 9 9 9 10 11 11 12 14
13 12 12 12 13 14 14 14 15 15 15 16 16 16 16 15 14 13 11 9 7 5 6 6 7 8 7 7 5 4 5 6 6 7 7 7 7 7 8 11 12 13
13 12 12 12 13 13 14 14 15 15 15 16 16 16 14 13 12 11 9 7 6 5 6 7 8 8 6 6 5 5 6 7 7 7 7 7 7 7 8 10 12 13
13 12 12 12 12 13 14 14 15 15 15 15 15 14 13 12 11 10 7 6 6 5 6 7 4 4 3 3 5 7 7 8 8 8 8 8 8 8 8 9 11 14
13 12 12 11 11 12 13 14 14 15 14 15 14 13 13 12 10 9 7 7 7 7 9 11 8 5 3 3 5 7 6 6 6 6 7 8 8 9 9 9 10 12
12 11 11 10 10 11 12 13 13 14 14 14 13 12 11 10 9 8 7 7 7 9 12 12 9 6 5 7 8 8 8 8 7 6 7 8 5 2 5 9 10 11
11 10 9 9 9 9 11 11 12 12 12 12 11 10 10 9 8 7 6 4 3 4 6 4 3 3 4 8 9 8 9 9 9 9 9 8 4 4 4 5 8 9
9 8 7 7 7 8 9 10 10 10 10 10 10 10 9 9 8 7 5 3 1 2 3 2 3 4 5 7 9 10 9 8 9 10 8 5 2 0 1 2 2 1
7 6 6 6 6 7 8 8 7 7 7 8 9 9 9 9 9 7 6 5 3 2 2 2 3 5 6 7 10 12 12 12 11 10 8 6 6 7 6 6 7 7

ECMWFNIL_700_spd_117.txt.gz
Wind_Speed
12 13 15 16 17 18 20 21 21 21 22 23 24 25 25 26 25 25 25 27 28 30 32 33 33 32 33 33 33 34 35 35 35 33 31 29 26 24 23 23 25 25
12 14 16 17 18 19 21 22 22 21 21 22 23 24 25 26 26 26 27 27 29 30 32 32 32 31 31 29 29 29 29 28 28 29 28 26 23 22 21 22 23 24
13 15 17 18 19 20 21 22 21 21 21 22 23 24 25 26 26 26 27 28 29 30 31 30 30 29 27 25 24 24 22 21 21 23 23 22 20 20 20 20 21 20
14 16 18 19 20 21 21 21 21 21 21 22 23 24 25 26 26 26 27 28 29 30 29 29 28 26 24 23 22 20 17 15 16 18 19 18 18 18 18 18 19 18
15 17 19 20 21 21 20 19 20 20 21 22 23 24 25 26 26 26 27 27 28 28 28 26 25 23 22 21 20 17 14 13 14 16 17 16 16 17 17 17 17 17
16 18 19 20 20 19 18 19 19 20 20 21 22 24 25 26 26 26 26 26 26 27 26 24 22 20 20 19 18 16 13 12 14 16 17 16 16 16 16 17 17 16
17 19 20 19 18 17 18 18 19 19 19 20 22 23 24 25 25 26 26 25 25 26 24 22 20 18 18 18 17 15 13 13 14 16 17 18 18 18 17 17 18 17
18 19 18 17 16 16 17 18 18 18 19 20 21 22 24 25 25 25 25 24 25 25 23 20 18 17 16 16 16 15 14 14 15 16 18 18 18 19 19 19 19 18
17 17 16 15 15 15 16 16 17 18 19 20 21 23 24 25 26 25 24 24 23 23 21 19 17 16 15 15 14 14 14 15 15 16 17 18 18 19 19 19 18 18
16 16 15 14 14 14 15 16 17 18 20 21 22 23 24 25 25 25 24 23 22 22 20 18 17 16 15 14 13 13 13 14 15 16 16 17 17 18 17 17 17 18
14 14 12 12 13 13 15 16 17 19 20 22 23 23 24 25 25 25 24 23 21 20 19 18 17 15 14 14 14 13 13 14 14 15 16 15 15 15 15 15 16 17
12 11 11 11 12 13 15 16 18 19 21 22 23 23 24 25 25 25 24 22 20 19 18 17 16 15 14 13 13 13 13 13 14 14 14 14 14 14 14 15 15 16
10 10 10 11 12 13 15 16 18 19 21 22 22 23 24 24 25 25 24 22 19 18 17 16 15 13 12 13 12 12 13 13 13 13 13 13 13 13 14 14 15 16
9 9 10 11 12 14 15 17 18 19 20 21 22 23 24 24 24 24 23 21 18 17 15 14 13 12 11 12 12 12 12 13 13 13 13 14 14 14 13 14 15 16
10 10 11 12 13 14 16 17 18 19 20 21 22 23 24 24 24 24 22 20 17 15 14 12 12 11 11 12 12 12 12 11 11 12 12 13 13 13 13 14 15 15
10 11 12 13 14 15 16 17 18 19 19 20 22 23 24 24 24 23 22 19 16 14 12 10 10 10 10 11 12 12 11 11 11 12 11 11 10 11 12 13 14 14
11 12 13 14 15 15 16 18 18 19 19 20 22 23 24 24 23 22 21 17 15 13 10 9 9 10 10 10 10 11 10 10 11 12 12 11 10 10 11 12 13 14
12 13 14 15 16 16 17 18 18 19 19 20 21 22 23 24 23 21 19 16 13 11 9 7 8 9 9 9 9 9 9 9 10 12 13 13 12 12 12 12 12 13
13 14 15 16 16 16 17 18 18 19 19 20 20 21 22 23 22 20 17 14 11 9 8 7 6 7 9 9 9 9 9 9 10 12 13 13 12 12 11 10 10 11
13 14 15 16 16 17 17 18 18 18 19 19 19 20 20 20 20 18 15 12 10 9 9 9 6 6 7 7 8 9 9 9 10 12 13 14 13 12 11 10 10 10
13 14 15 15 16 16 17 17 17 17 18 18 18 18 17 16 16 16 14 11 8 5 6 8 8 6 5 6 7 8 9 8 8 9 11 12 13 13 12 11 11 11
13 14 15 15 15 16 16 15 15 16 17 17 16 16 16 15 13 12 12 10 7 2 1 5 6 4 4 7 9 10 11 9 8 8 9 10 11 11 9 9 11 11
14 14 14 14 14 14 14 13 14 14 15 15 15 15 15 14 12 9 8 7 5 2 2 3 3 3 5 9 11 12 11 10 9 8 9 9 9 7 4 4 7 8
13 14 14 14 13 12 11 11 12 13 13 13 13 13 13 12 10 8 7 6 6 7 7 7 8 9 10 10 10 10 10 9 8 8 9 8 7 3 3 6 9 7
12 13 13 12 11 9 9 9 9 10 10 11 11 11 11 10 9 8 7 7 8 9 10 10 10 11 9 6 7 9 9 9 9 10 8 7 6 6 6 7 8 7
11 11 11 10 9 8 8 8 7 7 8 9 9 9 9 9 9 9 8 7 7 7 7 8 8 8 6 6 7 8 9 9 10 9 8 6 7 8 7 6 7 7

ECMWFNIL_700_spd_120.txt.gz
Wind_Speed
8 8 10 12 14 15 17 18 19 20 21 21 20 19 19 21 22 24 25 25 25 26 26 27 28 29 30 29 28 27 25 25 25 26 28 28 30 31 31 30 30 29
8 9 10 12 14 16 18 19 20 21 21 20 19 19 20 22 23 24 25 25 25 25 26 27 28 29 30 28 26 25 23 22 23 23 24 24 23 22 22 23 25 25
8 9 11 13 15 17 19 20 21 21 20 18 18 19 21 22 23 24 25 25 25 25 26 27 28 29 29 26 25 23 21 21 21 21 21 19 16 15 15 17 19 22
8 9 11 13 16 18 19 20 20 19 18 18 18 20 22 23 24 24 25 25 26 26 27 27 28 29 27 25 23 22 21 20 20 19 18 16 14 12 12 15 17 19
8 10 12 14 17 19 20 20 19 17 17 18 19 20 22 23 24 25 25 26 27 27 27 27 28 28 26 23 22 21 20 20 19 18 17 15 13 13 13 15 16 17
9 11 13 16 17 19 19 18 17 16 16 18 19 21 22 23 25 25 26 27 28 27 27 26 27 26 24 22 20 19 20 20 18 17 16 15 14 14 15 16 16 15
10 12 14 16 17 17 17 16 15 15 17 18 20 21 22 23 25 26 27 28 28 27 26 26 26 25 22 21 19 18 18 19 18 16 15 15 16 16 16 17 17 17
11 13 14 16 16 15 15 14 14 15 17 19 20 21 22 23 25 26 27 27 27 27 26 25 25 23 21 19 18 17 17 17 17 16 15 15 16 16 16 18 19 19
11 13 14 14 13 13 13 13 14 15 17 19 20 21 23 24 25 26 27 27 27 27 25 25 24 22 20 19 18 17 16 16 17 16 15 14 14 15 16 17 19 20
11 12 12 12 12 12 12 12 14 15 17 19 20 22 23 25 26 26 27 27 27 26 25 24 23 22 20 19 18 17 16 15 16 16 16 15 14 15 16 16 18 19
10 11 11 11 11 11 11 12 14 15 17 19 20 22 23 25 26 27 27 27 27 26 24 23 22 21 19 18 17 16 15 15 15 15 16 15 14 14 15 15 16 16
9 10 10 10 10 10 10 12 13 15 17 19 20 22 23 25 26 27 27 27 26 25 23 22 22 20 19 17 16 16 15 15 15 15 15 15 13 13 14 14 15 15
9 9 10 10 9 10 10 12 14 15 18 19 20 21 23 25 27 27 27 27 26 24 23 22 22 20 19 17 16 16 16 16 15 15 15 14 13 12 13 14 15 15
9 9 10 10 10 10 11 12 14 16 18 19 20 21 22 24 26 28 28 27 25 24 22 22 21 20 18 17 17 17 17 17 16 15 15 15 14 13 13 14 15 15
9 9 10 11 11 12 12 13 15 16 18 19 21 22 23 24 25 27 28 27 26 24 22 20 20 19 17 17 17 17 18 17 17 16 15 14 14 14 13 13 14 14
9 10 11 12 12 13 14 15 16 17 18 20 21 22 23 24 25 26 27 27 25 24 21 19 19 18 16 16 16 16 16 16 16 15 14 14 14 14 14 14 14 14
9 10 11 12 13 14 15 16 17 18 19 20 22 23 23 24 24 25 26 26 24 22 19 18 17 16 15 14 14 15 14 14 14 14 14 14 14 14 14 14 14 14
10 10 11 12 14 15 16 16 17 18 19 20 22 23 24 24 24 24 25 24 22 19 17 16 16 16 14 14 14 13 13 13 14 14 14 14 14 15 15 14 13 13
10 11 11 13 14 15 16 16 17 17 19 20 21 22 23 23 23 23 24 23 21 20 17 15 15 14 13 13 12 12 13 14 15 15 14 14 14 14 15 15 14 13
11 11 12 13 14 15 16 16 16 17 18 19 20 20 21 21 22 22 22 22 21 21 18 16 16 14 11 11 11 13 15 17 18 17 16 15 14 14 14 14 14 14
11 12 13 13 14 15 16 16 16 17 18 18 18 18 18 18 18 19 20 20 19 19 17 16 16 15 12 12 13 15 17 18 19 18 16 14 14 14 13 12 11 11
12 12 13 14 14 15 16 16 16 16 17 17 16 16 16 15 15 15 16 17 17 16 15 14 14 14 13 15 17 18 18 17 16 15 14 13 13 12 10 10 11 11
12 13 13 14 14 15 15 15 15 15 15 15 15 14 14 13 13 13 13 13 14 14 14 14 14 15 15 15 16 16 15 14 13 12 12 12 12 10 8 9 11 11
12 13 13 13 14 14 14 14 14 14 14 14 13 12 11 11 11 11 11 12 12 13 13 12 12 12 12 11 11 11 12 12 11 11 12 12 10 8 7 8 10 10
11 12 12 12 13 13 13 13 12 12 12 12 11 11 10 9 10 10 10 11 11 11 10 10 10 10 10 9 10 11 11 11 11 11 12 11 9 8 8 8 9 9
10 10 11 11 12 12 12 12 11 10 10 10 10 9 9 9 10 10 10 10 10 9 8 9 10 11 10 10 10 11 11 11 12 12 11 10 9 9 10 10 10 10

ECMWFNIL_700_spd_123.txt.gz
Wind_Speed
13 13 13 12 11 12 14 16 18 18 19 19 18 17 16 16 16 17 18 19 19 20 20 20 21 22 23 24 26 26 25 23 22 22 21 22 22 22 21 20 19 20
13 13 13 12 12 13 15 17 19 20 20 19 17 16 15 15 16 17 18 18 19 19 19 20 21 22 23 24 25 25 23 21 21 20 20 20 20 19 18 18 17 16
13 13 14 13 12 13 16 18 19 20 19 18 15 14 14 15 16 17 18 18 18 19 19 20 21 22 23 24 24 24 22 20 20 20 18 18 18 17 16 15 15 14
14 14 14 13 13 14 16 18 19 19 18 16 14 14 14 16 17 17 18 18 19 20 20 20 21 22 23 23 24 23 21 20 20 19 18 18 18 18 16 14 14 14
15 14 14 13 13 14 16 18 18 17 16 14 13 14 15 16 17 17 18 19 20 21 21 21 21 21 22 23 23 23 21 19 19 19 19 18 18 18 17 16 14 14
15 14 14 13 13 14 15 17 16 14 13 12 13 14 15 16 17 17 18 19 20 21 21 21 21 21 22 23 23 22 21 20 19 18 19 18 18 18 17 17 16 15
15 14 14 12 12 14 15 15 14 12 11 11 12 13 14 15 17 18 19 20 21 22 22 22 22 22 22 23 23 22 20 19 19 18 18 18 18 17 16 16 16 15
16 14 13 11 12 13 14 13 11 10 10 11 12 13 14 16 17 18 19 20 21 23 23 23 22 22 22 23 22 21 19 19 18 17 18 17 17 16 15 15 15 15
15 13 12 11 12 12 12 11 9 9 10 10 12 13 14 16 17 18 20 21 22 23 23 23 22 22 22 23 22 20 18 18 18 17 17 17 17 15 15 15 15 14
14 12 11 11 11 11 11 9 9 9 9 10 12 13 14 16 17 19 20 22 23 24 23 23 22 22 22 22 21 20 17 17 17 17 17 17 17 16 15 14 14 14
14 12 11 11 11 11 10 9 9 9 9 11 12 13 15 16 18 19 21 22 23 24 23 23 22 21 21 21 21 19 17 16 17 18 18 17 17 17 16 15 15 15
13 12 11 11 10 10 10 9 9 9 10 11 12 13 15 16 18 19 20 22 23 23 23 22 22 21 20 20 20 18 17 16 17 17 18 17 17 17 16 15 15 15
13 12 11 10 10 10 10 10 10 10 11 12 13 14 15 17 18 19 20 21 23 23 23 23 22 21 20 20 19 18 17 17 17 17 17 17 17 16 16 16 15 14
13 12 11 10 11 11 10 10 11 11 12 13 14 15 16 17 18 19 20 21 22 23 23 23 22 21 21 20 19 18 18 17 17 17 17 17 17 17 17 16 15 15
13 11 11 11 11 11 10 11 12 12 13 14 15 15 16 17 18 19 20 21 22 23 23 23 22 21 20 19 18 17 17 17 16 16 17 17 17 17 17 17 16 16
13 12 11 11 11 10 10 11 12 13 14 14 15 16 16 17 18 19 20 21 22 23 23 22 21 20 19 17 15 15 15 15 16 17 17 18 18 18 18 17 16 16
13 12 12 11 10 10 10 11 12 13 14 15 15 16 16 17 19 19 19 20 21 21 21 20 18 17 17 15 13 13 14 15 17 19 20 20 19 19 18 17 16 15
13 13 12 11 10 9 10 11 12 13 13 14 15 16 17 18 19 19 19 19 20 20 21 19 17 16 15 13 11 12 14 17 18 20 21 20 19 18 18 17 15 14
14 13 11 10 9 9 10 11 12 12 13 14 15 16 17 18 19 19 19 19 20 21 21 20 18 16 14 13 12 14 16 18 19 20 20 18 18 18 17 15 13 13
13 12 10 9 9 9 10 11 11 12 13 14 15 16 16 17 18 19 19 19 19 20 21 20 18 17 16 15 15 16 18 18 17 17 17 16 16 17 15 12 12 13
12 11 10 9 9 9 10 10 11 12 12 13 14 15 16 16 16 17 17 18 18 18 19 19 18 17 17 17 17 17 17 16 15 15 15 15 16 16 15 13 14 15
11 10 9 9 9 10 10 10 11 11 12 13 14 14 14 14 14 14 15 15 15 16 16 17 17 16 16 15 15 15 15 15 14 14 14 15 15 15 15 15 15 15
10 10 10 10 10 10 10 10 10 11 11 12 13 13 13 13 13 12 12 12 13 13 14 14 14 14 14 13 13 13 14 14 14 13 14 15 15 15 14 13 13 14
9 9 10 10 9 10 10 10 10 10 11 11 12 12 12 12 11 11 11 10 10 11 11 11 12 12 12 12 12 12 12 12 12 13 14 15 14 13 13 13 13 13
9 9 9 9 9 9 9 9 10 10 10 11 11 11 11 10 10 9 9 8 8 9 9 10 10 11 11 11 10 10 10 11 11 13 14 14 14 14 15 14 14 13
9 9 9 9 9 9 9 9 9 10 10 11 10 10 10 9 8 8 7 7 7 8 9 9 9 9 10 10 10 10 10 11 11 12 13 13 13 13 13 13 13 12